[[{"header":{"parameterUnit":"m.s-1","parameterCategory":1,"la1":30.6,"la2":29.2853,"lo1":-89.7004,"lo2":-87.6739,"dy":0.0162,"dx":0.0183,"nx":112,"ny":82,"refTime":"2023-10-10T00:00:00:Z","depth":0,"parameterNumber":2,"parameterNumberName":"U-component_of_WINDS"},"data":[0.0,0.0,0.0,0.0,0.0,0.0,0.0,0.0,0.0,0.0,0.0,0.0,0.0,0.0,0.0,0.0,0.0,0.0,0.0,0.0,0.0,0.0,0.0,0.0,0.0,0.0,0.0,0.0,0.0,0.0,0.0,0.0,0.0,0.0,0.0,0.0,0.0,0.0,0.0,0.0,0.0,0.0,0.0,0.0,0.0,0.0,0.0,0.0,0.0,0.0,0.0,0.0,0.0,0.0,0.0,0.0,0.0,0.0,0.0,0.0,0.0,0.0,0.0,0.0,0.0,0.0,0.0,0.0,0.0,0.0,0.0,0.0,0.0,0.0,0.0,0.0,0.0,0.0,0.0,0.0,0.0,0.0,0.0,0.0,0.0,0.0,0.0,0.0,0.0,0.0,-0.9335,-0.9795,-1.0495,-1.0894,-1.0799,-0.883,-0.6834,-0.5093,0.0,0.0,0.0,0.0,0.0,0.0,0.0,0.0,0.0,0.0,0.0,0.0,0.0,0.0,0.0,0.0,0.0,0.0,0.0,0.0,0.0,0.0,0.0,0.0,0.0,0.0,0.0,0.0,0.0,0.0,0.0,0.0,0.0,0.0,0.0,0.0,0.0,0.0,0.0,0.0,0.0,0.0,0.0,0.0,0.0,0.0,0.0,0.0,0.0,0.0,0.0,0.0,0.0,0.0,0.0,0.0,0.0,0.0,0.0,0.0,0.0,0.0,0.0,0.0,0.0,0.0,0.0,0.0,0.0,0.0,0.0,0.0,0.0,0.0,0.0,0.0,0.0,0.0,0.0,0.0,0.0,0.0,0.0,0.0,0.0,0.0,0.0,0.0,0.0,0.0,0.0,0.0,0.0,0.0,0.0,0.0,0.0,0.0,0.0,0.0,0.0,0.0,0.0,0.0,-0.9476,-1.0819,-1.1084,-1.1152,-1.1132,-0.7857,-0.5664,-0.5356,0.0,0.0,0.0,0.0,0.0,0.0,0.0,0.0,0.0,0.0,0.0,0.0,0.0,0.0,0.0,0.0,0.0,0.0,0.0,0.0,0.0,0.0,0.0,0.0,0.0,0.0,0.0,0.0,0.0,0.0,0.0,0.0,0.0,0.0,0.0,0.0,0.0,0.0,0.0,0.0,0.0,0.0,0.0,0.0,0.0,0.0,0.0,0.0,0.0,0.0,0.0,0.0,0.0,0.0,0.0,0.0,0.0,0.0,0.0,0.0,0.0,0.0,0.0,0.0,0.0,0.0,0.0,0.0,0.0,0.0,0.0,0.0,0.0,0.0,0.0,0.0,0.0,0.0,0.0,0.0,0.0,0.0,0.0,0.0,0.0,0.0,0.0,0.0,0.0,0.0,0.0,0.0,0.0,0.0,0.0,0.0,0.0,0.0,0.0,0.0,0.0,0.0,0.0,-0.9968,-1.0779,-1.1262,-1.1247,-1.0814,-0.9805,-0.7075,-0.4974,-0.3987,-0.2234,0.0,0.0,0.0,0.0,0.0,0.0,0.0,0.0,0.0,0.0,0.0,0.0,0.0,0.0,0.0,0.0,0.0,0.0,0.0,0.0,0.0,0.0,0.0,0.0,0.0,0.0,0.0,0.0,0.0,0.0,0.0,0.0,0.0,0.0,0.0,0.0,0.0,0.0,0.0,0.0,0.0,0.0,0.0,0.0,0.0,0.0,0.0,0.0,0.0,0.0,0.0,0.0,0.0,0.0,0.0,0.0,0.0,0.0,0.0,0.0,0.0,0.0,0.0,0.0,0.0,0.0,0.0,0.0,0.0,0.0,0.0,0.0,0.0,0.0,0.0,0.0,0.0,0.0,0.0,0.0,0.0,0.0,0.0,0.0,0.0,0.0,0.0,0.0,0.0,0.0,0.0,0.0,0.0,0.0,0.0,0.0,0.0,0.0,0.0,0.0,0.0,0.0,-1.0965,-1.1663,-1.1467,-1.0925,-0.9991,-0.8627,-0.6208,-0.4186,-0.2793,-0.0721,0.0,0.0,0.0,0.0,0.0,0.0,0.0,0.0,0.0,0.0,0.0,0.0,0.0,0.0,0.0,0.0,0.0,0.0,0.0,0.0,0.0,0.0,0.0,0.0,0.0,0.0,0.0,0.0,0.0,0.0,0.0,0.0,0.0,0.0,0.0,0.0,0.0,0.0,0.0,0.0,0.0,0.0,0.0,0.0,0.0,0.0,0.0,0.0,0.0,0.0,0.0,0.0,0.0,0.0,0.0,0.0,0.0,0.0,0.0,0.0,0.0,0.0,0.0,0.0,0.0,0.0,0.0,0.0,0.0,0.0,0.0,0.0,0.0,0.0,0.0,0.0,0.0,0.0,0.0,0.0,0.0,0.0,0.0,0.0,0.0,0.0,0.0,0.0,0.0,0.0,0.0,0.0,0.0,0.0,0.0,0.0,0.0,0.0,0.0,0.0,0.0,0.0,-1.0429,-1.1139,-1.1552,-0.9853,-0.8642,-0.852,-0.5067,-0.2826,-0.2707,0.005,0.0,0.0,0.0,0.0,0.0,0.0,0.0,0.0,0.0,0.0,0.0,0.0,0.0,0.0,0.0,0.0,0.0,0.0,0.0,0.0,0.0,0.0,0.0,0.0,0.0,0.0,0.0,0.0,0.0,0.0,0.0,0.0,0.0,0.0,0.0,0.0,0.0,0.0,0.0,0.0,0.0,0.0,0.0,0.0,0.0,0.0,0.0,0.0,0.0,0.0,0.0,0.0,0.0,0.0,0.0,0.0,0.0,0.0,0.0,0.0,0.0,0.0,0.0,0.0,0.0,0.0,0.0,0.0,0.0,0.0,0.0,0.0,0.0,0.0,0.0,0.0,0.0,0.0,0.0,0.0,0.0,0.0,0.0,0.0,0.0,0.0,0.0,0.0,0.0,0.0,0.0,0.0,0.0,0.0,0.0,0.0,0.0,0.0,0.0,0.0,0.0,0.0,-1.1001,-1.1324,-0.9953,-0.9003,-0.755,-0.5215,-0.3585,-0.1873,0.0108,0.0,0.0,0.0,0.0,0.0,0.0,0.0,0.0,0.0,0.0,0.0,0.0,0.0,0.0,0.0,0.0,0.0,0.0,0.0,0.0,0.0,0.0,0.0,0.0,0.0,0.0,0.0,0.0,0.0,0.0,0.0,0.0,0.0,0.0,0.0,0.0,0.0,0.0,0.0,0.0,0.0,0.0,0.0,0.0,0.0,0.0,0.0,0.0,0.0,0.0,0.0,0.0,0.0,0.0,0.0,0.0,0.0,0.0,0.0,0.0,0.0,0.0,0.0,0.0,0.0,0.0,0.0,0.0,0.0,0.0,0.0,0.0,0.0,0.0,0.0,0.0,0.0,0.0,0.0,0.0,0.0,0.0,0.0,0.0,0.0,0.0,0.0,0.0,0.0,0.0,0.0,0.0,0.0,0.0,0.0,0.0,0.0,0.0,0.0,0.0,0.0,0.0,-0.9992,-1.0644,-1.0462,-0.8867,-0.7513,-0.5677,-0.3119,-0.1875,-0.0291,0.1859,0.0,0.0,0.0,0.0,0.0,0.0,0.0,0.0,0.0,0.0,0.0,0.0,0.0,0.0,0.0,0.0,0.0,0.0,0.0,0.0,0.0,0.0,0.0,0.0,0.0,0.0,0.0,0.0,0.0,0.0,0.0,0.0,0.0,0.0,0.0,0.0,0.0,0.0,0.0,0.0,0.0,0.0,0.0,0.0,0.0,0.0,0.0,0.0,0.0,0.0,0.0,0.0,0.0,0.0,0.0,0.0,0.0,0.0,0.0,0.0,0.0,0.0,0.0,0.0,0.0,0.0,0.0,0.0,0.0,0.0,0.0,0.0,0.0,0.0,0.0,0.0,0.0,0.0,0.0,0.0,0.0,0.0,0.0,0.0,0.0,0.0,0.0,0.0,0.0,0.0,0.0,0.0,0.0,0.0,0.0,0.0,0.0,0.0,0.0,0.0,0.0,0.0,-0.9909,-0.8994,-0.8384,-0.8606,-0.518,-0.2871,-0.2858,0.0122,0.201,0.0,0.0,0.0,0.0,0.0,0.0,0.0,0.0,0.0,0.0,0.0,0.0,0.0,0.0,0.0,0.0,0.0,0.0,0.0,0.0,0.0,0.0,0.0,0.0,0.0,0.0,0.0,0.0,0.0,0.0,0.0,0.0,0.0,0.0,0.0,0.0,0.0,0.0,0.0,0.0,0.0,0.0,0.0,0.0,0.0,0.0,0.0,0.0,0.0,0.0,0.0,0.0,0.0,0.0,0.0,0.0,0.0,0.0,0.0,0.0,0.0,0.0,0.0,0.0,0.0,0.0,0.0,0.0,0.0,0.0,0.0,0.0,0.0,0.0,0.0,0.0,0.0,0.0,0.0,0.0,0.0,0.0,0.0,0.0,0.0,0.0,0.0,0.0,0.0,0.0,0.0,0.0,0.0,0.0,0.0,0.0,0.0,0.0,0.0,0.0,0.0,0.0,0.0,-0.8257,-0.8238,-0.7367,-0.4888,-0.3587,-0.186,0.0696,0.158,0.2896,0.5025,0.0,0.0,0.0,0.0,0.0,0.0,0.0,0.0,0.0,0.0,0.0,0.0,0.0,0.0,0.0,0.0,0.0,0.0,0.0,0.0,0.0,0.0,0.0,0.0,0.0,0.0,0.0,0.0,0.0,0.0,0.0,0.0,0.0,0.0,0.0,0.0,0.0,0.0,0.0,0.0,0.0,0.0,0.0,0.0,0.0,0.0,0.0,0.0,0.0,0.0,0.0,0.0,0.0,0.0,0.0,0.0,0.0,0.0,0.0,0.0,0.0,0.0,0.0,0.0,0.0,0.0,0.0,0.0,0.0,0.0,0.0,0.0,0.0,0.0,0.0,0.0,0.0,0.0,0.0,0.0,0.0,0.0,0.0,0.0,0.0,0.0,0.0,0.0,0.0,0.0,0.0,0.0,0.0,0.0,0.0,0.0,0.0,0.0,0.0,0.0,0.0,0.0,-0.6561,-0.6241,-0.5245,-0.3129,-0.2196,-0.0585,0.2242,0.2738,0.3884,0.6258,0.0,0.0,0.0,0.0,0.0,0.0,0.0,0.0,0.0,0.0,0.0,0.0,0.0,0.0,0.0,0.0,0.0,0.0,0.0,0.0,0.0,0.0,0.0,0.0,0.0,0.0,0.0,0.0,0.0,0.0,0.0,0.0,0.0,0.0,0.0,0.0,0.0,0.0,0.0,0.0,0.0,0.0,0.0,0.0,0.0,0.0,0.0,0.0,0.0,0.0,0.0,0.0,0.0,0.0,0.0,0.0,0.0,0.0,0.0,0.0,0.0,0.0,0.0,0.0,0.0,0.0,0.0,0.0,0.0,0.0,0.0,0.0,0.0,0.0,0.0,0.0,0.0,0.0,0.0,0.0,0.0,0.0,0.0,0.0,0.0,0.0,0.0,0.0,0.0,0.0,0.0,0.0,0.0,0.0,0.0,0.0,0.0,0.0,0.0,0.0,0.0,0.0,-0.4811,-0.3582,-0.2673,-0.2635,-0.0917,0.0931,0.261,0.38,0.5064,0.6473,0.0,0.0,0.0,0.0,0.0,0.0,0.0,0.0,0.0,0.0,0.0,0.0,0.0,0.0,0.0,0.0,0.0,0.0,0.0,0.0,0.0,0.0,0.0,0.0,0.0,0.0,0.0,0.0,0.0,0.0,0.0,0.0,0.0,0.0,0.0,0.0,0.0,0.0,0.0,0.0,0.0,0.0,0.0,0.0,0.0,0.0,0.0,0.0,0.0,0.0,0.0,0.0,0.0,0.0,0.0,0.0,0.0,0.0,0.0,0.0,-0.321,-0.2848,0.0,0.0,0.0,0.0,0.0,0.0,0.0,0.0,0.0,0.0,0.0,0.0,0.0,0.0,0.0,0.0,0.0,0.0,0.0,0.0,0.0,0.0,0.0,0.0,0.0,0.0,0.0,0.0,0.0,0.0,0.0,0.0,0.0,0.0,0.0,0.0,0.0,0.0,0.0,0.0,-0.2969,-0.274,-0.218,-0.0785,0.1024,0.2764,0.4417,0.5725,0.7085,0.8486,1.0453,0.0,0.0,0.0,0.0,0.0,0.0,0.0,0.0,0.0,0.0,0.0,0.0,0.0,0.0,0.0,0.0,0.0,0.0,0.0,0.0,0.0,0.0,0.0,0.0,0.0,0.0,0.0,0.0,0.0,0.0,0.0,0.0,0.0,0.0,0.0,0.0,0.0,0.0,0.0,0.0,0.0,0.0,0.0,0.0,0.0,0.0,0.0,0.0,0.0,0.0,0.0,0.0,0.0,0.0,0.0,0.0,0.0,0.0,0.0,-0.6666,-0.5535,0.0,0.0,0.0,0.0,0.0,0.0,0.0,0.0,0.0,0.0,0.0,0.0,0.0,0.0,0.0,0.0,0.0,0.0,0.0,0.0,0.0,0.0,0.0,0.0,0.0,0.0,0.0,0.0,0.0,0.0,0.0,0.0,0.0,0.0,0.0,0.0,0.0,0.0,0.0,0.0,-0.1246,-0.1305,-0.1039,-0.0106,0.1608,0.3313,0.4873,0.6376,0.7772,0.8977,1.0486,0.0,0.0,0.0,0.0,0.0,0.0,0.0,0.0,0.0,0.0,0.0,0.0,0.0,0.0,0.0,0.0,0.0,0.0,0.0,0.0,0.0,0.0,0.0,0.0,0.0,0.0,0.0,0.0,0.0,0.0,0.0,0.0,0.0,0.0,0.0,0.0,0.0,0.0,0.0,0.0,0.0,0.0,0.0,0.0,0.0,0.0,0.0,0.0,0.0,0.0,0.0,0.0,0.0,-1.205,-1.225,-1.2417,-1.2567,-1.2535,-1.2264,-0.9207,-0.7541,-0.6994,-0.6832,0.0,0.0,0.0,0.0,0.0,0.0,0.0,0.0,0.0,0.0,0.0,0.0,0.0,0.0,0.0,0.0,0.0,0.0,0.0,0.0,0.0,0.0,-0.8916,-0.7108,-0.6796,-0.7188,-0.8207,0.0,0.0,0.0,0.0,0.0,0.0,0.0,0.0,0.0,0.0,0.0,0.0,0.0,0.0,0.0,0.1629,0.3177,0.4397,0.6322,0.7757,0.8495,0.9895,1.0513,0.0,0.0,0.0,0.0,0.0,0.0,0.0,0.0,0.0,0.0,0.0,0.0,0.0,0.0,0.0,0.0,0.0,0.0,0.0,0.0,0.0,0.0,0.0,0.0,0.0,0.0,0.0,0.0,0.0,0.0,0.0,0.0,0.2857,0.4598,0.0,0.0,0.0,0.0,0.0,0.0,0.0,0.0,0.0,0.0,0.0,0.0,0.0,-0.807,-1.1954,-1.2491,-1.2846,-1.2976,-1.3342,-1.3545,-1.3572,-1.3763,-1.3867,-1.381,-1.3452,0.0,-1.1002,-1.0651,0.0,0.0,0.0,0.0,0.0,0.0,0.0,0.0,0.0,0.0,0.0,0.0,0.0,0.0,0.0,0.0,0.0,0.0,0.0,0.0,0.0,0.0,-0.7814,-0.5562,-0.5027,-0.5086,-0.5265,-0.5022,-0.4403,-0.3043,-0.2624,-0.2048,0.0,0.0,0.0,0.0,0.0,0.0,0.0,0.0,0.0,0.0,0.1608,0.2779,0.2959,0.5808,0.7449,0.719,0.9391,1.0595,1.0363,0.9987,0.0,0.0,0.0,0.0,0.0,0.0,0.0,0.0,0.0,0.0,0.0,0.0,0.0,0.0,0.0,0.0,0.0,0.0,0.0,0.0,0.0,0.0,0.0,0.0,0.0,0.0,0.0,0.0,0.0,0.1256,0.2457,0.3142,0.3978,0.3537,0.0,0.0,0.0,0.0,0.0,0.0,0.0,0.0,0.0,-0.8024,-0.8145,-0.9948,-1.3714,-1.4061,-1.4326,-1.4563,-1.4841,-1.5018,-1.5099,-1.5167,-1.52,-1.5126,-1.5194,-1.4618,-1.3641,-1.2724,-1.2009,-1.143,0.0,0.0,0.0,0.0,-1.1009,-1.1084,-1.1416,-1.1328,-1.107,-1.1016,0.0,0.0,0.0,0.0,0.0,0.0,0.0,-0.7857,-0.696,-0.6602,-0.5955,-0.4036,-0.2796,-0.1748,-0.0655,0.0466,0.0607,-0.1755,-0.1544,-0.0749,-0.0113,0.0,0.0,0.0,0.0,0.0,0.0,0.0,0.0,0.0,0.1623,0.2672,0.2601,0.4791,0.6031,0.5691,0.6641,0.7116,0.693,0.6672,0.6628,0.0,0.0,0.0,0.0,0.0,0.0,0.0,0.0,0.0,0.0,0.0,0.0,0.0,0.0,0.0,0.0,0.0,0.0,0.0,0.0,0.0,0.0,0.0,0.0,0.0,0.0,0.0,0.0,0.0942,0.1634,0.1634,0.264,0.2411,0.0,0.0,0.0,0.0,0.0,0.0,-0.18,-0.2581,-0.4927,-0.9147,-1.0111,-1.205,-1.514,-1.5411,-1.5662,-1.5877,-1.6029,-1.6164,-1.6313,-1.6313,-1.6205,-1.6071,-1.6071,-1.584,-1.5309,-1.4,-1.3125,-1.2481,-1.2108,-1.1843,-1.1757,-1.2054,-1.2135,-1.2135,-1.2535,-1.2481,-1.2182,-1.1928,-1.1155,-1.0001,-0.817,0.0,0.0,0.0,0.0,-0.4036,-0.4221,-0.365,-0.2716,-0.1501,0.0184,0.1948,0.3395,0.4788,0.4626,0.0613,0.0345,0.0733,0.074,0.0315,0.0,0.0,0.0,0.0,0.0,0.0,0.0,0.0,0.1203,0.1986,0.1877,0.3433,0.4325,0.4089,0.4366,0.446,0.4278,0.4132,0.4066,0.4139,0.0,0.0,0.0,0.0,0.0,0.0,0.0,0.0,0.0,0.0,0.0,0.0,0.0,0.0,0.0,0.0,0.0,0.0,0.0,0.0,0.0,0.0,0.0,0.0,0.0,0.0,0.0,0.0,0.0,0.0105,0.0186,0.0,0.0,0.0,0.0,-0.0115,-0.004,-0.0042,-0.0129,-0.2823,-0.5639,-0.8284,-1.1113,-1.3795,-1.6378,-1.6449,-1.6537,-1.6642,-1.6648,-1.6788,-1.6937,-1.6937,-1.6775,-1.649,-1.649,-1.6313,-1.5947,-1.474,-1.4048,-1.3653,-1.3159,-1.3009,-1.3111,-1.3139,-1.3193,-1.3295,-1.322,-1.2942,-1.2718,-1.288,-1.1069,-0.8759,-0.8383,-0.6568,0.0,0.0,-0.3687,-0.2609,-0.2612,0.0037,0.2711,0.2788,0.429,0.5726,0.583,0.5824,0.5722,0.5453,0.396,0.2746,0.2749,0.0,0.0,0.0,0.0,0.0,0.0,0.0,0.0,0.0,0.007,0.0138,0.0132,0.1655,0.2539,0.2341,0.3815,0.4618,0.4483,0.4288,0.4276,0.4457,0.4361,0.0,0.0,0.0,0.0,0.0,0.0,0.0,0.0,0.0,0.0,0.0,0.0,0.0,0.0,0.0,0.0,0.0,0.0,0.0,0.0,0.0,0.0,0.0,0.0,0.0,0.0,0.0,0.0,0.0,0.0,0.0,-0.1511,-0.0615,-0.0465,-0.1547,-0.0627,-0.0836,-0.2772,-0.3926,-0.6637,-1.1325,-1.246,-1.4354,-1.7047,-1.71,-1.7074,-1.7128,-1.7128,-1.7209,-1.7263,-1.7263,-1.71,-1.6815,-1.6815,-1.6646,-1.632,-1.5703,-1.5215,-1.4808,-1.4407,-1.4163,-1.4048,-1.4143,-1.4156,-1.4109,-1.4055,-1.3905,-1.3394,-1.1446,-0.9203,-0.6945,-0.5215,-0.329,-0.1664,-0.1664,-0.1286,-0.089,-0.089,0.1089,0.3083,0.3098,0.555,0.7877,0.7851,0.8754,0.9152,0.7921,0.5103,0.2902,0.2884,0.1283,0.0,0.0,0.0,0.0,0.0,0.0,0.0,0.0,0.0,0.0,0.0,0.0551,0.0851,0.0803,0.1333,0.1665,0.161,0.1535,0.1974,0.2989,0.3916,0.5092,0.0,0.0,0.0,0.0,0.0,0.0,0.0,0.0,0.0,0.0,0.0,0.0,0.0,0.0,0.0,0.0,0.0,0.0,0.0,0.0,0.0,0.0,0.0,0.0,0.0,0.0,0.0,0.0,0.0,-0.0417,-0.1536,-0.0634,-0.0466,-0.1563,-0.1569,-0.237,-0.4374,-0.6387,-0.9292,-1.3156,-1.4245,-1.5663,-1.7568,-1.7568,-1.7568,-1.7568,-1.7568,-1.7568,-1.7568,-1.7568,-1.7439,-1.7202,-1.7154,-1.6985,-1.6727,-1.6429,-1.613,-1.5818,-1.5371,-1.5038,-1.4828,-1.4883,-1.4869,-1.4589,-1.3712,-1.3232,-1.2589,-0.96,-0.7203,-0.5109,-0.3368,-0.1525,0.0,0.0,0.0,0.0,0.0,0.2086,0.4192,0.4182,0.7156,0.9964,0.9991,1.0323,1.0233,0.8956,0.6084,0.3666,0.3015,0.128,0.0,0.0,0.0545,0.0726,0.007,0.0567,0.0743,0.007,0.0,0.0,0.0,0.0,0.0,0.0,0.0,0.0,0.0,0.0478,0.1203,0.218,0.4188,0.5692,0.656,0.0,0.0,0.0,0.0,0.0,0.0,0.0,0.0,0.0,0.0,0.0,0.0,0.0,0.0,0.0,0.0,0.0,0.0,0.0,0.0,0.0,0.0,0.0,0.0,-0.0087,-0.0138,-0.0136,-0.0145,-0.0149,-0.0142,-0.0049,-0.0051,-0.0154,-0.2837,-0.4597,-0.4795,-1.0276,-1.3455,-1.3565,-1.6408,-1.7936,-1.7936,-1.7936,-1.7936,-1.7936,-1.7936,-1.7915,-1.7915,-1.7915,-1.7792,-1.7595,-1.7379,-1.717,-1.7062,-1.6609,-1.6437,-1.6363,-1.5848,-1.5519,-1.5432,-1.5323,-1.5127,-1.4591,-1.2009,-1.0871,-1.0175,-0.7461,-0.5173,-0.3357,-0.3069,-0.1601,0.0,0.0,0.0,0.0,0.0082,0.3205,0.6334,0.6387,0.9333,1.2104,1.2023,1.0272,0.8672,0.8559,0.7004,0.5095,0.3209,0.1272,0.0,0.0,0.1593,0.0,0.0251,0.166,0.2088,0.0211,0.0,0.0034,0.0066,0.0065,0.0096,0.0155,0.009,0.0058,0.0057,0.144,0.2235,0.2347,0.525,0.6755,0.6783,0.0,0.0,0.0,0.0,0.0,0.0,0.0,0.0,0.0,0.0,0.0,0.0,0.0,0.0,0.0,0.0,0.0,0.0,0.0,0.0,0.0,-0.1819,-0.2496,-0.0311,-0.1899,-0.3251,-0.325,-0.3248,-0.3243,-0.3255,-0.1282,-0.0919,-0.3085,-0.4134,-0.6519,-1.0868,-1.2723,-1.4662,-1.6871,-1.7772,-1.8199,-1.8199,-1.8199,-1.8199,-1.8199,-1.8077,-1.8078,-1.8023,-1.7914,-1.7792,-1.7479,-1.5295,-1.4293,-1.3946,-1.1592,-1.0618,-1.0955,-1.4653,-1.6029,-1.5669,-1.354,-1.1453,-0.9578,-0.8845,-0.8466,-0.7918,-0.5389,-0.4101,-0.32,-0.1378,-0.0471,0.0,0.0,0.0,0.0381,0.2025,0.4377,0.671,0.8304,1.0508,1.1812,1.0335,0.9408,0.7998,0.5053,0.4056,0.3542,0.3,0.13,0.0,0.0,0.0467,0.061,0.0072,0.0465,0.0603,0.0071,0.0,0.0479,0.1706,0.1666,0.2102,0.3331,0.2266,0.1584,0.1605,0.199,0.324,0.5417,0.7343,0.8291,0.0,0.0,0.0,0.0,0.0,0.0,0.0,0.0,0.0,0.0,0.0,0.0,0.0,0.0,0.0,0.0,0.0,0.0,0.0,0.0,0.0,0.0,-0.1477,-0.2441,-0.2035,-0.4498,-0.6365,-0.6351,-0.6409,-0.6479,-0.6479,-0.4914,-0.4656,-0.6444,-0.7748,-1.0072,-1.3633,-1.5077,-1.6554,-1.8352,-1.8409,-1.8375,-1.8321,-1.8321,-1.8287,-1.8177,-1.6834,-1.6192,-1.6076,-1.4758,-1.4083,-1.3843,-1.2083,-1.1271,-1.1062,-0.9155,-0.8394,-0.8664,0.0,0.0,0.0,0.0,-0.8992,-0.745,-0.6364,-0.5944,-0.5463,-0.3006,-0.214,-0.1654,0.0795,0.1486,0.1692,0.2689,0.2926,0.32,0.4519,0.6292,0.8058,0.932,1.1037,1.1816,0.9671,0.8387,0.6742,0.3532,0.2256,0.0,0.1675,0.0766,0.0,0.0,0.0688,0.0903,0.0109,0.0719,0.0889,0.0071,0.0,0.0684,0.2347,0.2321,0.0,0.0,0.0,0.2196,0.2208,0.2208,0.0,0.0,0.0,0.7066,0.7066,0.7066,0.0,0.0,0.7865,0.7822,0.0,0.0,0.0,0.0,0.0,0.0,0.0,0.0,0.0,0.0,0.0,0.0,0.0,0.0,0.0,0.0,-0.0299,-0.1479,-0.4307,-0.7122,-0.9031,-0.9393,-0.9586,-0.973,-0.9737,-0.9519,-0.9554,-0.9907,-1.2378,-1.4104,-1.4622,-1.7141,0.0,0.0,0.0,-1.8474,-1.8389,-1.8041,-1.7778,-1.7603,-1.4561,-1.3022,-1.2808,-1.0114,-0.8878,-0.8878,-0.841,-0.8233,-0.8175,-0.7728,-0.7551,-0.7578,-0.7902,-0.7765,-0.7365,-0.7232,-0.7016,-0.642,-0.4141,0.0,0.0,-0.0752,0.0185,0.0811,0.2966,0.3808,0.4442,0.6568,0.7027,0.6961,0.7205,0.8553,0.9861,0.9945,1.126,1.1933,0.9709,0.7741,0.5769,0.365,0.186,0.0657,0.0657,0.0292,0.0,0.0,0.1456,0.1965,0.0219,0.1491,0.1907,0.0176,0.0,0.0,0.237,0.248,0.2567,0.2723,0.2404,0.2191,0.2188,0.2209,0.2933,0.447,0.4672,0.4763,0.4763,0.4966,0.573,0.6992,0.6809,0.6804,0.0,0.0,0.0,0.0,0.0,0.0,0.0,0.0,0.0,0.0,0.0,0.0,0.0,0.0,0.0,0.0,-0.2032,-0.3817,-0.4429,-0.7055,-0.991,-1.2536,-1.2799,-1.2799,-1.2886,-1.0801,-1.0437,-1.2987,-1.3824,-1.5337,-1.7936,-1.8706,-1.9081,-1.9081,-1.8952,-1.8884,-1.8864,-1.6215,-1.4923,-1.4838,-1.1605,0.0,-0.9966,-0.9268,-0.8878,-0.8763,-0.6369,-0.5293,-0.5118,-0.2678,-0.1627,-0.2093,-0.651,-0.6829,-0.4724,-0.47,-0.3343,-0.1398,-0.0916,-0.0719,-0.0665,-0.0141,0.1402,0.3153,0.3634,0.5137,0.0,0.7197,0.7187,0.7454,0.9201,0.984,1.0417,1.1962,1.2496,1.205,0.9835,0.9038,0.8097,0.5847,0.5085,0.4813,0.4693,0.2075,0.0,0.0,0.0328,0.0438,0.0036,0.0325,0.043,0.0036,0.0,0.0683,0.2368,0.3569,0.4238,0.427,0.2962,0.2203,0.2196,0.2195,0.2933,0.447,0.5769,0.6431,0.6431,0.7789,0.8596,0.8855,0.7504,0.7539,0.0,0.0,0.0,0.0,0.0,0.0,0.0,0.0,0.0,0.0,0.0,0.0,0.0,0.0,0.0,0.0,-0.1254,-0.2817,-0.4403,-0.579,-0.8413,-1.3152,-1.3674,-1.4394,-1.6135,-1.5047,-1.4892,-1.6542,-1.6685,-1.7442,-1.9077,-1.9271,-1.8528,-1.6882,-1.6775,-1.5925,-1.4203,-1.2542,-1.1704,-1.1599,-0.8458,-0.6888,-0.6772,-0.5198,-0.4437,-0.4363,-0.2899,-0.2222,-0.1989,0.0987,0.3102,0.4166,0.139,0.0209,-0.0152,-0.1514,-0.0298,0.1994,0.1935,0.1879,0.2107,0.3411,0.4655,0.5937,0.7114,0.8343,0.9553,1.074,1.0894,1.0913,1.1932,1.2015,1.2033,1.2802,1.2901,1.222,0.9883,0.9399,0.8773,0.6556,0.6158,0.6147,0.6075,0.4443,0.31,0.2915,0.291,0.291,0.291,0.2893,0.291,0.2891,0.2838,0.3465,0.5101,0.5861,0.6191,0.6051,0.4545,0.3624,0.3567,0.3564,0.3922,0.4697,0.5553,0.5955,0.5903,0.6906,0.7676,0.8235,0.7622,0.7637,0.0,0.0,0.0,0.0,0.0,0.0,0.0,0.0,0.0,0.0,0.0,0.0,0.0,-0.0508,-0.0691,-0.011,-0.051,-0.1562,-0.3497,-0.3719,-0.5904,-1.2068,-1.3433,-1.5207,-1.8532,-1.8959,-1.9094,-1.9237,-1.8674,-1.8327,-1.8462,-1.7889,-1.6308,-1.3677,-1.3578,-1.193,-0.8538,-0.7921,-0.7197,-0.6492,-0.3429,-0.2244,-0.2617,-0.0171,0.0567,0.0056,0.0619,0.1175,0.1939,0.4341,0.6732,0.8913,0.8899,0.7571,0.5353,0.2657,0.3012,0.4817,0.473,0.4651,0.4911,0.697,0.7942,0.8719,1.0642,1.1593,1.2329,1.4231,1.457,1.4306,1.4156,1.3892,1.3524,1.3186,1.3064,1.2489,1.054,1.0059,0.9545,0.7835,0.7498,0.7444,0.7423,0.7423,0.7066,0.5995,0.5829,0.5825,0.5812,0.5808,0.5817,0.5809,0.5712,0.6295,0.7851,0.7619,0.7411,0.7468,0.6008,0.5121,0.4997,0.5009,0.5001,0.5001,0.541,0.5568,0.5467,0.605,0.682,0.7738,0.8122,0.8047,0.0,0.1334,0.2725,0.2601,0.2669,0.2254,0.0,0.0,0.0,0.0,0.0,0.0,0.0,-0.2305,-0.3268,-0.0456,-0.232,-0.3349,-0.089,-0.0538,-0.2875,-0.9315,-1.2447,-1.5426,-1.8826,-1.9169,-1.9237,-1.9393,-1.6649,-1.5107,-1.5227,-1.2464,-1.0699,-1.0325,-1.0188,-0.8598,-0.5428,-0.2502,0.0353,0.3204,0.6322,0.6366,0.3701,0.4023,0.2637,0.0172,0.284,0.5459,0.7915,0.8243,0.8625,0.8896,0.8893,1.0057,1.1413,0.8727,0.7744,0.7818,0.7808,0.758,0.7419,0.7698,0.9218,1.1035,1.1323,1.2888,1.4613,1.4897,1.4726,1.4455,1.4312,1.4048,1.3693,1.3424,1.3247,1.3058,1.2682,1.2456,1.2239,1.1856,1.1689,1.1605,1.1476,1.1457,1.0197,0.6544,0.5977,0.5916,0.5818,0.5808,0.5817,0.5809,0.5795,0.6395,0.7856,0.6664,0.6402,0.7663,0.6263,0.5372,0.533,0.5352,0.5346,0.5346,0.6756,0.749,0.748,0.8998,0.9829,0.9954,1.0007,0.983,0.1481,0.2371,0.298,0.2996,0.213,0.0608,-0.2025,-0.2628,-0.2634,-0.2613,-0.2612,-0.2642,-0.2811,-0.3979,-0.513,-0.5768,-0.5355,-0.4502,-0.3135,-0.1261,-0.1735,-0.6327,-0.8003,-1.1602,-1.8765,-1.9468,-1.8762,-1.6942,-1.5582,-1.3058,-0.9089,-0.7561,-0.5058,-0.1242,-0.105,0.049,0.3653,0.5006,0.6349,0.7695,0.9015,0.8892,0.7527,0.7563,0.6748,0.5404,0.6537,0.8744,1.1497,1.1497,1.2557,1.4165,1.4167,1.471,1.5014,1.0412,0.9552,1.0705,1.0585,1.0415,1.0531,1.1807,1.2912,1.372,1.3641,1.4337,1.5139,1.5139,1.4943,1.4726,1.4482,1.4265,1.3987,1.3512,1.3349,1.3241,1.305,1.2948,1.2847,1.2779,1.2651,1.2528,1.2461,1.2379,1.1726,0.9919,0.9612,0.9488,0.9332,0.9279,0.924,0.9092,0.9071,0.9264,0.9825,0.9257,0.9081,0.9573,0.898,0.8552,0.848,0.8422,0.8356,0.8356,0.9017,0.9335,0.9261,1.0182,1.0534,1.0322,1.0548,1.0522,0.4134,0.4329,0.3808,0.4028,0.1851,-0.1091,-0.3916,-0.451,-0.4492,-0.4573,-0.385,-0.3338,-0.3521,-0.4326,-0.5498,-0.7031,-0.6038,-0.471,-0.3846,-0.1571,-0.1196,-0.4521,-0.4914,-0.8094,-1.6251,-1.6993,-1.6005,-1.3747,-1.1834,-0.8642,-0.3636,-0.157,0.1567,0.6291,0.6462,0.7977,1.105,1.1083,1.1512,1.2396,1.239,1.1856,1.0872,0.9891,0.983,1.0373,1.0228,1.1857,1.462,1.462,1.5905,1.7915,1.7915,1.7772,1.7051,1.2701,1.2198,1.3693,1.3391,1.3262,1.3448,1.4967,1.5445,1.5384,1.5228,1.569,1.6198,1.6198,1.6593,1.6949,1.6603,1.6408,1.6115,1.5616,1.4953,1.4392,1.4164,1.3591,1.3111,1.3071,1.2895,1.2793,1.2793,1.2705,1.2583,1.2433,1.2352,1.2247,1.1932,1.182,1.1712,1.1538,1.1477,1.1396,1.1274,1.1261,1.1165,1.0982,1.0975,1.0928,1.0846,1.0738,1.0677,1.0677,1.0677,1.0662,1.0553,1.0846,1.0839,1.0567,1.0853,1.0914,0.8214,0.7706,0.6031,0.6489,0.2621,-0.185,-0.419,-0.4616,-0.4543,-0.4667,-0.2251,-0.0118,-0.0119,-0.265,-0.3731,-0.0808,-0.2803,-0.3664,-0.0556,-0.0061,-0.1212,-0.4524,-0.4923,-0.6329,-1.0002,-1.0215,-1.0079,-0.9993,-0.3932,-0.0189,0.0063,0.6254,0.9841,0.9839,0.9899,1.1343,1.4359,1.4366,1.5903,1.8913,1.8899,1.7261,1.4038,1.0735,1.0778,1.3488,1.3326,1.5004,1.7749,1.7749,1.7805,1.7915,1.7915,1.7772,1.7575,1.725,1.7003,1.6819,1.6458,1.6219,1.5929,1.5681,1.5533,1.5384,1.5228,1.6892,1.8778,1.8778,2.0382,2.2036,2.176,2.1413,2.1107,2.0823,1.8921,1.7138,1.7026,1.5086,1.3342,1.3234,1.3091,1.2996,1.2996,1.2989,1.2935,1.2739,1.284,1.2758,1.2166,1.1925,1.1793,1.178,1.1658,1.1552,1.1396,1.1382,1.1356,1.12,1.1193,1.1186,1.1186,1.1179,1.1179,1.1179,1.1179,1.1172,1.1172,1.1186,1.1186,1.1172,1.1186,1.1186,0.5374,0.5989,0.6325,0.4729,0.1902,-0.1175,-0.3909,-0.4532,-0.4532,-0.4536,-0.3752,-0.3015,-0.3217,-0.4212,-0.5358,-0.6476,-0.5686,-0.4604,-0.3539,0.0431,0.2788,0.1468,0.3269,0.4021,0.267,-0.3182,-0.5902,-0.3589,0.0685,0.5204,0.9876,1.2393,1.4652,1.6759,1.6846,1.7318,1.8201,1.8213,1.8684,1.9644,1.9345,1.8635,1.7504,1.6023,1.5853,1.6708,1.6559,1.7042,1.7915,1.7915,1.7915,1.7902,1.7758,1.7684,1.7561,1.7365,1.7209,1.708,1.6723,1.6537,1.6327,1.6029,1.687,1.7938,1.7805,1.9439,2.1314,2.136,2.1863,2.2394,2.2217,2.1933,2.1653,2.132,2.0502,1.9702,1.9574,1.8903,1.8209,1.7969,1.781,1.7194,1.5554,1.6381,1.6783,1.5232,1.3596,1.2474,1.2366,1.2135,1.1986,1.1986,1.3006,1.3638,1.3582,1.4592,1.5228,1.5191,1.5191,1.4631,1.3377,1.3231,1.2584,1.1349,1.1247,1.12,1.12,1.1302,1.1295,1.12,1.1302,1.1314,0.6278,0.6621,0.7127,0.681,0.337,-0.0168,-0.1022,-0.1198,-0.126,-0.1381,-0.1316,-0.1365,-0.16,-0.2537,-0.397,-0.6075,-0.3738,-0.1643,-0.1534,0.3041,0.6409,0.631,0.9175,1.1098,1.0885,0.7283,0.4479,0.3312,0.7543,1.2171,1.6766,1.8293,1.9982,2.1988,2.0944,2.0261,2.0098,2.0098,1.9997,1.9848,1.9393,1.9169,1.9115,1.8708,1.8477,1.8332,1.8179,1.8036,1.799,1.7936,1.7915,1.7902,1.7758,1.7717,1.7684,1.7385,1.7903,1.8531,1.7183,1.7291,1.8004,1.7619,1.9004,2.081,2.0586,2.2033,2.3838,2.3895,2.4489,2.5116,2.4913,2.4732,2.4551,2.4219,2.3345,2.2578,2.2308,2.16,2.0916,2.0537,2.0405,1.9823,1.8113,1.8796,1.9105,1.7723,1.5995,1.4585,1.3917,1.4305,1.4592,1.449,1.5467,1.6049,1.594,1.6891,1.7526,1.7526,1.7526,1.6992,1.5767,1.554,1.4877,1.3657,1.3445,1.3357,1.3357,1.3442,1.3434,1.3357,1.3442,1.3463,1.0611,0.9526,0.859,1.2114,0.6778,0.1444,0.4265,0.4923,0.4833,0.4487,0.4553,0.4569,0.4398,0.2217,0.0391,0.0463,0.285,0.487,0.5109,0.7845,0.9879,1.0096,1.3135,1.518,1.5163,2.0474,2.0209,1.1146,1.6646,2.0407,2.0478,2.3661,2.5403,2.5118,2.1962,2.0275,2.0139,2.0119,1.9963,1.9739,1.9359,1.9128,1.8993,1.8687,1.8494,1.8511,1.8233,1.8091,1.8077,1.7935,1.7915,1.7915,1.8074,1.8129,1.8095,1.79,1.9478,2.1241,1.8209,1.8896,2.0969,2.0412,2.1879,2.3779,2.3302,2.4675,2.6366,2.6366,2.8076,2.9847,2.9579,2.9499,2.9419,2.9081,2.7347,2.5631,2.5218,2.3363,2.1678,2.1295,2.1107,2.0931,2.0704,2.014,1.9855,2.0069,1.9852,1.8848,1.6669,1.8057,1.9114,1.885,1.8812,1.8632,1.8295,1.8373,1.8399,1.8389,1.8389,1.8352,1.8243,1.8001,1.7817,1.7709,1.7389,1.7253,1.7253,1.7243,1.7233,1.7233,1.7223,1.7213,1.0088,1.0926,1.1907,1.0655,0.8782,0.7344,0.7935,0.7838,0.7547,0.7132,0.6891,0.6725,0.6428,0.612,0.6086,0.6449,0.751,0.8417,0.8854,1.3811,1.7301,1.7156,2.2441,2.5993,2.5734,2.7231,2.7382,2.5303,2.6205,2.6058,2.4272,2.5121,2.4604,2.2147,2.1164,2.0648,2.0594,2.0261,2.0064,1.9976,1.9569,1.9291,1.9149,1.8952,1.8742,1.8511,1.8335,1.8199,1.8077,1.7935,1.7915,1.8074,2.017,2.0923,2.117,2.3169,2.4194,2.4451,2.3611,2.3459,2.3516,2.3147,2.4425,2.6022,2.5716,2.7172,2.8944,2.8944,2.9407,2.99,2.982,2.9646,2.9459,2.9392,2.8754,2.8095,2.7996,2.748,2.6976,2.6679,2.4945,2.399,2.5281,2.2748,2.1075,2.2707,2.2892,2.1838,1.9155,1.9133,1.9313,1.9251,2.0397,2.1034,2.0746,2.1898,2.2549,2.2348,2.2336,2.1713,2.0238,2.0108,1.9426,1.8052,1.7918,1.7852,1.7852,1.7653,1.7572,1.7572,1.7329,1.7213,1.1804,1.3735,1.608,1.5854,1.5692,1.5693,1.6316,1.6077,1.5129,1.3086,1.1617,1.0259,0.8936,0.8396,0.8709,1.0504,1.2598,1.4732,1.6735,2.1439,2.464,2.4561,2.9251,3.2388,3.2221,3.3454,3.386,3.2838,3.0837,2.9133,2.7944,2.6582,2.5046,2.3233,2.1668,2.0736,2.0668,2.0363,2.0139,1.9997,1.9678,1.9379,1.9115,1.9027,1.8864,1.862,1.8409,1.8267,1.8278,1.9327,1.9768,2.009,2.2898,2.398,2.4168,2.5616,2.6829,2.7687,2.748,2.7856,2.8165,2.6502,2.738,2.8934,2.8489,2.9086,2.9913,2.9913,2.9913,2.9913,2.9913,2.9793,2.9673,2.9673,2.9539,2.9348,2.9259,2.9232,2.9112,2.8684,2.7271,2.6385,2.733,2.5335,2.4081,2.5248,2.5454,2.487,2.3236,2.2824,2.254,2.2319,2.3147,2.3616,2.3342,2.4216,2.4716,2.4543,2.4543,2.4074,2.2966,2.2667,2.2019,2.0984,2.0726,2.061,2.061,2.0435,2.0307,2.0156,1.9946,1.9819,1.4891,1.7316,2.0502,2.3263,2.3855,2.409,2.5321,2.4976,2.3385,1.9777,1.7088,1.4684,1.245,1.0978,1.1253,1.4596,1.8265,2.1992,2.5757,2.8989,3.1087,3.1428,3.4335,3.6358,3.6358,3.8292,3.8557,3.6041,3.2096,2.9911,3.0277,2.7576,2.5803,2.5328,2.2383,2.0716,2.0476,2.0397,2.0187,1.9929,1.9827,1.9528,1.9081,1.904,1.9159,1.94,1.9092,1.9121,1.9629,2.1892,2.282,2.3075,2.5934,2.7068,2.7091,2.7376,2.8991,3.0925,3.055,3.1718,3.2973,2.9873,3.0183,3.1604,3.0929,3.0381,2.9967,2.9927,2.9913,2.9913,2.9913,2.9913,2.9913,2.9913,2.9913,2.9847,2.9593,2.9539,2.9366,2.8778,2.8486,2.8192,2.7816,2.759,2.7429,2.7429,2.7429,2.7403,2.7362,2.7068,2.6667,2.6172,2.6118,2.5971,2.5598,2.5571,2.5558,2.5518,2.5518,2.5518,2.5518,2.4986,2.4719,2.4719,2.4222,2.3977,2.3977,2.3897,2.3701,2.3412,2.3372,2.322,1.8385,2.0974,2.3523,2.3758,2.5326,2.6527,2.5401,2.4243,2.2945,2.1123,1.999,1.9266,1.9078,1.941,2.0607,2.3291,2.4769,2.6586,2.9581,3.2666,3.4798,3.5356,3.8524,4.0723,4.0723,3.8549,3.7075,3.6801,3.0664,2.6974,2.7035,2.6497,2.4845,2.1967,2.1298,2.0824,2.0476,2.0397,2.0295,2.0241,1.9963,1.9732,1.9596,1.9271,2.0422,2.2652,2.2408,2.3562,2.5679,2.6045,2.5984,2.6043,2.9004,3.014,3.0407,3.2801,3.3835,3.4006,3.3627,3.3633,3.3527,3.1982,3.1548,3.1564,3.0734,3.0413,3.0279,2.998,2.9913,2.9913,2.9913,2.9913,2.9913,2.9913,2.9913,2.99,2.9847,2.9847,2.9673,2.9028,2.8881,2.8711,2.8205,2.8072,2.8031,2.8031,2.8031,2.7938,2.7655,2.7375,2.7054,2.6707,2.6667,2.6453,2.5971,2.5917,2.581,2.5531,2.5518,2.5518,2.5518,2.5411,2.5358,2.5358,2.5024,2.485,2.4887,2.4369,2.4102,2.4048,2.3808,2.3527,1.9535,2.2055,2.4855,2.6185,2.7924,2.9163,2.8599,2.7294,2.5331,2.2239,2.1536,2.1111,1.9988,2.0852,2.2855,2.6021,2.7421,2.9734,3.4296,3.6209,3.7739,3.9251,3.9339,3.93,3.93,3.6123,3.3391,3.1697,2.8364,2.6383,2.6383,2.4621,2.2819,2.1065,2.0933,2.077,2.0476,2.0471,2.03,2.0207,2.1763,2.2367,2.209,2.3412,2.4741,2.5982,2.5629,2.6114,2.7287,2.865,2.9074,2.9058,3.1989,3.3129,3.3288,3.4702,3.5017,3.4775,3.4429,3.4122,3.3721,3.2728,3.2179,3.1757,3.1036,3.0702,3.0555,3.0408,3.0261,3.014,3.014,3.0034,2.9913,2.9913,2.9913,2.9913,2.9913,2.9913,2.9793,2.9352,2.9272,2.9125,2.8684,2.8484,2.8433,2.8433,2.8286,2.8192,2.8163,2.8043,2.7722,2.7121,2.7054,2.6934,2.6707,2.668,2.6613,2.644,2.6279,2.6199,2.6199,2.5905,2.5745,2.5745,2.5342,2.5115,2.5115,2.4636,2.4356,2.4195,2.4062,2.3834,1.9875,2.2842,2.632,2.8444,3.047,3.1851,3.164,3.0154,2.7672,2.3579,2.2932,2.2494,2.0687,2.1598,2.3795,2.7304,2.8995,3.1844,3.7787,3.8651,3.9559,4.1857,3.9119,3.7013,3.7013,3.3185,2.9563,2.6829,2.5895,2.5411,2.5411,2.2769,2.1123,2.0967,2.0845,2.0702,2.0476,2.1224,2.149,2.1295,2.4471,2.5781,2.5451,2.7562,2.8777,2.9271,2.8856,2.8854,2.9348,3.1433,3.2156,3.2115,3.4346,3.5191,3.5191,3.5191,3.5057,3.4803,3.4442,3.4175,3.3828,3.2982,3.2487,3.2078,3.1423,3.1062,3.0875,3.0808,3.0627,3.04,3.04,3.014,2.9913,2.9913,2.9913,2.9913,2.9913,2.9913,2.9833,2.9539,2.9486,2.9392,2.9041,2.8815,2.8698,2.8698,2.8484,2.846,2.8671,2.8698,2.843,2.7722,2.7576,2.7443,2.7322,2.7309,2.7309,2.7309,2.7041,2.6921,2.6921,2.6413,2.6185,2.6185,2.561,2.5302,2.5302,2.497,2.4639,2.4396,2.4449,2.4302,2.0241,2.4902,2.9594,2.8971,3.202,3.4491,3.1835,2.9686,2.7696,2.5619,2.4987,2.4949,2.5269,2.587,2.7229,3.0022,3.104,3.3073,3.7702,3.8544,3.9493,4.1563,3.8944,3.7013,3.7013,3.0984,2.6968,2.6649,2.352,2.1684,2.1684,2.1349,2.1089,2.0811,2.0834,2.0702,2.0476,2.3542,2.5014,2.5052,2.7972,2.9329,2.9249,2.8728,3.0016,3.2631,3.2166,3.3376,3.5642,3.5651,3.5469,3.5178,3.5192,3.5191,3.5191,3.5191,3.5177,3.507,3.4509,3.4295,3.4135,3.3227,3.2795,3.2393,3.149,3.1162,3.1129,3.0862,3.0627,3.04,3.04,3.014,2.9913,2.9913,2.9913,2.9913,2.9913,2.9913,2.9833,2.9539,2.9486,2.9392,2.9041,2.8975,2.8961,2.8961,2.8935,2.8921,2.8948,2.8961,2.8921,2.8841,2.839,2.7884,2.7349,2.7309,2.7309,2.7309,2.7282,2.7269,2.7269,2.6921,2.6747,2.6747,2.6172,2.5917,2.5917,2.5571,2.5291,2.501,2.5264,2.5053,2.3097,2.6797,3.0711,3.157,3.183,3.1773,3.1117,2.8951,2.6734,2.5277,2.4756,2.473,2.5355,2.5758,2.6667,2.8617,2.9125,3.0635,3.4588,3.5338,3.6687,3.9813,3.5665,3.2878,3.3766,2.754,2.345,2.345,2.2082,2.1211,2.1211,2.1123,2.098,2.0834,2.2736,2.3658,2.3535,2.6859,2.8473,2.8393,3.1277,3.2673,3.2626,3.3828,3.4947,3.5883,3.5533,3.5806,3.6473,3.6193,3.5899,3.5551,3.5311,3.5191,3.5191,3.5191,3.5084,3.4897,3.467,3.4362,3.3975,3.3427,3.2933,3.25,3.1917,3.1637,3.1436,3.1142,3.0849,3.0581,3.0453,3.014,2.9913,2.9913,2.9913,2.9913,2.9913,2.9913,2.9887,2.9766,2.974,2.9713,2.9548,2.9419,2.9312,2.9312,2.9108,2.9055,2.9285,2.9312,2.9312,2.9312,2.8938,2.8591,2.835,2.8337,2.8257,2.8083,2.7938,2.775,2.7535,2.7241,2.7001,2.6787,2.6426,2.6172,2.5998,2.5651,2.5451,2.5344,2.5464,2.5384,2.5585,2.8731,3.215,3.3206,3.221,3.0855,3.0741,2.8444,2.6052,2.4839,2.4409,2.4382,2.5007,2.5317,2.5959,2.7348,2.7789,2.9112,3.2433,3.2563,3.385,3.7869,3.2886,3.0088,3.2342,2.7681,2.4505,2.4505,2.4349,2.4313,2.4313,2.4085,2.3472,2.2288,2.5453,2.7038,2.6967,3.0316,3.1926,3.189,3.4776,3.6136,3.5973,3.7652,3.8183,3.7809,3.7489,3.7088,3.662,3.6326,3.6032,3.5725,3.5444,3.5271,3.5191,3.5191,3.507,3.4936,3.4842,3.4429,3.3961,3.3668,3.3106,3.2554,3.2291,3.1971,3.161,3.1316,3.0955,3.0667,3.0467,3.014,2.9913,2.9913,2.9913,2.9913,2.9913,2.9913,2.9913,2.9913,2.9913,2.9913,2.9913,2.9753,2.9606,2.9606,2.9432,2.9335,2.9579,2.8971,2.8793,2.9517,2.8744,2.8416,2.8971,2.8365,2.8156,2.8708,2.8457,2.8232,2.7976,2.7602,2.7295,2.7081,2.68,2.6586,2.6386,2.6132,2.5945,2.5772,2.5865,2.5852,2.6997,3.088,3.448,3.3199,3.3567,3.3577,3.0969,2.8339,2.6052,2.4839,2.4409,2.4382,2.5007,2.5317,2.5905,2.7122,2.8016,2.9526,3.2233,3.1014,3.1501,3.6001,3.1518,2.9748,3.3994,3.2772,3.1697,3.1697,3.155,3.1483,3.1483,3.1227,2.9431,2.5757,2.8759,3.045,3.045,3.374,3.5474,3.5474,3.8493,3.982,3.95,3.8985,3.8397,3.7809,3.7489,3.7195,3.6901,3.662,3.6326,3.6046,3.5738,3.5444,3.5191,3.5191,3.5191,3.5151,3.487,3.4563,3.4269,3.3975,3.333,3.2594,3.2594,3.2179,3.161,3.1316,3.0808,3.0413,3.04,3.014,2.9913,2.9913,2.9913,2.9913,2.9913,2.9913,2.9913,2.9913,2.9913,2.9913,2.9913,2.9913,2.9913,2.9913,2.9913,2.9913,2.9913,2.7747,2.7193,2.9631,2.769,2.6974,2.8823,2.6809,2.6445,2.8857,2.8721,2.8604,2.8591,2.8016,2.7696,2.7696,2.7443,2.7296,2.7296,2.7282,2.6988,2.6386,2.668,2.6653,2.7656,3.1154,3.4395,3.3044,3.2139,3.1076,2.9005,2.6961,2.5277,2.4502,2.4115,2.4191,2.493,2.4983,2.56,2.7829,2.8286,2.847,2.8803,2.9198,2.9623,3.0096,3.0427,3.1172,3.2479,3.2088,3.1827,3.1827,3.1689,3.1557,3.1439,3.3352,3.2852,2.9336,3.2401,3.4021,3.3914,3.7237,3.891,3.891,3.9494,3.968,3.9559,3.8771,3.8183,3.7809,3.7489,3.7195,3.6845,3.6393,3.6153,3.6019,3.5525,3.5271,3.5454,3.7287,3.6831,3.5441,3.7226,3.6289,3.4309,3.4215,3.344,3.2594,3.2594,3.2179,3.1265,2.9145,2.8195,2.7824,2.7778,2.628,2.5264,2.6966,2.6093,2.4899,2.4854,2.4854,2.4854,2.4854,2.4854,2.54,2.7057,2.7374,2.7928,2.9644,2.8436,2.7374,2.7374,2.5218,2.3976,2.4763,2.2637,2.3501,2.9144,2.8908,2.8728,2.9308,2.9259,2.9112,2.8868,2.8524,2.8217,2.8045,2.7709,2.7468,2.7309,2.7309,2.7215,2.7028,2.6881,2.6734,3.007,3.2485,3.4375,3.325,3.1403,2.9419,2.7749,2.6092,2.4743,2.4155,2.3937,2.4044,2.477,2.485,2.5451,2.7442,2.7116,2.6604,2.6675,2.6265,2.6343,2.7398,3.1777,3.4777,3.4901,3.5394,3.5707,3.5707,3.5624,3.5499,3.5303,3.6989,3.6911,3.4743,3.6533,3.7471,3.7408,3.9483,4.0481,4.0481,4.0,3.964,3.9412,3.8731,3.8143,3.7692,3.8611,3.8834,0.0,3.9117,3.931,3.9203,3.8641,3.835,3.8352,3.9011,3.821,3.6817,3.7405,3.6134,3.4295,3.4189,3.3427,3.2359,3.1137,3.0462,2.97,2.7985,2.6383,2.5232,2.5275,2.3889,2.2877,2.4443,2.3666,2.2556,2.251,2.251,2.251,2.251,2.251,2.3014,2.458,2.4854,2.5366,2.6876,2.5775,2.4808,2.4808,2.2647,2.1498,2.2418,2.0344,2.112,2.6695,2.7102,2.7853,2.9526,2.9539,2.9352,2.9001,2.8721,2.8457,2.8192,2.8005,2.7817,2.763,2.7523,2.7469,2.7415,2.7121,2.6934,0.0,3.4358,3.4101,3.3499,3.1071,2.852,2.7082,2.5621,0.0,2.3848,2.379,2.3968,2.4546,2.4903,2.5449,2.6413,2.5318,2.4652,2.5662,2.2813,2.2645,2.7973,3.5026,3.9614,4.0007,4.1376,4.2218,4.2218,4.2218,4.2071,4.1777,4.1483,4.1203,4.0869,4.0615,4.0481,4.0481,4.0502,4.0441,4.0441,4.0107,3.9607,3.906,3.8959,3.8469,3.7872,4.0716,4.174,4.1625,4.3873,4.462,4.4325,4.3911,4.3462,4.276,4.0441,3.9322,3.8619,3.5976,3.4718,3.4269,3.3908,3.3127,3.1744,2.8717,2.7568,2.732,2.7278,2.4995,2.2643,2.2869,2.248,2.2024,2.2188,2.2096,2.1958,2.1958,2.1958,2.1958,2.1958,2.1958,2.205,2.229,2.2336,2.2382,2.2464,2.2326,2.2234,2.2234,2.0113,1.952,2.1728,1.9974,1.965,2.2152,2.2418,2.4489,2.9079,2.9144,2.8855,2.8548,2.8432,2.8284,2.8034,2.8008,2.7994,2.7994,2.748,2.7265,2.721,2.6963,2.6687,3.3985,0.0,3.1542,3.0925,2.923,2.7479,0.0,2.5194,2.3875,2.3514,2.3607,2.4088,2.5117,2.5184,2.5812,2.8014,2.7879,2.6654,2.4183,2.3343,2.562,3.291,3.6027,3.8412,4.0517,4.163,4.2218,4.2218,4.2218,4.2004,4.1421,4.1314,4.1096,4.0588,4.0508,4.0481,4.0481,4.0254,4.0147,4.0087,3.9599,3.9159,3.8869,4.0548,4.1071,4.0841,4.347,4.4387,4.3963,4.4358,4.4257,4.3894,4.3531,4.2128,4.0389,4.186,3.972,3.6332,3.7486,3.6313,3.4162,3.3223,3.1415,2.9395,2.8186,2.7733,2.6871,2.2936,2.1184,2.046,2.0267,1.8651,1.7522,1.9323,1.8321,1.6939,1.6939,1.6939,1.6939,1.6939,1.6939,1.7538,1.9427,1.9789,2.0391,2.2234,2.0945,1.9743,1.9743,1.7584,1.6292,1.6845,1.6432,1.7079,1.9558,2.1452,2.3014,2.4158,2.4078,2.3959,2.386,2.5457,2.6268,2.6207,2.5957,2.5847,2.5804,2.3761,2.2728,2.2728,2.2446,2.2305,3.3769,3.271,3.157,3.1437,2.9911,2.8109,2.7034,2.5734,2.4498,2.334,2.346,2.4044,2.477,2.5224,2.6039,2.7707,2.7607,2.6671,2.4865,2.6428,2.9658,3.4789,3.7417,3.9526,4.1323,4.1924,4.2218,4.2218,4.2218,4.1964,4.1314,4.1274,4.1021,4.0508,4.0334,4.0254,4.0254,4.0107,3.996,3.9813,3.9167,3.9481,4.046,4.1494,4.2511,4.361,4.6071,4.6275,4.4939,4.5703,4.5226,4.383,4.345,4.2404,4.1144,4.14,3.9616,3.7074,3.6814,3.4676,3.1704,2.9693,2.805,2.6616,2.4851,2.4325,2.3718,2.0831,1.902,1.7943,1.7677,1.652,1.5696,1.693,1.6198,1.5181,1.5181,1.5181,1.5181,1.5181,1.5181,1.5643,1.6986,1.7211,1.7631,1.8964,1.8042,1.7211,1.7211,1.6011,1.5181,1.5181,1.5181,1.5737,1.7071,1.8414,2.0122,2.2372,2.2444,2.2323,2.2222,2.3358,2.3963,2.3809,2.3622,2.3556,2.3556,2.2052,2.1286,2.1286,2.1064,2.0903,3.3718,3.3478,3.315,3.3221,3.1634,2.9596,2.7776,2.6601,2.5364,2.3379,2.3455,2.3995,2.4516,2.5491,2.6506,2.7241,2.6804,2.6736,2.7899,3.0878,3.3799,3.5883,3.9049,4.135,4.1964,4.2138,4.2218,4.2218,4.2218,4.1964,4.1314,4.1274,4.1056,4.0441,4.0174,3.994,3.9893,3.9893,3.9746,3.9452,3.8905,3.9974,4.2375,4.189,4.3061,4.5524,4.7583,4.7062,4.4966,4.6674,4.6022,4.385,4.3434,4.3065,4.2353,3.9638,3.8331,3.7489,3.4144,3.1076,2.8246,2.5652,2.4506,2.3719,2.1018,1.9917,1.9584,1.9446,1.7735,1.5901,1.5683,1.554,1.5404,1.5221,1.5181,1.5181,1.5181,1.5181,1.5181,1.5181,1.5181,1.5181,1.5181,1.5181,1.5181,1.5181,1.5181,1.5181,1.5181,1.5181,1.5181,1.5181,1.5181,1.5181,1.5181,1.5181,1.6986,2.1129,2.1377,2.1409,2.1543,2.1578,2.1645,2.18,2.1412,2.1214,2.1214,2.0625,2.0368,2.0324,2.0201,2.0,3.5181,3.5831,3.5606,3.3817,3.2528,3.1085,2.8626,2.6762,2.5125,2.3554,2.3728,2.4609,2.6132,2.6974,2.7949,2.9597,2.932,3.0603,3.5374,3.5329,3.6106,3.963,4.1212,4.1777,4.1163,4.1777,4.2218,4.2218,4.2218,4.1964,4.1314,4.1274,4.0914,4.0074,4.0007,3.9773,3.9247,3.9247,3.91,3.8806,3.8504,3.9586,4.1816,4.1751,4.2921,4.5107,4.5478,4.5058,4.4166,4.4477,4.4141,4.3401,4.3335,4.1895,3.955,3.6635,3.4046,3.1433,2.809,2.646,2.5737,2.5043,2.3298,2.136,2.0467,1.8633,1.6869,1.6764,1.641,1.5988,1.5661,1.5573,1.5533,1.5248,1.5181,1.5181,1.5181,1.5181,1.5181,1.5181,1.5181,1.5181,1.5181,1.5181,1.5181,1.5181,1.5181,1.5181,1.5181,1.5181,1.5181,1.5181,1.5181,1.5181,1.5181,1.5181,1.5509,1.6292,1.6214,1.7042,1.9058,1.914,2.0162,2.2317,2.018,1.9097,1.9051,1.67,1.557,1.557,1.5417,1.533,3.4362,3.4499,3.4193,3.3211,3.3422,3.2914,2.9453,2.7773,2.6539,2.5046,2.509,2.5825,2.7268,2.8537,3.0261,3.3049,3.3499,3.463,3.7626,3.7534,3.7961,4.0413,4.1163,4.1523,4.1603,4.1964,4.2218,4.2218,4.2218,4.1964,4.1314,4.1274,4.0874,4.0007,3.9893,3.954,3.91,3.8838,3.8611,3.8477,3.8183,3.9322,4.1706,4.1512,4.2828,4.5253,4.4856,4.3676,4.1844,3.9873,3.8115,3.6454,3.4832,3.348,3.2238,3.0787,2.834,2.5513,2.3903,2.2194,2.0648,2.0623,1.9744,1.8729,1.8428,1.7436,1.6395,1.6246,1.6144,1.6029,1.5811,1.5696,1.5533,1.5357,1.5242,1.5208,1.5289,1.5303,1.5303,1.5303,1.5303,1.5282,1.5194,1.5181,1.5181,1.5181,1.5181,1.5181,1.5181,1.5181,1.5181,1.5181,1.5181,1.5181,1.5181,1.5181,1.5181,1.5181,1.512,1.5592,1.6732,1.6779,1.732,1.8554,1.7374,1.6779,1.6779,1.5322,1.3945,1.2748,1.3815,1.3584,3.3894,3.3452,3.2837,3.2526,3.328,3.3292,3.0077,2.883,2.8114,2.7025,2.7001,2.7428,2.8513,3.0333,3.2625,3.5685,3.7009,3.7889,3.8771,3.9199,3.9813,4.0762,4.1096,4.1483,4.2151,4.2218,4.2218,4.2218,4.2218,4.1964,4.1314,4.1269,4.0829,3.99,3.9599,3.9265,3.8993,3.8464,3.82,3.82,3.7849,3.9085,4.1517,3.9885,4.0631,4.3156,4.1217,3.9134,3.6871,3.4069,3.1696,2.9658,2.7392,2.5644,2.4343,2.3474,2.1218,1.8552,1.8481,1.7286,1.5877,1.5941,1.6446,1.6944,1.6702,1.656,1.6483,1.6307,1.6171,1.6049,1.5942,1.5771,1.5649,1.5499,1.535,1.5276,1.5432,1.5438,1.5418,1.5459,1.5466,1.5418,1.5262,1.5235,1.5235,1.5235,1.5235,1.5248,1.5282,1.5289,1.5276,1.5242,1.5235,1.5221,1.5187,1.5181,1.4946,1.4328,1.4852,1.5181,1.5181,1.5181,1.5181,1.5181,1.461,1.4328,1.4328,1.3425,1.2059,1.0345,1.19,1.1922,3.5357,3.4952,3.3748,3.2376,3.1353,3.0612,3.0341,2.9586,2.8986,2.9206,2.9245,2.9459,3.0132,3.2318,3.4589,3.6206,3.8116,3.9706,4.0588,4.1203,4.171,4.2044,4.2111,4.2151,4.2218,4.2218,4.2218,4.2218,4.2218,4.1964,4.1314,4.1082,4.0548,3.9666,3.9092,3.8758,3.8758,3.8143,3.7849,3.7849,3.7555,3.8779,4.1026,3.5536,3.4376,3.6395,3.0817,2.8083,2.7477,2.722,2.7004,2.6799,2.6583,2.3168,1.7971,1.5051,1.213,0.9605,0.95,1.1024,1.2974,1.3037,1.4844,1.6924,1.6625,1.653,1.6463,1.6178,1.609,1.6049,1.5942,1.5894,1.5854,1.5607,1.5458,1.5438,1.5539,1.5513,1.5452,1.5546,1.5573,1.5526,1.5418,1.5398,1.5398,1.5398,1.5398,1.5445,1.5539,1.556,1.5506,1.5411,1.5398,1.5337,1.5194,1.5181,1.4187,1.1815,1.3899,1.5181,1.5181,1.5181,1.5181,1.5181,1.2904,1.1673,1.1673,0.9152,0.7846,0.7656,0.7639,0.8746,3.4186,3.3153,3.1784,3.1572,2.9961,2.868,2.962,3.0281,3.0887,3.1524,3.1957,3.2398,3.3036,3.4963,3.6861,3.7956,3.9746,4.1136,4.1644,4.1924,4.2111,4.2218,4.2218,4.2218,4.2218,4.2218,4.2151,4.1964,4.1964,4.171,4.1096,4.0976,4.0508,3.964,3.9199,3.7853,3.5598,3.497,3.3733,3.1887,3.3694,3.3971,3.2873,3.051,2.9887,3.0639,2.8131,2.6992,2.6667,2.4636,2.2704,2.0654,1.6963,1.4167,1.2057,1.082,0.8515,0.631,0.795,0.9216,1.0391,1.2136,1.4633,1.6958,1.6842,1.6673,1.6497,1.6388,1.6225,1.6069,1.6058,1.5976,1.5888,1.5784,1.5662,1.5105,1.3573,1.3214,1.2656,1.1074,1.0736,1.0708,1.0558,1.0539,1.1124,1.2771,1.306,1.3668,1.5387,1.5593,1.5533,1.5425,1.3887,1.2909,1.2863,1.138,1.0054,0.9109,1.1432,1.2145,1.0531,1.0484,1.0484,1.0484,0.9535,0.9015,0.9015,0.7939,0.664,0.5239,0.8109,0.9156,3.2861,3.1609,3.0422,3.0292,2.912,2.85,3.0301,3.1423,3.2519,3.4055,3.4402,3.4616,3.5204,3.654,3.7849,3.8806,4.0575,4.1897,4.2178,4.2218,4.2218,4.2218,4.2218,4.1762,4.0645,4.0581,4.0047,3.8706,3.8607,3.8372,3.7841,3.7643,3.7235,3.6445,3.5976,3.4577,3.2144,3.1544,2.9729,2.6836,2.8802,2.9028,2.7762,2.6642,2.6094,2.5896,2.3703,2.2773,2.2439,1.9305,1.6775,1.4448,0.9476,0.7537,0.7365,0.6344,0.4713,0.3323,0.5166,0.6402,0.7482,0.9387,1.1978,1.4312,1.4266,1.4082,1.3882,1.3843,1.3661,1.3531,1.3531,1.4763,1.5976,1.5976,1.5169,1.3933,1.2259,1.1168,1.0018,0.8225,0.7864,0.7824,0.7705,0.7672,0.8295,1.0104,1.0397,1.1094,1.2955,1.3205,1.3143,1.302,1.1329,1.0201,1.0201,0.8589,0.7264,0.6458,0.8022,0.8589,0.7643,0.7595,0.7595,0.7595,0.6787,0.6787,0.7595,0.6694,0.5829,0.5078,0.832,0.9388,3.1731,3.0909,3.0207,2.8604,2.8864,3.0194,3.2826,3.32,3.3841,3.6794,3.6473,3.5832,3.6433,3.6754,3.7342,3.8486,4.0441,4.1897,4.2178,4.2218,4.2218,4.2155,4.2155,4.0784,3.7269,3.6949,3.5526,3.2086,3.1689,3.1509,3.1233,3.0647,3.0088,2.9631,2.8923,2.8568,2.8637,2.8143,2.6396,2.3424,2.318,2.4605,2.7342,2.422,2.2714,2.2149,1.6174,1.3496,1.3107,1.0102,0.8878,0.854,0.559,0.4474,0.4075,0.1101,0.0,0.0,0.0,0.1863,0.42,0.42,0.616,0.8474,0.8343,0.832,0.8254,0.808,0.8008,0.8008,0.8008,1.1968,1.6033,1.6033,1.3822,1.1803,1.1969,0.9756,0.7783,0.7927,0.7949,0.7877,0.775,0.7728,0.7731,0.7777,0.7777,0.7804,0.7981,0.7988,0.793,0.783,0.7633,0.7548,0.7548,0.7548,0.6458,0.3946,0.3756,0.4893,0.7403,0.7548,0.7548,0.7548,0.5083,0.5036,0.7545,0.5036,0.513,0.7592,0.7611,0.8928,3.1968,3.1111,3.0809,2.9981,3.0405,3.1664,3.4108,3.4603,3.5257,3.7809,3.8036,3.7782,3.7742,3.833,3.8945,3.9265,4.0548,4.163,4.2151,4.2218,4.1292,3.8826,3.8519,3.7134,3.353,3.3283,3.2738,3.1296,3.1284,3.1101,3.0564,3.0312,2.9915,2.9458,2.8901,2.7502,2.5084,2.4726,2.2934,1.9839,1.9692,1.8973,1.7878,1.6846,1.5207,1.3078,1.1111,1.0289,0.9991,0.7041,0.5815,0.5534,0.2521,0.1341,0.1221,0.0332,0.0,0.0,0.0,0.1819,0.42,0.42,0.616,0.8481,0.846,0.8363,0.8264,0.8244,0.8097,0.8008,0.8008,0.9207,1.0398,1.0398,0.9765,0.8636,0.6783,0.5754,0.4574,0.2742,0.2378,0.2368,0.2345,0.2336,0.2932,0.4865,0.5109,0.5814,0.7734,0.7944,0.7824,0.7824,0.6089,0.4931,0.4943,0.3282,0.1953,0.1191,0.1144,0.1477,0.2238,0.2238,0.2238,0.2238,0.3282,0.4183,0.4941,0.5984,0.6885,0.7639,0.9462,1.0677,3.2351,3.1334,3.0775,3.0736,3.1734,3.34,3.6006,3.6941,3.7823,3.9706,3.964,3.9265,3.9306,3.9452,3.9706,4.0067,4.0909,4.167,4.2151,4.1038,3.936,3.7269,3.5771,3.3487,2.9897,2.9691,2.895,2.7104,2.7031,2.6873,2.6432,2.6141,2.5769,2.5442,2.4982,2.3744,2.1557,2.1279,2.0218,1.8233,1.6946,1.4764,1.1884,1.3022,1.1916,0.9002,0.7722,0.6481,0.5255,0.3471,0.2689,0.2521,0.0729,0.0,0.0,0.0,0.0,0.0,0.0,0.1123,0.2553,0.2553,0.3722,0.5099,0.5099,0.5078,0.5003,0.5003,0.4934,0.481,0.481,0.481,0.5374,0.7505,0.7183,0.595,0.4365,0.3167,0.1919,0.0313,0.0,0.0,0.0,0.0,0.0559,0.2169,0.2418,0.2972,0.463,0.4742,0.4696,0.47,0.3251,0.2309,0.2286,0.0906,0.0,0.0,0.0954,0.1524,0.1524,0.0525,0.0477,0.1477,0.2997,0.4798,0.6835,0.8353,0.9629,1.0625,1.1149,1.139,3.2652,3.1509,3.0509,3.1256,3.3146,3.5538,3.8317,3.9813,4.0882,4.1857,4.1082,4.034,4.0909,4.0334,4.004,4.0829,4.1416,4.1758,4.1682,3.9004,3.6768,3.6156,3.3228,2.9895,2.6288,2.6032,2.4695,2.1212,2.0804,2.0648,2.0471,1.9908,1.9535,1.9379,1.8952,1.8654,1.8498,1.8355,1.8057,1.7616,1.4904,1.1804,0.8596,1.133,1.0937,0.7931,0.5255,0.2521,0.0,0.0,0.0,0.0,0.0,0.0,0.0,0.0,0.0,0.0,0.0,0.0,0.0,0.0,0.0,0.0,0.0,0.0,0.0,0.0,0.0,0.0,0.0,0.0,0.1218,0.6132,0.5384,0.3635,0.3614,0.1722,0.0,0.0,0.0,0.0,0.0,0.0,0.0,0.0,0.0,0.0,0.0,0.0,0.0,0.0,0.0,0.0,0.0,0.0191,0.0334,0.0334,0.276,0.4136,0.4136,0.1905,0.1763,0.4088,0.4371,0.679,1.139,1.139,1.2569,1.4798,1.2239,1.1055,3.1386,3.1304,3.2276,3.3127,3.5912,3.8865,4.0367,4.1163,4.139,4.0949,4.135,4.171,4.1603,4.1456,4.131,4.1208,4.1563,4.0837,3.8177,3.7353,3.4989,2.9488,2.8068,2.6159,2.2522,2.2161,2.1746,2.0569,2.0438,2.0261,1.9875,1.94,1.9061,1.8905,1.8586,1.8335,1.8179,1.8158,1.6864,1.4381,1.3769,1.0619,0.5478,0.6095,0.4756,0.1905,0.1234,0.0617,0.0,0.0,0.0,0.0,0.0,0.0,0.0,0.0,0.0,0.0,0.0,0.0,0.0,0.0,0.0,0.0,0.0,0.0,0.0,0.0,0.0,0.0,0.0,0.0,0.0316,0.1469,0.1258,0.084,0.0841,0.0418,0.0,0.0,0.0,0.0,0.0,0.0,0.0,0.0,0.0,0.0,0.0,0.0,0.0,0.0,0.0,0.0,0.0,0.181,0.2997,0.2997,0.5368,0.6787,0.6787,0.6269,0.6221,0.679,0.8731,1.0295,1.139,1.139,1.1673,1.2145,0.9586,0.84,3.1985,3.1958,3.2633,3.3838,3.6158,3.7939,3.6977,3.6909,3.7342,3.8587,4.0622,4.2138,4.1817,4.179,4.167,4.1376,4.019,3.8684,3.6878,3.3958,3.0675,2.697,2.4948,2.3085,2.0939,2.0845,2.0668,2.0153,2.0051,1.9834,1.9468,1.9006,1.8728,1.8654,1.8375,1.8179,1.8091,1.6602,1.5015,1.3389,1.0496,0.6762,0.2353,0.2353,0.1514,0.0,0.0,0.0,0.0,0.0,0.0,0.0,0.0,0.0,0.0,0.0,0.0,0.0,0.0,0.0,0.0,0.0,0.0,0.0,0.0,0.0,0.0,0.0,0.0,0.0,0.0,0.0,0.0,0.0,0.0,0.0,0.0,0.0,0.0,0.0,0.0,0.0,0.0,0.0,0.0,0.0,0.0,0.0,0.0,0.0,0.0,0.0,0.0,0.0539,0.1826,0.3128,0.4426,0.5645,0.8123,0.9487,0.9445,1.0578,1.0673,0.944,1.0725,1.139,1.139,1.139,1.0772,0.9539,0.698,0.5795,3.2451,3.2663,3.2989,3.412,3.543,3.5628,3.2479,3.1756,3.2575,3.55,3.8865,4.1403,4.1718,4.179,4.147,4.054,3.8236,3.6152,3.4903,2.9974,2.6244,2.5566,2.287,2.0946,2.0539,2.058,2.0383,1.98,1.9624,1.9413,1.9094,1.8687,1.8407,1.8407,1.7672,1.7311,1.7311,1.4164,1.2385,1.1825,0.6313,0.2406,0.0,0.0,0.0,0.0,0.0,-0.028,-0.0726,-0.0727,-0.1006,-0.1394,-0.094,-0.0714,-0.0654,-0.0162,-0.0322,-0.0745,-0.0691,-0.1005,-0.142,-0.1375,-0.1364,-0.1402,-0.136,-0.141,-0.1405,-0.1414,-0.1052,-0.0739,-0.0689,-0.0369,0.0,0.0,0.0,0.0,0.0,0.0,0.0,0.0,0.0,0.0,0.0,0.0,0.0,0.0,0.0,0.0,0.0,0.0,0.0,0.0,0.0,0.0889,0.3101,0.3704,0.4876,0.696,0.9505,1.0854,1.0753,1.2767,1.2909,1.0796,1.1159,1.1197,1.0725,1.0295,0.9015,0.6885,0.4326,0.3139,2.9846,3.2129,3.4984,3.4535,3.5211,3.521,3.2274,3.152,3.164,3.2208,3.5165,3.8548,4.1316,4.179,4.0654,3.7184,3.6518,3.4256,2.8058,2.6634,2.5144,2.2053,2.1054,2.0496,2.032,2.0139,1.98,1.9325,1.9169,1.8938,1.864,1.8321,1.8145,1.8145,1.5445,1.4026,1.4026,1.1,0.8212,0.5646,0.2241,0.0391,0.0,0.0,0.0,0.0,0.0,-0.139,-0.3616,-0.3641,-0.5122,-0.7101,-0.4609,-0.3621,-0.3343,-0.091,-0.1545,-0.3611,-0.3531,-0.5088,-0.7165,-0.6965,-0.694,-0.6928,-0.6937,-0.7072,-0.715,-0.7003,-0.5345,-0.3598,-0.3494,-0.1767,0.0,0.0,0.0,0.0,0.0,0.0,0.0,0.0,0.0,0.0,0.0,0.0,0.0,0.0,0.0,0.0,0.0,0.0,0.0,0.0,0.0,0.0149,0.049,0.2546,0.3963,0.4299,0.6732,0.8112,0.8126,0.8432,0.8436,0.8126,1.0294,1.0295,0.8116,0.5889,0.4656,0.4231,0.1715,0.0525,3.1249,3.3377,3.502,3.2504,3.2312,3.1516,2.6767,2.7041,2.8971,3.0982,3.4131,3.6997,3.8372,4.0121,4.0086,3.6276,3.4274,3.1461,2.6473,2.4245,2.2524,2.0826,2.0438,2.0173,1.9854,1.9624,1.9345,1.8993,1.8742,1.8511,1.8301,1.8077,1.7968,1.7968,1.4986,1.3389,1.3389,0.8763,0.4908,0.1948,0.061,0.0,0.0,0.0,0.0,-0.011,-0.1662,-0.3037,-0.4307,-0.5965,-0.7377,-0.8376,-0.703,-0.6535,-0.6441,-0.5007,-0.5371,-0.6573,-0.6463,-0.7252,-0.831,-0.8217,-0.8088,-0.7995,-0.7984,-0.8041,-0.8144,-0.8146,-0.6216,-0.4107,-0.4116,-0.2073,0.0,0.0,0.0,0.0,0.0,0.0,0.0,0.0,0.0,0.0,0.0,0.0,0.0,0.0,0.0,0.0,0.0,0.0,0.0,0.0,0.0,0.06,0.2126,0.3273,0.4512,0.5964,0.7092,0.7701,0.7579,0.7609,0.6927,0.5493,0.7982,0.8039,0.5459,0.4337,0.3044,0.1667,0.0525,0.0,3.1664,3.3404,3.3893,3.0781,3.057,2.9685,2.4453,2.5243,2.7786,3.0499,3.365,3.5905,3.5964,3.8607,3.9347,3.4771,3.202,2.9034,2.4924,2.2189,2.0458,2.0241,2.001,1.9732,1.9359,1.9149,1.8905,1.862,1.8389,1.8199,1.8036,1.7935,1.7915,1.7915,1.4958,1.3051,1.2274,0.6357,0.2226,0.0,0.0,0.0,0.0,0.0,-0.0382,-0.1195,-0.329,-0.4594,-0.5521,-0.8331,-0.9937,-1.0495,-0.9643,-0.936,-0.9341,-0.8379,-0.8646,-0.9469,-0.9332,-0.9724,-1.0347,-1.0287,-1.0164,-1.0057,-1.0079,-1.0067,-1.0104,-1.027,-0.8242,-0.5947,-0.533,-0.309,-0.0869,-0.0153,0.0,0.0,0.0,0.0,0.0,0.0,0.0,0.0,0.0,0.0,-0.0257,-0.0921,-0.0458,-0.0253,-0.0908,-0.0404,0.0,0.0,0.0,0.0805,0.2795,0.2967,0.3778,0.5697,0.5806,0.5792,0.5688,0.5651,0.4456,0.1872,0.4354,0.4718,0.2811,0.2838,0.1871,0.0,0.0,0.0,2.8751,3.0541,3.1663,3.0644,3.1771,3.2501,2.9976,2.9655,3.0031,3.063,3.3062,3.5154,3.5301,3.8191,3.8257,3.1224,2.9946,2.7647,2.13,2.0141,1.997,1.9888,1.9522,1.9183,1.9027,1.8742,1.8443,1.8145,1.8111,1.8036,1.7936,1.7915,1.7915,1.7915,1.4958,1.2048,0.9156,0.3221,0.0166,0.0,0.0,0.0,0.0,0.0,-0.1462,-0.3997,-0.4116,-0.5724,-0.8498,-1.1205,-1.3841,-1.5983,-1.3178,-1.2097,-1.1793,-0.8991,-0.9764,-1.2077,-1.1967,-1.366,-1.5839,-1.5757,-1.5698,-1.5678,-1.5685,-1.5784,-1.5863,-1.5738,-1.3851,-1.1255,-0.8496,-0.583,-0.3159,-0.0607,0.0,0.0,0.0,0.0,0.0,0.0,0.0,0.0,0.0,0.0,-0.0879,-0.3425,-0.1635,-0.0917,-0.3477,-0.1563,0.0,0.0,0.0,0.005,0.0202,0.0204,0.0256,0.0409,0.0412,0.0413,0.0409,0.0412,-0.0872,-0.3519,-0.0956,0.035,0.0196,0.0196,0.0147,0.0,0.0,0.0,2.8561,2.978,3.0322,2.9358,3.0335,3.088,2.8291,3.0147,3.2369,3.2402,3.5023,3.6765,3.4631,3.5608,3.5178,3.0447,2.7896,2.4923,2.048,1.9678,1.9522,1.9325,1.9081,1.883,1.8586,1.8375,1.8199,1.8091,1.8002,1.797,1.7915,1.7915,1.7915,1.7915,1.4958,1.1048,0.6151,0.2045,0.0,0.0,0.0,0.0,0.0,0.0,-0.0533,-0.1729,-0.5287,-0.8464,-1.1302,-1.4035,-1.5692,-1.6347,-1.5177,-1.4762,-1.4385,-1.151,-1.1237,-1.2059,-1.0281,-1.145,-1.3739,-1.3693,-1.4788,-1.6083,-1.6083,-1.6123,-1.6171,-1.6218,-1.4246,-1.1964,-1.0996,-0.8651,-0.5909,-0.3225,-0.3867,-0.466,-0.2919,-0.1211,0.0,0.0,-0.1436,-0.2685,-0.2702,-0.4218,-0.5769,-0.664,-0.4456,-0.3002,-0.3879,-0.1664,0.0,0.0,0.0,-0.0708,-0.254,-0.2703,-0.3481,-0.5348,-0.5469,-0.5473,-0.5453,-0.5471,-0.5052,-0.4151,-0.316,-0.267,-0.2571,-0.0836,0.0,0.0,0.0,0.0,2.7961,2.8791,2.938,2.9469,3.0262,3.0803,3.0154,3.2257,3.4428,3.4733,3.5906,3.6161,3.3924,3.2028,3.0159,2.8059,2.5859,2.3233,1.9984,1.9325,1.9128,1.8938,1.8694,1.8464,1.8267,1.8111,1.8023,1.8023,1.797,1.7915,1.7915,1.7915,1.7915,1.7915,1.3999,0.998,0.6009,0.1979,0.0,0.0,0.0,0.0,0.0,0.0,-0.0526,-0.1607,-0.5306,-0.848,-1.1198,-1.4059,-1.5094,-1.4775,-1.3784,-1.3386,-1.3165,-1.1231,-1.067,-1.059,-0.881,-0.9386,-1.085,-1.0886,-1.2014,-1.3362,-1.3362,-1.3362,-1.3578,-1.4624,-1.3603,-1.2175,-1.2302,-1.0261,-0.7708,-0.5936,-0.6848,-0.7658,-0.5885,-0.4055,-0.279,-0.2807,-0.4329,-0.562,-0.5655,-0.7243,-0.8427,-0.8328,-0.5964,-0.4133,-0.4031,-0.1664,0.0,0.0,-0.0808,-0.2125,-0.4028,-0.5064,-0.6427,-0.8397,-0.848,-0.8494,-0.8494,-0.7558,-0.6613,-0.5609,-0.3761,-0.3203,-0.399,-0.1287,0.0,0.0,0.0,0.0,0.0,0.0,0.0,3.1015,3.1617,3.2492,3.5952,3.6032,3.5912,3.7382,3.517,3.3008,3.2919,2.7633,2.3428,2.3741,2.3834,2.2726,1.9636,1.8938,1.88,1.88,1.8355,1.8091,1.8091,1.8004,1.7915,1.7915,1.7915,1.7915,1.7915,1.7915,1.7915,1.7915,1.2048,0.8896,0.8876,0.2961,0.0,0.0,0.0,0.0,0.0,0.0,-0.1516,-0.4085,-0.4137,-0.5603,-0.8086,-1.0986,-1.2081,-1.1722,-0.9013,-0.8005,-0.8001,-0.7904,-0.7859,-0.7872,-0.78,-0.7827,-0.7893,-0.7864,-0.7938,-0.7991,-0.7991,-0.7991,-0.8543,-1.1249,-1.2079,-1.2171,-1.2272,-1.0457,-0.862,-0.862,-0.8675,-0.8726,-0.8627,-0.857,-0.852,-0.8313,-0.8483,-0.8584,-0.8532,-0.8594,-0.8538,-0.8335,-0.5943,-0.4161,-0.4035,-0.1715,-0.0101,-0.0101,-0.252,-0.4195,-0.4439,-0.6888,-0.8504,-0.8737,-0.8762,-0.8699,-0.8646,-0.5947,-0.5607,-0.8114,-0.2861,-0.1387,-0.3874,-0.1249,0.0,0.0,0.0,0.005,2.676,0.0,0.0,0.0,0.0,0.0,3.1543,3.2158,3.287,3.4629,3.2589,3.0182,2.9048,2.5637,2.2332,2.0234,1.9856,1.9577,1.8667,1.8498,1.8409,1.8287,1.8165,1.8057,1.7935,1.7936,1.7915,1.7915,1.7915,1.7915,1.7915,1.7915,1.7915,1.7915,1.2048,0.8896,0.8876,0.2961,0.0,0.0,0.0,0.0,0.0,0.0,-0.0413,-0.1271,-0.3219,-0.4401,-0.5201,-0.8154,-0.9221,-0.8931,-0.8131,-0.78,-0.7462,-0.5648,-0.4977,-0.4698,-0.2849,-0.3471,-0.5113,-0.5126,-0.6433,-0.7991,-0.7991,-0.7991,-0.8152,-0.8914,-0.9151,-0.969,-1.1757,-1.1796,-1.125,-1.1358,-1.2967,-1.3916,-1.1984,-1.3177,-1.3349,-0.9258,-1.0116,-1.09,-0.8868,-1.0211,-1.0822,-0.8634,-0.5962,-0.4132,-0.4031,-0.3372,-0.2928,-0.3051,-0.5487,-0.797,-1.0161,-1.1028,-1.2397,-1.4522,-1.4668,-1.3733,-1.1604,-1.076,-0.8766,-0.5398,-0.3822,-0.2389,-0.1099,-0.0349,0.0,0.0,0.0,0.0983,2.668,2.664,2.6867,2.7829,0.0,0.0,3.0234,3.0474,3.0551,3.1582,2.9383,2.6721,2.4958,2.2392,1.994,1.8198,1.8057,1.8179,1.8301,1.8267,1.8199,1.8111,1.8036,1.7968,1.7915,1.7915,1.7915,1.7915,1.7915,1.7915,1.7915,1.6686,1.6047,1.6035,1.0211,0.7068,0.7041,0.2341,0.0,0.0,0.0,0.0,0.0,0.0,0.0,-0.0101,-0.1667,-0.2297,-0.2353,-0.4094,-0.5371,-0.6035,-0.4939,-0.4492,-0.4232,-0.276,-0.2206,-0.1988,-0.0538,-0.1034,-0.233,-0.2348,-0.3395,-0.4674,-0.4674,-0.4638,-0.5106,-0.7396,-0.9696,-1.1966,-1.379,-1.429,-1.4383,-1.4435,-1.5752,-1.6532,-1.4925,-1.5881,-1.6064,-1.2702,-1.3362,-1.3576,-1.0752,-1.1597,-1.1296,-0.7202,-0.5237,-0.4195,-0.4104,-0.4064,-0.4591,-0.5842,-0.8375,-1.0704,-1.2466,-1.3579,-1.4959,-1.6671,-1.5741,-1.4342,-1.2702,-1.0385,-0.7579,-0.4249,-0.303,-0.1659,0.0,0.0,0.0,0.0049,0.108,0.2361,2.6547,2.6493,2.68,2.8123,2.7482,0.0,3.0381,2.99,2.8788,2.8871,2.6161,2.3248,2.1658,1.9034,1.7114,1.7249,1.7561,1.7901,1.8233,1.8145,1.8077,1.8077,1.7948,1.7915,1.7915,1.7902,1.7846,1.7846,1.7557,1.7391,1.7405,1.4548,1.2876,1.2897,0.7434,0.4485,0.4515,0.1508,0.0,0.0,0.0,0.0,0.0,0.0,0.0,0.0,0.0,0.0,0.0,0.0,-0.1345,-0.3139,-0.0906,0.0,0.0,0.0,0.0,0.0,0.0,0.0,0.0,0.0,0.0,-0.0049,-0.0344,-0.0445,-0.1493,-0.6619,-1.1726,-1.577,-1.64,-1.6684,-1.6836,-1.7162,-1.7324,-1.7385,-1.7249,-1.7202,-1.7154,-1.7026,-1.6761,-1.5589,-1.274,-1.1961,-0.9911,-0.4564,-0.4014,-0.4225,-0.4195,-0.4736,-0.61,-0.8675,-1.1223,-1.2791,-1.2949,-1.4763,-1.5925,-1.605,-1.352,-1.1914,-1.1597,-0.6852,-0.4031,-0.3714,-0.1275,0.0,0.0,0.0,0.0,0.0049,0.2614,0.3792,2.7081,2.7135,2.7202,2.7496,2.7482,0.0,2.7428,2.7335,2.749,2.8448,2.4899,2.1876,2.277,1.9321,1.6307,1.6341,1.6897,1.7473,1.7901,1.7935,1.7914,1.7914,1.7936,1.7915,1.7915,1.7758,1.7684,1.7684,1.5468,1.4178,1.4276,1.1418,0.9771,0.9752,0.636,0.4501,0.4476,0.1494,0.0,0.0,0.0,0.0,0.0,0.0,0.0,0.0,0.0,0.0,0.0,0.0,-0.0289,-0.0715,-0.0191,0.0,0.0,0.0,0.0,0.0,0.0,0.0,0.0,0.0,0.0,-0.0397,-0.2455,-0.3156,-0.3942,-0.7286,-0.9195,-1.0776,-1.3168,-1.3857,-1.4548,-1.6834,-1.7399,-1.7412,-1.7385,-1.7283,-1.7182,-1.7154,-1.52,-1.2656,-0.9827,-0.7381,-0.4737,-0.1305,-0.2738,-0.4205,-0.4177,-0.8102,-1.1101,-1.1666,-1.4121,-1.5711,-1.5744,-1.4223,-1.324,-1.3267,-1.0754,-0.8232,-0.5908,-0.4771,-0.3156,-0.0875,-0.03,0.0,0.0,0.0,0.0,0.0048,0.2611,0.3813,2.7081,2.7041,2.7081,2.7269,2.7148,0.0,0.0,2.6854,2.6439,2.6537,2.3358,2.0539,2.0574,1.7734,1.5513,1.5811,1.63,1.6768,1.7141,1.7582,1.7915,1.7915,1.7915,1.7915,1.7915,1.7738,1.701,1.5506,1.2693,1.1073,1.1128,0.8342,0.6732,0.6701,0.3786,0.225,0.2275,0.0738,0.0,0.0,0.0,0.0,0.0,0.0,0.0,0.0,0.0,0.0,0.0097,0.1394,0.1148,0.0,0.0,0.0,0.0,0.0,0.0,0.0,0.0,0.0,0.0,0.0,0.0,-0.0491,-0.3085,-0.5878,-0.8475,-0.9955,-1.1507,-1.3069,-1.4685,-1.411,-1.3496,-1.4966,-1.4194,-1.3163,-1.3055,-1.2996,-1.2967,-1.2856,-1.0469,-0.8483,-0.8473,-0.609,-0.3738,-0.2329,-0.33,-0.5205,-0.81,-1.0847,-1.2605,-1.2605,-1.3751,-1.3934,-1.2539,-1.1107,-1.0236,-1.0236,-0.7725,-0.5596,-0.4163,-0.2829,-0.1433,-0.0051,0.0,0.0,0.0,0.0,0.0,0.0048,0.262,0.3791,2.7281,2.7255,2.7335,2.7389,2.6876,2.6607,0.0,0.0,0.0,2.4877,2.2593,2.0309,1.9104,1.6847,1.5311,1.5819,1.5904,1.5954,1.6191,1.6924,1.7473,1.7643,1.7602,1.7684,1.7738,1.7094,1.5506,1.2541,0.9628,0.8006,0.8057,0.5223,0.3632,0.3653,0.128,0.0,0.0,0.0,0.0,0.0,0.0,0.0,0.0,0.0,0.0,0.0,0.0,0.0,0.0193,0.2769,0.2285,0.0048,0.0525,0.0429,0.0,0.0,0.0,0.0,0.0,0.0,0.0,0.0,-0.0686,-0.1889,-0.4108,-0.8636,-1.3084,-1.3253,-1.4582,-1.6047,-1.6305,-1.4288,-1.2246,-1.2324,-1.0556,-0.8855,-0.8735,-0.8702,-0.8646,-0.854,-0.6183,-0.4926,-0.725,-0.5759,-0.3994,-0.3489,-0.4337,-0.6496,-1.0526,-1.1553,-1.1863,-1.1839,-1.1744,-1.075,-0.8448,-0.7623,-0.7251,-0.7239,-0.4712,-0.3209,-0.3209,-0.1174,0.0,0.0,0.0,0.0,0.0,0.0,0.0,0.0049,0.2597,0.354,2.835,2.8778,2.8938,2.7909,2.6931,2.6216,2.6241,0.0,2.4531,2.5595,0.0,2.2757,2.2785,0.0,0.0,1.6908,1.5889,1.5153,1.5187,1.5574,1.6033,1.6612,1.6673,1.6781,1.7053,1.4922,1.2338,0.9404,0.6436,0.4806,0.5008,0.2169,0.0485,0.0533,0.0159,0.0,0.0,0.0,0.0,0.0,0.0,0.0,0.0,0.0,0.0,0.0,0.0,0.0,0.0191,0.2761,0.2285,0.0239,0.2475,0.2,0.0,0.0,0.0,0.0,0.0,0.0,0.0,0.0,-0.3143,-0.7011,-0.743,-1.1425,-1.5859,-1.6011,-1.4765,-1.3418,-1.3497,-1.1415,-0.9378,-0.9389,-0.9042,-0.8728,-0.871,-0.8595,-0.854,-0.8487,-0.6163,-0.4295,-0.4607,-0.4417,-0.337,-0.0838,-0.4762,-0.7342,-0.5404,-0.737,-0.8935,-0.8811,-0.8786,-0.8566,-0.8072,-0.5811,-0.4466,-0.4429,-0.1918,-0.0455,-0.0455,-0.0152,0.0,0.0,0.0,0.0,0.0,0.0,0.0,0.0049,0.2597,0.2598,2.8617,2.9032,2.8969,2.6651,2.5866,2.5519,2.4968,2.4025,2.38,2.5806,0.0,0.0,0.0,0.0,0.0,0.0,1.5457,1.4251,1.4472,1.4536,1.4965,1.613,1.6117,1.5485,1.4267,1.0481,0.7493,0.6208,0.3409,0.1787,0.1877,0.068,0.0,0.0,0.0,0.0,0.0,0.0,0.0,0.0,0.0,0.0,0.0,0.0,0.0,0.0,0.0,0.0,0.0191,0.276,0.2285,0.0239,0.2806,0.2238,0.0,0.0,0.0,0.0,0.0,0.0,0.0,0.0,-0.3658,-0.7771,-0.6193,-0.9599,-1.3774,-1.2208,-1.1106,-1.0416,-1.0458,-0.8324,-0.6224,-0.63,-0.4977,-0.3226,-0.1549,-0.1165,-0.1105,-0.1105,-0.0158,0.0157,-0.1461,-0.1767,-0.192,-0.2344,-0.4495,-0.615,-0.6629,-0.7746,-0.784,-0.6127,-0.5938,-0.5226,-0.3479,-0.2326,-0.1698,-0.1692,-0.0616,0.0,0.0,0.0,0.0,0.0,0.0,0.0,0.0,0.0,-0.0798,-0.229,-0.1237,-0.1287,2.8229,2.846,2.8175,2.4771,2.3706,2.339,2.2999,2.2044,2.1889,2.4209,2.3257,0.0,0.0,0.0,1.6691,1.7003,0.0,1.3641,1.3858,1.3722,1.4082,1.5377,1.4904,1.347,1.1056,0.6917,0.404,0.3115,0.1178,0.0,0.0,0.0,0.0,0.0,0.0,0.0,0.0,0.0,0.0,0.0,0.0,0.0,0.0,0.0,0.0,0.0,0.0,0.0,0.0191,0.276,0.2285,0.0239,0.2806,0.2238,0.0,0.0,0.0,0.0,0.0,0.0,0.0,0.0,-0.3215,-0.6749,-0.4651,-0.7444,-1.0935,-0.8893,-0.7848,-0.7337,-0.7459,-0.5265,-0.2901,-0.2259,-0.043,0.1931,0.4788,0.4757,0.4212,0.4212,0.3573,0.2411,0.0365,-0.0626,-0.1566,-0.286,-0.3717,-0.4695,-0.5993,-0.6157,-0.5364,-0.3296,-0.3067,-0.2212,-0.0158,0.0,0.0,0.0,0.0,0.0,0.0,0.0,0.0,0.0,0.0,0.0,0.0,-0.0762,-0.2125,-0.404,-0.4004,-0.44,2.7135,2.6943,2.6689,2.2546,2.0156,1.9071,2.0024,1.8791,1.8022,1.9929,2.0512,2.0617,2.0406,1.8572,0.0,0.0,1.4942,0.0,0.0,1.3173,1.3316,1.4091,1.2618,1.0479,0.7832,0.5517,0.3058,0.0343,0.0047,0.0,0.0,0.0,0.0,0.0,0.0,0.0,0.0,0.0,0.0,0.0,0.0,0.0,0.0,0.0,0.0,0.0,0.0,0.0,0.0191,0.276,0.2285,0.0239,0.2806,0.2238,0.0,0.0,0.0,0.0,0.0,0.0,0.0,0.0,-0.1902,-0.4136,-0.4018,-0.609,-0.8424,-0.832,-0.6378,-0.4315,-0.4353,-0.225,0.0534,0.328,0.4013,0.4837,0.7746,0.6157,0.4198,0.4198,0.2008,0.0105,0.0,-0.2274,-0.318,-0.0526,-0.2433,-0.3243,-0.0586,-0.0266,-0.0213,-0.016,-0.016,-0.0106,0.0,0.0,0.0,0.0,0.0,0.0,0.0,0.0,0.0,0.0,0.0,0.0,0.0,-0.2593,-0.3979,-0.4181,-0.4042,-0.5379,2.758,2.6493,2.4789,2.0853,1.961,1.9124,1.8306,1.769,1.7844,1.969,2.0375,2.054,2.0353,1.8557,0.0,0.0,0.0,1.3254,0.0,1.2935,1.2407,1.1362,0.9492,0.7892,0.6882,0.3552,0.1023,0.0091,0.0,0.0,0.0,0.0,0.0,0.0,0.0,0.0,0.0,0.0,0.0,0.0,0.0,0.0,0.0,0.0,0.0,0.0,0.0,0.0,0.0048,0.0908,0.0763,0.0095,0.0954,0.0766,0.0,0.0,0.0,0.0,0.0,0.0,0.0,0.0,-0.1885,-0.38,-0.1921,-0.3356,-0.5182,-0.3333,-0.2123,-0.1012,0.0854,0.2078,0.3512,0.6341,0.7022,0.7323,0.8276,0.7746,0.6465,0.4588,0.3435,0.2164,0.0314,-0.0791,-0.1113,-0.0157,-0.0788,-0.1056,-0.0106,0.0,0.0,0.0,0.0,0.0,0.0,0.0,0.0,0.0,0.0,0.0,0.0,0.0,0.0,0.0,0.0,-0.0879,-0.2669,-0.3652,-0.6001,-0.9572,-0.9604,-1.0041,2.5437,2.4246,2.2572,1.8939,1.8207,1.7978,1.6554,1.6409,1.6852,1.7879,1.8284,1.8426,0.0,1.7105,0.0,0.0,0.0,0.0,0.0,1.2745,1.1879,0.9883,0.7881,0.6318,0.5541,0.2149,0.0,0.0,0.0,0.0,0.0,0.0,0.0,0.0,0.0,0.0,0.0,0.0,0.0,0.0,0.0,0.0,0.0,0.0,0.0,0.0,0.0,0.0,0.0,0.0,0.0,0.0,0.0,0.0,0.0,0.0,0.0,0.0,0.0,0.0,0.0,0.0,-0.1241,-0.2346,-0.0525,-0.127,-0.213,0.0801,0.1547,0.2183,0.5066,0.5749,0.6425,0.9334,1.0021,1.0021,1.0021,0.9228,0.7628,0.4746,0.3382,0.2113,0.0315,0.0,0.0,0.0,0.0,0.0,0.0,0.0,0.0,0.0,0.0,0.0,0.0,0.0,0.0,0.0,0.0,0.0,0.0,0.0,0.0,0.0,-0.1004,-0.2358,-0.4095,-0.6148,-0.9002,-1.2492,-1.35,-1.3962]},{"header":{"parameterUnit":"m.s-1","parameterCategory":1,"la1":30.6,"la2":29.2853,"lo1":-89.7004,"lo2":-87.6739,"dy":0.0162,"dx":0.0183,"nx":112,"ny":82,"refTime":"2023-10-10T00:00:00:Z","depth":0,"parameterNumber":3,"parameterNumberName":"V-component_of_WINDS"},"data":[0.0,0.0,0.0,0.0,0.0,0.0,0.0,0.0,0.0,0.0,0.0,0.0,0.0,0.0,0.0,0.0,0.0,0.0,0.0,0.0,0.0,0.0,0.0,0.0,0.0,0.0,0.0,0.0,0.0,0.0,0.0,0.0,0.0,0.0,0.0,0.0,0.0,0.0,0.0,0.0,0.0,0.0,0.0,0.0,0.0,0.0,0.0,0.0,0.0,0.0,0.0,0.0,0.0,0.0,0.0,0.0,0.0,0.0,0.0,0.0,0.0,0.0,0.0,0.0,0.0,0.0,0.0,0.0,0.0,0.0,0.0,0.0,0.0,0.0,0.0,0.0,0.0,0.0,0.0,0.0,0.0,0.0,0.0,0.0,0.0,0.0,0.0,0.0,0.0,0.0,5.2774,5.5549,5.971,6.1979,6.1243,5.9307,5.5164,4.8208,0.0,0.0,0.0,0.0,0.0,0.0,0.0,0.0,0.0,0.0,0.0,0.0,0.0,0.0,0.0,0.0,0.0,0.0,0.0,0.0,0.0,0.0,0.0,0.0,0.0,0.0,0.0,0.0,0.0,0.0,0.0,0.0,0.0,0.0,0.0,0.0,0.0,0.0,0.0,0.0,0.0,0.0,0.0,0.0,0.0,0.0,0.0,0.0,0.0,0.0,0.0,0.0,0.0,0.0,0.0,0.0,0.0,0.0,0.0,0.0,0.0,0.0,0.0,0.0,0.0,0.0,0.0,0.0,0.0,0.0,0.0,0.0,0.0,0.0,0.0,0.0,0.0,0.0,0.0,0.0,0.0,0.0,0.0,0.0,0.0,0.0,0.0,0.0,0.0,0.0,0.0,0.0,0.0,0.0,0.0,0.0,0.0,0.0,0.0,0.0,0.0,0.0,0.0,0.0,5.3741,6.116,6.266,6.3045,6.2929,5.8932,5.4747,5.0694,0.0,0.0,0.0,0.0,0.0,0.0,0.0,0.0,0.0,0.0,0.0,0.0,0.0,0.0,0.0,0.0,0.0,0.0,0.0,0.0,0.0,0.0,0.0,0.0,0.0,0.0,0.0,0.0,0.0,0.0,0.0,0.0,0.0,0.0,0.0,0.0,0.0,0.0,0.0,0.0,0.0,0.0,0.0,0.0,0.0,0.0,0.0,0.0,0.0,0.0,0.0,0.0,0.0,0.0,0.0,0.0,0.0,0.0,0.0,0.0,0.0,0.0,0.0,0.0,0.0,0.0,0.0,0.0,0.0,0.0,0.0,0.0,0.0,0.0,0.0,0.0,0.0,0.0,0.0,0.0,0.0,0.0,0.0,0.0,0.0,0.0,0.0,0.0,0.0,0.0,0.0,0.0,0.0,0.0,0.0,0.0,0.0,0.0,0.0,0.0,0.0,0.0,0.0,5.2976,5.6441,6.3263,6.3583,6.3143,6.2794,5.8676,5.4461,5.0664,4.8151,0.0,0.0,0.0,0.0,0.0,0.0,0.0,0.0,0.0,0.0,0.0,0.0,0.0,0.0,0.0,0.0,0.0,0.0,0.0,0.0,0.0,0.0,0.0,0.0,0.0,0.0,0.0,0.0,0.0,0.0,0.0,0.0,0.0,0.0,0.0,0.0,0.0,0.0,0.0,0.0,0.0,0.0,0.0,0.0,0.0,0.0,0.0,0.0,0.0,0.0,0.0,0.0,0.0,0.0,0.0,0.0,0.0,0.0,0.0,0.0,0.0,0.0,0.0,0.0,0.0,0.0,0.0,0.0,0.0,0.0,0.0,0.0,0.0,0.0,0.0,0.0,0.0,0.0,0.0,0.0,0.0,0.0,0.0,0.0,0.0,0.0,0.0,0.0,0.0,0.0,0.0,0.0,0.0,0.0,0.0,0.0,0.0,0.0,0.0,0.0,0.0,0.0,5.724,5.9652,6.4417,6.3996,6.3081,6.2375,5.8146,5.3939,5.0157,4.7221,0.0,0.0,0.0,0.0,0.0,0.0,0.0,0.0,0.0,0.0,0.0,0.0,0.0,0.0,0.0,0.0,0.0,0.0,0.0,0.0,0.0,0.0,0.0,0.0,0.0,0.0,0.0,0.0,0.0,0.0,0.0,0.0,0.0,0.0,0.0,0.0,0.0,0.0,0.0,0.0,0.0,0.0,0.0,0.0,0.0,0.0,0.0,0.0,0.0,0.0,0.0,0.0,0.0,0.0,0.0,0.0,0.0,0.0,0.0,0.0,0.0,0.0,0.0,0.0,0.0,0.0,0.0,0.0,0.0,0.0,0.0,0.0,0.0,0.0,0.0,0.0,0.0,0.0,0.0,0.0,0.0,0.0,0.0,0.0,0.0,0.0,0.0,0.0,0.0,0.0,0.0,0.0,0.0,0.0,0.0,0.0,0.0,0.0,0.0,0.0,0.0,0.0,5.8769,6.2769,6.5513,6.4486,6.324,6.235,5.7198,5.2815,5.0083,4.6055,0.0,0.0,0.0,0.0,0.0,0.0,0.0,0.0,0.0,0.0,0.0,0.0,0.0,0.0,0.0,0.0,0.0,0.0,0.0,0.0,0.0,0.0,0.0,0.0,0.0,0.0,0.0,0.0,0.0,0.0,0.0,0.0,0.0,0.0,0.0,0.0,0.0,0.0,0.0,0.0,0.0,0.0,0.0,0.0,0.0,0.0,0.0,0.0,0.0,0.0,0.0,0.0,0.0,0.0,0.0,0.0,0.0,0.0,0.0,0.0,0.0,0.0,0.0,0.0,0.0,0.0,0.0,0.0,0.0,0.0,0.0,0.0,0.0,0.0,0.0,0.0,0.0,0.0,0.0,0.0,0.0,0.0,0.0,0.0,0.0,0.0,0.0,0.0,0.0,0.0,0.0,0.0,0.0,0.0,0.0,0.0,0.0,0.0,0.0,0.0,0.0,0.0,5.8466,6.1664,6.5616,6.4571,6.2908,6.1145,5.7584,5.3639,4.9414,0.0,0.0,0.0,0.0,0.0,0.0,0.0,0.0,0.0,0.0,0.0,0.0,0.0,0.0,0.0,0.0,0.0,0.0,0.0,0.0,0.0,0.0,0.0,0.0,0.0,0.0,0.0,0.0,0.0,0.0,0.0,0.0,0.0,0.0,0.0,0.0,0.0,0.0,0.0,0.0,0.0,0.0,0.0,0.0,0.0,0.0,0.0,0.0,0.0,0.0,0.0,0.0,0.0,0.0,0.0,0.0,0.0,0.0,0.0,0.0,0.0,0.0,0.0,0.0,0.0,0.0,0.0,0.0,0.0,0.0,0.0,0.0,0.0,0.0,0.0,0.0,0.0,0.0,0.0,0.0,0.0,0.0,0.0,0.0,0.0,0.0,0.0,0.0,0.0,0.0,0.0,0.0,0.0,0.0,0.0,0.0,0.0,0.0,0.0,0.0,0.0,0.0,5.6308,5.9048,6.1895,6.5693,6.4682,6.2908,6.0779,5.7274,5.3437,4.9379,0.0,0.0,0.0,0.0,0.0,0.0,0.0,0.0,0.0,0.0,0.0,0.0,0.0,0.0,0.0,0.0,0.0,0.0,0.0,0.0,0.0,0.0,0.0,0.0,0.0,0.0,0.0,0.0,0.0,0.0,0.0,0.0,0.0,0.0,0.0,0.0,0.0,0.0,0.0,0.0,0.0,0.0,0.0,0.0,0.0,0.0,0.0,0.0,0.0,0.0,0.0,0.0,0.0,0.0,0.0,0.0,0.0,0.0,0.0,0.0,0.0,0.0,0.0,0.0,0.0,0.0,0.0,0.0,0.0,0.0,0.0,0.0,0.0,0.0,0.0,0.0,0.0,0.0,0.0,0.0,0.0,0.0,0.0,0.0,0.0,0.0,0.0,0.0,0.0,0.0,0.0,0.0,0.0,0.0,0.0,0.0,0.0,0.0,0.0,0.0,0.0,0.0,5.656,6.0862,6.4221,6.5925,6.4911,6.3372,6.1613,5.6054,5.1875,0.0,0.0,0.0,0.0,0.0,0.0,0.0,0.0,0.0,0.0,0.0,0.0,0.0,0.0,0.0,0.0,0.0,0.0,0.0,0.0,0.0,0.0,0.0,0.0,0.0,0.0,0.0,0.0,0.0,0.0,0.0,0.0,0.0,0.0,0.0,0.0,0.0,0.0,0.0,0.0,0.0,0.0,0.0,0.0,0.0,0.0,0.0,0.0,0.0,0.0,0.0,0.0,0.0,0.0,0.0,0.0,0.0,0.0,0.0,0.0,0.0,0.0,0.0,0.0,0.0,0.0,0.0,0.0,0.0,0.0,0.0,0.0,0.0,0.0,0.0,0.0,0.0,0.0,0.0,0.0,0.0,0.0,0.0,0.0,0.0,0.0,0.0,0.0,0.0,0.0,0.0,0.0,0.0,0.0,0.0,0.0,0.0,0.0,0.0,0.0,0.0,0.0,0.0,5.7614,6.1285,6.4345,6.6265,6.5057,6.3137,6.0777,5.6775,5.3046,4.9904,0.0,0.0,0.0,0.0,0.0,0.0,0.0,0.0,0.0,0.0,0.0,0.0,0.0,0.0,0.0,0.0,0.0,0.0,0.0,0.0,0.0,0.0,0.0,0.0,0.0,0.0,0.0,0.0,0.0,0.0,0.0,0.0,0.0,0.0,0.0,0.0,0.0,0.0,0.0,0.0,0.0,0.0,0.0,0.0,0.0,0.0,0.0,0.0,0.0,0.0,0.0,0.0,0.0,0.0,0.0,0.0,0.0,0.0,0.0,0.0,0.0,0.0,0.0,0.0,0.0,0.0,0.0,0.0,0.0,0.0,0.0,0.0,0.0,0.0,0.0,0.0,0.0,0.0,0.0,0.0,0.0,0.0,0.0,0.0,0.0,0.0,0.0,0.0,0.0,0.0,0.0,0.0,0.0,0.0,0.0,0.0,0.0,0.0,0.0,0.0,0.0,0.0,5.8147,6.1638,6.4396,6.5902,6.4924,6.3083,6.0427,5.7004,5.3453,4.9843,0.0,0.0,0.0,0.0,0.0,0.0,0.0,0.0,0.0,0.0,0.0,0.0,0.0,0.0,0.0,0.0,0.0,0.0,0.0,0.0,0.0,0.0,0.0,0.0,0.0,0.0,0.0,0.0,0.0,0.0,0.0,0.0,0.0,0.0,0.0,0.0,0.0,0.0,0.0,0.0,0.0,0.0,0.0,0.0,0.0,0.0,0.0,0.0,0.0,0.0,0.0,0.0,0.0,0.0,0.0,0.0,0.0,0.0,0.0,0.0,0.0,0.0,0.0,0.0,0.0,0.0,0.0,0.0,0.0,0.0,0.0,0.0,0.0,0.0,0.0,0.0,0.0,0.0,0.0,0.0,0.0,0.0,0.0,0.0,0.0,0.0,0.0,0.0,0.0,0.0,0.0,0.0,0.0,0.0,0.0,0.0,0.0,0.0,0.0,0.0,0.0,0.0,5.8278,6.1888,6.4437,6.5259,6.4681,6.3196,6.053,5.7022,5.3511,5.0012,0.0,0.0,0.0,0.0,0.0,0.0,0.0,0.0,0.0,0.0,0.0,0.0,0.0,0.0,0.0,0.0,0.0,0.0,0.0,0.0,0.0,0.0,0.0,0.0,0.0,0.0,0.0,0.0,0.0,0.0,0.0,0.0,0.0,0.0,0.0,0.0,0.0,0.0,0.0,0.0,0.0,0.0,0.0,0.0,0.0,0.0,0.0,0.0,0.0,0.0,0.0,0.0,0.0,0.0,0.0,0.0,0.0,0.0,0.0,0.0,5.4437,5.2696,0.0,0.0,0.0,0.0,0.0,0.0,0.0,0.0,0.0,0.0,0.0,0.0,0.0,0.0,0.0,0.0,0.0,0.0,0.0,0.0,0.0,0.0,0.0,0.0,0.0,0.0,0.0,0.0,0.0,0.0,0.0,0.0,0.0,0.0,0.0,0.0,0.0,0.0,0.0,0.0,5.8479,6.1971,6.4455,6.5425,6.4718,6.3299,6.1247,5.7803,5.4502,5.1572,4.8016,0.0,0.0,0.0,0.0,0.0,0.0,0.0,0.0,0.0,0.0,0.0,0.0,0.0,0.0,0.0,0.0,0.0,0.0,0.0,0.0,0.0,0.0,0.0,0.0,0.0,0.0,0.0,0.0,0.0,0.0,0.0,0.0,0.0,0.0,0.0,0.0,0.0,0.0,0.0,0.0,0.0,0.0,0.0,0.0,0.0,0.0,0.0,0.0,0.0,0.0,0.0,0.0,0.0,0.0,0.0,0.0,0.0,0.0,0.0,5.9668,5.7154,0.0,0.0,0.0,0.0,0.0,0.0,0.0,0.0,0.0,0.0,0.0,0.0,0.0,0.0,0.0,0.0,0.0,0.0,0.0,0.0,0.0,0.0,0.0,0.0,0.0,0.0,0.0,0.0,0.0,0.0,0.0,0.0,0.0,0.0,0.0,0.0,0.0,0.0,0.0,0.0,5.858,6.1353,6.3468,6.4844,6.4081,6.2568,6.0233,5.7931,5.5079,5.1568,4.8808,0.0,0.0,0.0,0.0,0.0,0.0,0.0,0.0,0.0,0.0,0.0,0.0,0.0,0.0,0.0,0.0,0.0,0.0,0.0,0.0,0.0,0.0,0.0,0.0,0.0,0.0,0.0,0.0,0.0,0.0,0.0,0.0,0.0,0.0,0.0,0.0,0.0,0.0,0.0,0.0,0.0,0.0,0.0,0.0,0.0,0.0,0.0,0.0,0.0,0.0,0.0,0.0,0.0,6.8558,6.9475,7.0199,7.1045,7.1091,7.0226,6.7106,6.401,6.1085,5.9963,0.0,0.0,0.0,0.0,0.0,0.0,0.0,0.0,0.0,0.0,0.0,0.0,0.0,0.0,0.0,0.0,0.0,0.0,0.0,0.0,0.0,0.0,5.6093,5.7374,5.8237,5.7757,5.4108,0.0,0.0,0.0,0.0,0.0,0.0,0.0,0.0,0.0,0.0,0.0,5.8672,6.0937,6.2695,6.414,6.3534,6.1911,5.9173,5.8016,5.5634,5.1452,4.9887,4.8043,0.0,0.0,0.0,0.0,0.0,0.0,0.0,0.0,0.0,0.0,0.0,0.0,0.0,0.0,0.0,0.0,0.0,0.0,0.0,0.0,0.0,0.0,0.0,0.0,0.0,0.0,0.0,0.0,0.0,0.0,0.0,0.0,5.5082,5.6454,0.0,0.0,0.0,0.0,0.0,0.0,0.0,0.0,0.0,0.0,0.0,0.0,0.0,6.6622,6.9566,7.1297,7.2622,7.3591,7.5907,7.7061,7.7215,7.8054,7.8392,7.8323,7.8544,0.0,6.5964,6.3646,0.0,0.0,0.0,0.0,0.0,0.0,0.0,0.0,0.0,0.0,0.0,0.0,0.0,0.0,0.0,0.0,0.0,0.0,0.0,0.0,0.0,0.0,6.0631,5.982,5.971,5.9627,5.9063,5.6692,5.4431,5.3585,5.1144,4.9371,0.0,0.0,0.0,0.0,0.0,0.0,5.8828,6.1992,6.4062,6.4297,6.4081,6.2868,6.024,5.8972,5.6818,5.3267,5.1137,4.9184,4.7356,4.5759,0.0,0.0,0.0,0.0,0.0,0.0,0.0,0.0,0.0,0.0,0.0,0.0,0.0,0.0,0.0,0.0,0.0,0.0,0.0,0.0,0.0,0.0,0.0,0.0,0.0,0.0,0.0,0.0,0.0,5.6158,5.7721,5.6984,5.7793,5.7313,0.0,0.0,0.0,0.0,0.0,0.0,0.0,0.0,0.0,7.1819,7.2906,7.4928,7.8023,7.9746,8.1246,8.2593,8.417,8.517,8.5632,8.6017,8.5931,8.5508,8.5893,8.2901,7.7361,7.193,6.7891,6.482,0.0,0.0,0.0,0.0,6.2633,6.2858,6.4743,6.4243,6.2781,6.2474,0.0,0.0,0.0,0.0,0.0,0.0,0.0,5.8932,5.9359,6.1522,6.3667,6.37,6.404,6.4078,6.3161,6.0975,5.8551,5.6418,5.4431,5.2807,5.1797,5.0195,0.0,0.0,0.0,5.6406,5.9492,6.1601,6.3203,6.4219,6.3299,6.1974,6.0334,5.922,5.7379,5.443,5.2433,5.0635,4.8926,4.766,4.7351,0.0,0.0,0.0,0.0,0.0,0.0,0.0,0.0,0.0,0.0,0.0,0.0,0.0,0.0,0.0,0.0,0.0,0.0,0.0,0.0,0.0,0.0,0.0,0.0,0.0,0.0,0.0,0.0,5.9563,6.1111,5.8727,6.1232,6.1359,0.0,0.0,0.0,0.0,0.0,0.0,7.1735,7.39,7.6443,7.9514,8.1248,8.3431,8.614,8.7401,8.8825,9.0334,9.0902,9.1672,9.2518,9.2518,9.1902,9.0855,9.0855,8.9547,8.6824,7.94,7.4199,7.0783,6.8667,6.7167,6.6468,6.8359,6.8821,6.8821,7.1091,7.0783,6.909,6.743,6.5344,6.2921,6.0032,0.0,0.0,0.0,0.0,6.2095,6.3336,6.4897,6.6351,6.7092,6.7461,6.7355,6.6163,6.4432,6.225,5.9176,5.746,5.5972,5.4253,5.2577,0.0,5.2617,5.4922,5.7617,6.039,6.1875,6.3125,6.418,6.3035,6.1687,6.0361,5.9315,5.7768,5.5435,5.3611,5.1957,5.0483,4.9398,4.8933,4.9162,0.0,0.0,0.0,0.0,0.0,0.0,0.0,0.0,0.0,0.0,0.0,0.0,0.0,0.0,0.0,0.0,0.0,0.0,0.0,0.0,0.0,0.0,0.0,0.0,0.0,0.0,0.0,0.0,0.0,6.4101,6.8359,0.0,0.0,0.0,0.0,7.0117,7.3359,7.6445,7.9023,8.2139,8.5321,8.8559,9.0098,9.1623,9.3181,9.3287,9.3787,9.4681,9.472,9.5211,9.6057,9.6057,9.5134,9.3518,9.3518,9.2518,9.0441,8.3593,7.9669,7.7676,7.4392,7.3546,7.4123,7.4276,7.4822,7.5399,7.4738,7.3399,7.2129,7.2815,7.0385,6.6811,6.5048,6.3489,0.0,0.0,6.4308,6.6394,6.6472,6.7734,6.9009,6.9045,6.8303,6.757,6.7483,6.615,6.4198,6.1556,5.846,5.6535,5.7239,0.0,5.5351,5.6211,5.8515,6.0508,6.1523,6.3828,6.5117,6.4375,6.4219,6.3125,6.0586,5.9469,5.8148,5.6436,5.4554,5.312,5.223,5.06,5.013,5.0938,5.0162,0.0,0.0,0.0,0.0,0.0,0.0,0.0,0.0,0.0,0.0,0.0,0.0,0.0,0.0,0.0,0.0,0.0,0.0,0.0,0.0,0.0,0.0,0.0,0.0,0.0,0.0,0.0,0.0,7.2695,7.664,0.0,7.2875,7.5115,7.7459,7.8774,8.2146,8.5191,8.7612,8.9914,9.2026,9.3929,9.5046,9.6042,9.699,9.698,9.7143,9.7451,9.7451,9.7596,9.7904,9.7904,9.698,9.5365,9.5365,9.4403,9.2556,8.9056,8.6286,8.3978,8.1708,8.0323,7.9669,8.0208,8.0285,8.0015,7.9708,7.8861,7.7444,7.4635,7.2031,6.9733,6.816,6.7732,6.7792,6.7792,6.9324,7.0932,7.0932,7.1281,7.1496,7.0948,6.9544,6.814,6.7592,6.6496,6.5378,6.4515,6.1821,5.9734,6.0048,5.8814,5.8086,5.8906,6.0312,6.1758,6.3203,6.418,6.4648,6.4336,6.3789,6.2851,6.1367,5.9411,5.7767,5.6596,5.4319,5.263,5.1772,5.1149,5.0938,5.1163,5.0826,5.029,0.0,0.0,0.0,0.0,0.0,0.0,0.0,0.0,0.0,0.0,0.0,0.0,0.0,0.0,0.0,0.0,0.0,0.0,0.0,0.0,0.0,0.0,0.0,0.0,0.0,7.5078,7.957,7.8984,8.3476,8.4882,8.0454,8.3005,8.5467,8.6822,8.9869,9.243,9.4273,9.5842,9.7056,9.7869,9.8625,9.924,9.9635,9.9635,9.9635,9.9635,9.9635,9.9635,9.9635,9.9635,9.8904,9.7557,9.7288,9.6326,9.4864,9.3172,9.1479,8.971,8.7171,8.5286,8.4093,8.4678,8.4324,8.354,8.3332,8.2381,8.0624,7.7139,7.481,7.3064,7.1757,7.1663,7.2031,7.2031,7.3047,7.4101,7.3828,7.3525,7.3122,7.2262,7.0301,6.8458,6.7862,6.6824,6.6008,6.6075,6.4283,6.2744,6.2779,6.1744,6.1094,6.164,6.2419,6.3355,6.457,6.4958,6.4878,6.4375,6.3789,6.2851,6.1406,5.9453,5.7851,5.668,5.4414,5.2734,5.1875,5.1521,5.1275,5.1204,5.1078,5.0697,5.004,0.0,0.0,0.0,0.0,0.0,0.0,0.0,0.0,0.0,0.0,0.0,0.0,0.0,0.0,0.0,0.0,0.0,0.0,0.0,0.0,0.0,0.0,0.0,7.2656,7.9765,8.457,8.2968,8.8711,9.1172,8.7031,9.0429,9.3242,9.4062,9.6286,9.7939,9.8711,9.9863,10.0509,10.0495,10.1099,10.1394,10.1394,10.1394,10.1394,10.1394,10.1394,10.1279,10.1279,10.1279,10.0904,10.0106,9.9192,9.8316,9.7384,9.5718,9.5034,9.4611,9.0458,8.8295,8.7517,8.7457,8.6896,8.6037,8.5449,8.3632,8.1398,8.071,7.8932,7.688,7.5993,7.5256,7.4765,7.4765,7.5351,7.5781,7.4922,7.4345,7.3791,7.3002,7.0596,6.843,6.8404,6.7227,6.6153,6.6128,6.5604,6.5192,6.5312,6.4792,6.4375,6.4375,6.4902,0.0,6.5624,6.6151,6.5982,6.4492,6.4297,6.3203,6.0664,5.9609,5.8398,5.6679,5.4883,5.3515,5.2695,5.1738,5.1201,5.1196,5.102,5.0882,5.0878,0.0,0.0,0.0,0.0,0.0,0.0,0.0,0.0,0.0,0.0,0.0,0.0,0.0,0.0,0.0,0.0,0.0,0.0,0.0,0.0,0.0,7.7557,8.168,8.1405,8.701,9.1661,9.3068,9.6,9.7446,9.6234,9.796,9.9136,9.921,10.1009,10.2018,10.1804,10.2691,10.3103,10.2884,10.3088,10.3212,10.3212,10.3212,10.3212,10.3212,10.252,10.2202,10.2212,10.1597,10.0904,10.0087,9.9376,9.8578,9.7681,9.6139,9.5505,9.5231,9.2518,9.0902,9.0013,8.8936,8.7732,8.6581,8.6423,8.548,8.4159,8.2911,8.1655,8.0327,7.8972,7.8436,7.8281,7.8281,7.8047,7.7694,7.7317,7.5615,7.3915,7.3595,7.1379,6.9194,6.864,6.7748,6.6946,6.6527,6.6321,6.6194,6.6221,6.6198,6.6172,6.6172,6.5819,6.5778,6.6445,6.5584,6.4997,6.5234,6.4101,6.2771,6.1304,5.8726,5.6641,5.5447,5.3233,5.1851,5.1616,5.1368,5.1147,5.1002,5.084,5.0733,0.0,0.0,0.0,0.0,0.0,0.0,0.0,0.0,0.0,0.0,0.0,0.0,0.0,0.0,0.0,0.0,0.0,0.0,0.0,0.0,0.0,0.0,8.4596,8.9498,9.0993,9.3642,9.6313,9.8545,10.0303,10.1395,10.1395,10.2304,10.2785,10.261,10.3499,10.4005,10.3993,10.4385,10.4517,10.4415,10.4405,10.4212,10.3905,10.3905,10.3712,10.3415,10.3008,10.2597,10.222,10.1787,10.1409,10.089,10.0211,9.9402,9.8521,9.7304,9.655,9.6016,0.0,0.0,0.0,0.0,8.7861,8.679,8.6916,8.6358,8.549,8.4751,8.3449,8.1936,8.0972,8.0142,7.9552,7.9486,7.8852,7.8177,7.8072,7.6225,7.433,7.3907,7.1971,6.9907,6.8816,6.8,6.7319,6.6703,6.668,0.0,6.6737,6.6831,6.6914,6.6914,6.6403,6.6244,6.6836,6.5933,6.5228,6.5078,6.414,6.2691,6.0579,5.8274,0.0,0.0,0.0,5.1594,5.1202,5.1202,0.0,0.0,0.0,5.0879,5.0879,5.0879,0.0,0.0,5.001,4.974,0.0,0.0,0.0,0.0,0.0,0.0,0.0,0.0,0.0,0.0,0.0,0.0,0.0,0.0,0.0,0.0,9.1366,9.6824,9.9907,9.9511,9.9473,10.1009,10.2482,10.341,10.3488,10.4214,10.4603,10.4688,10.4582,10.4915,10.5712,10.561,0.0,0.0,0.0,10.5107,10.4289,10.431,10.3801,10.3117,10.3196,10.2811,10.2011,10.2117,10.2115,10.2115,10.1213,10.0405,9.9704,9.8878,9.7991,9.697,9.4475,9.284,9.1658,8.9395,8.7923,8.7029,8.7206,0.0,0.0,8.6168,8.4609,8.2652,8.2368,8.1121,7.9759,7.9573,7.8828,7.8089,7.7949,7.6555,7.49,7.3983,7.2371,7.06,6.9087,6.8273,6.7645,6.6853,6.6849,6.695,6.6872,6.6874,6.6914,6.6914,6.6742,6.669,6.6874,6.6663,6.5949,6.4609,6.4258,0.0,5.9484,5.8267,5.6661,5.4228,5.307,5.2141,5.1399,5.1241,5.1166,5.1094,5.1154,5.1224,5.1224,5.1283,5.1282,5.1165,5.1071,5.1033,0.0,0.0,0.0,0.0,0.0,0.0,0.0,0.0,0.0,0.0,0.0,0.0,0.0,0.0,0.0,9.0078,9.5525,9.9927,10.2717,10.3314,10.3511,10.3501,10.3311,10.3311,10.4009,10.4404,10.4794,10.5296,10.5898,10.6597,10.7181,10.7803,10.8213,10.8213,10.7482,10.7098,10.6982,10.6507,10.6183,10.5997,10.4907,0.0,10.4094,10.2707,10.2115,10.2085,10.1402,10.0994,10.0807,10.0198,9.9401,9.8376,9.6108,9.3971,9.2066,9.1598,9.0094,8.8348,8.8393,8.7848,8.7068,8.6406,8.5691,8.498,8.4296,8.324,0.0,8.2264,8.1127,7.9691,7.884,7.7345,7.5614,7.3961,7.2723,7.1531,6.9976,6.9532,6.9058,6.7677,6.7426,6.725,6.6592,6.6725,6.6914,6.6914,6.6874,6.6873,6.6875,6.6249,6.5663,6.539,6.4101,6.2652,6.1126,5.8876,5.703,5.5813,5.3707,5.2415,5.2258,5.1555,5.1166,5.1094,5.1632,5.1908,5.1908,5.2511,5.2781,5.2738,5.2158,5.1798,0.0,0.0,0.0,0.0,0.0,0.0,0.0,0.0,0.0,0.0,0.0,7.539,8.0195,0.0,9.0937,9.5703,9.9953,10.3282,10.479,10.4997,10.4701,10.4291,10.4303,10.4482,10.5215,10.581,10.6384,10.7089,10.762,10.8212,10.8888,10.929,10.9617,10.9685,10.9385,10.8999,10.8803,10.7985,10.7411,10.699,10.5991,10.5087,10.4194,10.3502,10.2912,10.2485,10.2185,10.1811,10.1308,10.0503,9.9756,9.9131,9.8037,9.5664,9.2812,9.2526,9.1054,8.9157,8.869,8.83,8.7787,8.6808,8.6124,8.5575,8.5054,8.4236,8.3439,8.3334,8.2053,8.0514,7.954,7.8065,7.6244,7.4018,7.3168,7.2295,7.0324,6.9918,6.9566,6.8476,6.8238,6.8121,6.7736,6.7784,6.7624,6.6772,6.6655,6.6655,6.6655,6.6265,6.5834,6.5405,6.4195,6.2834,6.139,5.8849,5.6812,5.5531,5.4341,5.351,5.3083,5.2614,5.2392,5.2368,5.3109,5.3301,5.2835,5.4053,5.4186,5.3313,5.4233,5.3915,0.0,0.0,0.0,0.0,0.0,0.0,0.0,6.914,7.1094,7.539,7.9062,8.3086,8.8281,9.3162,9.7458,10.0781,10.3905,10.6082,10.6818,10.6497,10.6007,10.5405,10.5594,10.6103,10.6802,10.7521,10.829,10.9098,10.9394,10.9888,11.0697,11.0989,11.1193,11.139,11.1087,11.0608,11.0021,10.9009,10.8002,10.7108,10.6507,10.5484,10.4303,10.4296,10.3983,10.3398,10.3201,10.261,10.1583,10.0687,10.0204,9.9994,9.9838,9.7558,9.4262,9.3673,9.2021,9.0027,8.9328,8.8745,8.8183,8.7339,8.6433,8.5651,8.5512,8.4836,8.4061,8.3919,8.2631,8.1131,8.0285,7.8784,7.6945,7.4546,7.3853,7.316,7.1058,7.0457,7.0135,6.9442,6.9165,6.9014,6.8819,6.8819,6.8307,6.6841,6.662,6.6581,6.6426,6.6387,6.6072,6.5171,6.4474,6.3203,6.1178,5.912,5.7257,5.5555,5.5417,5.5075,5.438,5.4183,5.4105,5.4105,5.4929,5.4992,5.4296,5.5806,5.5796,5.4413,5.645,5.6145,6.7031,6.6119,6.6585,7.0108,6.9871,7.1214,0.0,8.1562,8.1797,8.6094,8.9765,9.2851,9.5078,9.8254,10.151,10.4413,10.6303,10.7682,10.8785,10.9608,10.9806,10.9213,10.7681,10.7216,10.8496,10.8713,10.9098,10.9983,11.0985,11.1914,11.2805,11.3811,11.4383,11.4418,11.29,11.1583,11.0491,10.919,10.789,10.6788,10.6218,10.5981,10.599,10.5314,10.5084,10.5195,10.4102,10.3097,10.1998,10.1893,10.1783,10.1682,10.1015,9.9336,9.7341,9.6716,9.4448,9.1659,9.1542,9.0033,8.8126,8.7984,8.7249,8.6368,8.637,8.5597,8.4765,8.4755,8.3516,8.1977,8.117,7.9669,7.7907,7.613,7.513,7.4291,7.3325,7.2492,7.1697,7.0851,7.0086,6.9348,6.8578,6.8462,6.8226,6.7574,6.747,6.7201,6.6504,6.6387,6.6072,6.5171,6.5016,6.386,6.1217,6.0847,5.9972,5.8209,5.7472,5.7091,5.6978,5.623,5.5838,5.5838,5.6551,5.6892,5.6814,5.7622,5.7961,5.7742,5.805,5.7208,7.143,7.1249,7.1852,7.4197,7.6572,7.9568,8.4351,8.6014,8.7773,9.2111,9.5745,9.8832,10.1015,10.4182,10.6791,10.7814,10.9009,10.9986,11.0502,11.011,10.9713,10.9309,10.8494,10.8679,11.029,11.0406,11.1003,11.2521,11.3111,11.3509,11.3895,11.4399,11.4419,11.3899,11.3198,11.2381,11.1581,11.0511,10.9699,10.9182,10.8493,10.7719,10.6805,10.6489,10.5605,10.4196,10.3191,10.2518,10.1892,10.1892,10.1806,10.1595,10.1201,10.0294,9.8985,9.7531,9.5382,9.3058,9.201,9.0968,8.9814,8.8197,8.7371,8.6932,8.643,8.5961,8.5585,8.5585,8.4747,8.3516,8.2131,8.09,7.9323,7.663,7.5707,7.5091,7.3776,7.3199,7.286,7.2476,7.1745,7.1052,7.0667,7.0206,6.9605,6.8938,6.839,6.7776,6.6931,6.682,6.6273,6.4952,6.4798,6.4139,6.2474,6.2403,6.1916,6.0655,6.0312,5.99,5.9398,5.8538,5.8074,5.8074,5.837,5.832,5.7857,5.9645,5.9742,5.8352,5.9819,5.9863,7.3516,7.4797,7.6663,7.849,8.2753,8.6946,8.8585,9.0786,9.3525,9.7432,10.0786,10.3696,10.5801,10.8585,11.0684,11.0988,11.1712,11.2088,11.1887,11.0809,10.9681,10.9008,10.8482,10.8918,11.0807,11.1209,11.2105,11.4018,11.4389,11.4596,11.4903,11.5106,11.4911,11.4084,11.3801,11.3196,11.2191,11.1285,11.0692,11.04,10.9811,10.8809,10.738,10.7005,10.5716,10.3583,10.2695,10.2087,10.161,10.161,10.1495,10.1279,10.1279,10.0789,9.9883,9.8127,9.6301,9.4442,9.271,9.182,9.1004,8.8548,8.7594,8.7248,8.6363,8.5962,8.5828,8.5828,8.5116,8.401,8.2526,8.133,7.9875,7.7186,7.6481,7.6032,7.4605,7.4235,7.4123,7.3892,7.3129,7.2552,7.2552,7.2052,7.136,7.0514,7.0052,6.9237,6.7667,6.725,6.6635,6.5436,6.5089,6.4628,6.3737,6.366,6.332,6.248,6.2441,6.2172,6.1512,6.0896,6.055,6.055,6.055,6.0275,5.966,6.1512,6.1473,5.9737,6.155,6.2095,7.1404,7.4485,7.8832,8.3028,8.7343,9.1661,9.5963,9.8329,10.0288,10.3019,10.5796,10.8086,10.8984,11.0398,11.2086,11.3981,11.4184,11.3808,11.3202,11.2383,11.1087,10.9086,10.7387,10.7313,10.9505,11.0505,11.1694,11.3506,11.4385,11.5312,11.6093,11.6903,11.6891,11.6107,11.5318,11.3889,11.1895,11.0988,11.0107,10.8996,10.8919,10.8597,10.7997,10.6609,10.5309,10.4209,10.3402,10.2304,10.1308,10.1308,10.1299,10.1279,10.1279,10.0789,9.999,9.9095,9.7672,9.5998,9.4238,9.2574,9.092,8.9218,8.8094,8.7248,8.6363,8.5655,8.5141,8.5141,8.4088,8.2781,8.1925,8.0441,7.8946,7.8051,7.769,7.7303,7.6407,7.6057,7.5668,7.4815,7.4007,7.3469,7.3469,7.343,7.3122,7.2245,7.2822,7.2122,6.8776,6.7628,6.7096,6.7019,6.6327,6.5513,6.4628,6.4551,6.4199,6.3314,6.3275,6.3237,6.3237,6.3198,6.3198,6.3198,6.3198,6.316,6.316,6.3237,6.3237,6.316,6.3237,6.3237,7.6256,8.0598,8.5743,9.0228,9.4238,9.7883,10.0901,10.2517,10.3807,10.5215,10.5793,10.6285,10.7217,10.8707,11.0299,11.1883,11.3216,11.4008,11.3812,11.3007,11.1098,10.7685,10.6981,10.6799,10.6412,10.8,11.0311,11.342,11.4216,11.4882,11.579,11.6687,11.6701,11.5588,11.5299,11.4597,11.3313,11.2995,11.2403,11.1406,10.9713,10.8806,10.8598,10.6417,10.4902,10.4018,10.3092,10.2182,10.1279,10.1279,10.1279,10.1202,10.0712,10.0289,9.9913,9.8481,9.7596,9.6865,9.5143,9.3787,9.2595,9.0902,8.912,8.7436,8.6547,8.5474,8.4502,8.449,8.4159,8.3575,8.2733,8.1677,8.0457,7.905,7.8217,7.7576,7.6722,7.6528,7.6214,7.5388,7.4542,7.3925,7.3769,7.2949,7.2336,7.2439,7.1611,7.0744,7.0129,6.8821,6.7975,6.7975,6.6912,6.6108,6.584,6.4983,6.4356,6.4043,6.4043,6.4173,6.4486,6.3958,6.381,6.416,6.3583,6.3314,6.3314,6.3891,6.3852,6.3314,6.3891,6.4166,8.1477,8.6544,9.1833,9.5891,9.963,10.2695,10.4096,10.4602,10.4992,10.5499,10.4913,10.4288,10.4792,10.5711,10.6996,10.9089,11.0483,11.1589,11.2489,11.1482,10.9695,10.7001,10.6206,10.559,10.5219,10.5804,10.7993,11.2412,11.3186,11.4,11.5192,11.5909,11.5907,11.4788,11.5102,11.4907,11.3984,11.3984,11.3407,11.2203,10.9983,10.8713,10.8406,10.6097,10.4789,10.4299,10.3097,10.2289,10.1702,10.1394,10.1279,10.1202,10.0712,10.0481,10.0289,9.8596,9.7788,9.7314,9.5617,9.4446,9.3437,9.1443,8.9409,8.7521,8.6369,8.5003,8.3824,8.3849,8.3677,8.3287,8.2451,8.1853,8.1091,7.9682,7.9128,7.8578,7.7477,7.7394,7.7217,7.6146,7.5494,7.4962,7.455,7.3171,7.2405,7.3117,7.1594,7.0699,7.139,7.0118,6.9021,6.8723,6.7669,6.685,6.6555,6.5756,6.5266,6.5266,6.5266,6.5407,6.5673,6.4884,6.4598,6.4947,6.4113,6.3693,6.3693,6.4273,6.4235,6.3693,6.4273,6.4548,8.6815,9.2086,9.6964,10.0011,10.3411,10.5888,10.5617,10.4884,10.4185,10.4083,10.2985,10.2085,10.2014,10.1616,10.2499,10.6014,10.6602,10.7507,11.0116,10.878,10.7516,10.7299,10.508,10.4291,10.5794,10.4418,10.5503,11.069,11.138,11.25,11.4313,11.5013,11.4881,11.4184,11.4992,11.4984,11.4214,11.4099,11.3214,11.1588,10.979,10.8482,10.7713,10.5982,10.5223,10.4982,10.3405,10.2597,10.252,10.1712,10.1279,10.1279,10.1211,10.1201,10.1009,9.9298,9.8204,9.7318,9.5625,9.4456,9.3378,9.09,8.899,8.7409,8.5839,8.4315,8.3146,8.3146,8.2708,8.2003,8.1269,8.1048,8.0828,8.0036,8.0274,8.0223,7.8633,7.8715,7.8669,7.7114,7.676,7.6444,7.5615,7.419,7.3458,7.4249,7.2973,7.2068,7.2563,7.1425,7.0259,6.944,6.8559,6.7758,6.696,6.6817,6.6769,6.6731,6.6731,6.6741,6.6771,6.6027,6.5632,6.5661,6.4898,6.453,6.453,6.4492,6.4455,6.4455,6.4417,6.4379,9.2577,9.779,10.2514,10.4104,10.569,10.67,10.5992,10.4707,10.3083,10.1194,9.8548,9.6171,9.49,9.6603,9.9501,10.3588,10.7394,11.0813,11.3287,11.2987,11.1596,10.9089,10.8484,10.801,10.7188,10.7221,10.8311,11.098,11.0208,11.1206,11.4806,11.5702,11.6692,11.77,11.7404,11.71,11.6792,11.4907,11.3791,11.3291,11.0983,10.9406,10.8598,10.7482,10.629,10.4982,10.3982,10.3212,10.252,10.1712,10.1279,10.1211,9.9978,9.9503,9.9331,9.768,9.6586,9.5836,9.5363,9.3871,9.1963,9.0726,8.8447,8.5952,8.4942,8.3626,8.245,8.245,8.2327,8.215,8.1929,8.1452,8.0938,8.0755,8.0362,7.9891,7.9471,7.9526,7.9327,7.8314,7.749,7.6523,7.5283,7.5434,7.5675,7.5446,7.5022,7.4319,7.3078,7.2033,7.1298,7.1071,6.9978,6.8933,6.8122,6.7144,6.631,6.5718,6.5681,6.5848,6.6194,6.6029,6.6111,6.6499,6.6293,6.6189,6.6189,6.5596,6.5294,6.5294,6.4672,6.4379,9.8356,10.26,10.6014,10.6482,10.6585,10.5795,10.3013,10.0796,9.8295,9.4607,9.2122,9.0042,8.826,9.1373,9.5345,9.8897,10.4005,10.8693,11.2394,11.2586,11.2009,11.0786,11.0612,11.0223,10.9213,10.9209,11.0106,11.2207,11.1194,11.1894,11.5013,11.6297,11.7517,11.8486,11.7988,11.76,11.7215,11.5484,11.4214,11.3407,11.1598,10.9906,10.8406,10.7905,10.6982,10.5597,10.4405,10.3597,10.3,10.1496,10.0814,10.0711,9.9428,9.8932,9.8766,9.7512,9.6536,9.5765,9.5052,9.3477,9.1587,9.074,8.8518,8.6006,8.4836,8.3435,8.2186,8.2186,8.2186,8.2186,8.2186,8.1856,8.1525,8.1525,8.1158,8.0771,8.0388,8.0314,7.9984,7.8809,7.7821,7.6764,7.5602,7.5718,7.5798,7.5458,7.5389,7.5008,7.3976,7.3081,7.2311,7.1602,7.0845,7.0073,6.9258,6.8502,6.7907,6.743,6.743,6.7516,6.7777,6.7136,6.6899,6.719,6.6493,6.612,6.612,6.5684,6.5273,6.4911,6.4485,6.4075,10.3899,10.669,10.8311,10.7711,10.6502,10.4084,9.8799,9.5499,9.2077,8.6959,8.5178,8.4079,8.2385,8.6296,9.0829,9.4149,9.9152,10.4588,11.0194,11.06,11.0921,11.261,11.2085,11.1692,11.1692,11.1209,11.1779,11.4091,11.3803,11.4114,11.5512,11.7109,11.7913,11.7896,11.7894,11.7484,11.6495,11.5676,11.4484,11.3022,11.2088,11.0395,10.8213,10.7982,10.7287,10.6291,10.46,10.38,10.3387,10.1094,10.0088,9.9949,9.9165,9.8861,9.8733,9.7884,9.7092,9.6247,9.4726,9.327,9.1838,9.0592,8.8758,8.6684,8.4976,8.3471,8.2333,8.2223,8.2186,8.2186,8.2186,8.2186,8.2186,8.2186,8.2186,8.2003,8.1305,8.1158,8.0681,7.9066,7.8133,7.7326,7.6423,7.5674,7.5234,7.5234,7.5234,7.516,7.505,7.4368,7.3266,7.1784,7.1637,7.1233,7.033,7.0257,7.022,7.011,7.011,7.011,7.011,6.8765,6.8031,6.8031,6.6549,6.5765,6.5765,6.5545,6.5118,6.4433,6.4323,6.3796,10.8413,10.9493,10.9494,10.8003,10.6001,10.2804,9.7124,9.2904,8.8721,8.3744,8.0927,7.9294,7.8898,8.2433,8.7729,9.4959,9.9341,10.4684,11.311,11.299,11.2719,11.4305,11.4308,11.4206,11.4206,11.4794,11.5606,11.6718,11.751,11.8011,11.8277,11.8599,11.8797,11.8886,11.8888,11.81,11.6495,11.5676,11.5099,11.4791,11.3214,11.1906,11.078,10.929,10.7889,10.6285,10.4579,10.3083,10.1811,10.071,9.9798,9.9136,9.831,9.8009,9.7927,9.7151,9.6382,9.5534,9.4632,9.3676,9.2427,8.9537,8.7867,8.6574,8.4298,8.3418,8.3051,8.237,8.2186,8.2186,8.2186,8.2186,8.2186,8.2186,8.2186,8.215,8.2003,8.2003,8.1525,7.989,7.9486,7.8883,7.7362,7.6995,7.6885,7.6885,7.6885,7.6628,7.5983,7.5212,7.4331,7.3377,7.3266,7.2679,7.1233,7.1087,7.0793,7.0146,7.011,7.011,7.011,6.9816,6.9669,6.9669,6.8752,6.8274,6.8261,6.6953,6.6219,6.6072,6.5411,6.464,11.0791,11.1193,11.0401,10.8807,10.4901,9.9648,9.2639,8.7563,8.2691,7.6765,7.526,7.4853,7.4271,7.9377,8.511,8.9456,9.446,10.0783,10.9398,10.9809,11.0779,11.501,11.5888,11.619,11.619,11.7012,11.7902,11.8813,11.9291,11.9625,11.9625,11.9681,11.9481,11.9088,11.8715,11.7792,11.6495,11.6099,11.5495,11.4599,11.328,11.1808,11.0111,10.8399,10.6901,10.5681,10.3998,10.2588,10.1392,10.0122,9.9145,9.8295,9.7545,9.7246,9.7192,9.682,9.6208,9.5382,9.4593,9.3749,9.2648,8.9767,8.8262,8.7252,8.527,8.4352,8.3948,8.3544,8.3141,8.281,8.281,8.2517,8.2186,8.2186,8.2186,8.2186,8.2186,8.2186,8.1856,8.0645,8.0424,8.0021,7.8809,7.8259,7.7986,7.7986,7.7582,7.7326,7.7378,7.7047,7.6166,7.4515,7.4331,7.4001,7.3252,7.3179,7.2995,7.2642,7.2202,7.1982,7.1982,7.1174,7.0734,7.0734,6.9509,6.8885,6.8885,6.7687,6.6916,6.6476,6.6109,6.5485,11.2714,11.2589,11.1506,10.949,10.3905,9.6768,8.8581,8.2847,7.7472,7.1115,7.071,7.1342,7.083,7.6421,8.1805,8.4035,8.9071,9.5865,10.4885,10.6192,10.8688,11.5002,11.6704,11.7389,11.7389,11.8406,11.9402,12.0086,12.0211,12.0194,12.0194,12.0286,11.9792,11.8908,11.8215,11.7407,11.6495,11.6282,11.5597,11.4203,11.3005,11.1391,10.9423,10.7298,10.6007,10.5101,10.3392,10.2095,10.11,9.9693,9.86,9.775,9.6989,9.6685,9.6685,9.6685,9.6318,9.5621,9.463,9.3896,9.2941,9.0464,8.9106,8.8133,8.6334,8.5343,8.4829,8.4646,8.4005,8.3381,8.3381,8.281,8.2186,8.2186,8.2186,8.2186,8.2186,8.2186,8.1966,8.1158,8.1012,8.0755,7.9926,7.9302,7.8846,7.8846,7.8259,7.806,7.8772,7.8846,7.8112,7.6166,7.5637,7.527,7.494,7.4903,7.4903,7.4903,7.4294,7.3964,7.3964,7.2569,7.1821,7.1821,7.0243,6.9398,6.9398,6.8605,6.7811,6.7026,6.7173,6.6769,11.4791,11.4391,11.2904,10.9797,10.352,9.59,8.7764,8.1562,7.6093,7.1112,6.9595,6.9609,7.0988,7.3055,7.6759,8.3476,8.6306,9.1802,10.3586,10.5899,10.8505,11.4194,11.6392,11.7389,11.7389,11.9001,12.0095,12.0206,12.03,12.0287,12.0287,12.0308,11.96,11.8023,11.7781,11.7407,11.6495,11.5715,11.5206,11.5078,11.2713,11.1399,11.1097,10.7921,10.5988,10.5089,10.3393,10.1776,10.0301,9.9468,9.862,9.7811,9.7017,9.6685,9.6685,9.6685,9.6649,9.6355,9.4813,9.4226,9.3786,9.1289,8.995,8.8849,8.6518,8.5764,8.5527,8.4792,8.4005,8.3381,8.3381,8.281,8.2186,8.2186,8.2186,8.2186,8.2186,8.2186,8.1966,8.1158,8.1012,8.0755,7.9926,7.9743,7.9706,7.9706,7.9633,7.9596,7.9669,7.9706,7.9596,7.9376,7.8002,7.6481,7.5014,7.4903,7.4903,7.4903,7.483,7.4793,7.4793,7.3964,7.3487,7.3487,7.1908,7.1087,7.1087,7.0257,6.9486,6.8715,6.9412,6.8949,11.2896,11.3801,11.2889,10.92,10.2311,9.4447,8.6818,7.9543,7.3325,6.9449,6.8017,6.7944,6.9545,7.077,7.3266,7.8626,8.0021,8.4168,9.4868,9.7089,10.0796,10.9386,11.2899,11.5611,11.7998,11.9885,12.099,12.099,12.0612,12.0292,12.0292,11.9792,11.8985,11.7781,11.7309,11.6608,11.5677,11.491,11.4199,11.3615,11.1598,11.0301,10.9704,10.6884,10.5207,10.4396,10.3194,10.1817,10.0209,9.9438,9.8631,9.7843,9.7016,9.6685,9.6685,9.6685,9.6392,9.5878,9.5254,9.441,9.3345,9.184,9.0482,8.9143,8.7692,8.6921,8.6371,8.5563,8.4756,8.4022,8.3528,8.281,8.2186,8.2186,8.2186,8.2186,8.2186,8.2186,8.2113,8.1782,8.1709,8.1636,8.1321,8.0828,8.0534,8.0534,8.011,7.9963,8.0461,8.0534,8.0534,8.0534,7.9507,7.8552,7.7892,7.7855,7.7635,7.7157,7.6628,7.6114,7.5652,7.4845,7.4184,7.3722,7.2606,7.1784,7.1307,7.0477,6.9926,6.9633,6.9963,6.9743,10.9191,11.1595,11.2122,10.7978,10.1004,9.323,8.5916,7.8148,7.1578,6.8361,6.7063,6.699,6.8591,6.9559,7.1321,7.5139,7.635,7.9984,8.8959,9.1321,9.5424,10.4398,10.8198,11.1803,11.5884,11.901,12.0781,12.0781,12.0016,11.9505,11.9505,11.8714,11.8,11.7395,11.631,11.539,11.4805,11.3885,11.3201,11.2602,11.0926,10.9586,10.8694,10.6509,10.4908,10.388,10.2999,10.1898,10.0613,9.9805,9.8998,9.8154,9.7383,9.6906,9.6685,9.6685,9.6355,9.5822,9.5565,9.4593,9.3308,9.2501,9.0959,8.929,8.872,8.7839,8.6848,8.604,8.5049,8.4115,8.3564,8.281,8.2186,8.2186,8.2186,8.2186,8.2186,8.2186,8.2186,8.2186,8.2186,8.2186,8.2186,8.1746,8.1342,8.1342,8.0865,8.0734,8.1269,8.1529,8.1592,8.1374,8.1029,8.0524,7.9869,7.9962,7.9787,7.9008,7.8185,7.7436,7.6864,7.5836,7.4992,7.4404,7.3634,7.2922,7.2371,7.1798,7.1284,7.0807,7.1064,7.1027,10.3691,10.7691,11.0405,10.6303,9.9778,9.2409,8.5086,7.7729,7.1578,6.8361,6.7063,6.699,6.8591,6.9559,7.1174,7.439,7.6974,8.1122,8.8409,9.1364,9.4662,9.9757,10.249,10.5698,10.9901,11.5478,11.8813,11.8813,11.8003,11.7496,11.7496,11.6796,11.6415,11.6483,11.4812,11.389,11.389,11.3,11.2509,11.2509,11.0809,10.9591,10.871,10.711,10.5495,10.388,10.2999,10.2191,10.1384,10.0613,9.9805,9.9035,9.819,9.7383,9.6685,9.6685,9.6685,9.6575,9.5804,9.496,9.4153,9.3345,9.1418,8.94,8.94,8.8262,8.6848,8.604,8.4646,8.3418,8.3381,8.281,8.2186,8.2186,8.2186,8.2186,8.2186,8.2186,8.2186,8.2186,8.2186,8.2186,8.2186,8.2186,8.2186,8.2186,8.2186,8.2186,8.2186,8.2778,8.2921,8.2247,8.2756,8.2252,8.0005,8.0414,8.0493,7.9827,7.9045,7.8589,7.8552,7.6974,7.6093,7.6093,7.527,7.4867,7.4867,7.483,7.4023,7.2496,7.3303,7.323,9.431,9.7692,9.9537,9.5458,9.0601,8.538,7.969,7.4074,6.9449,6.732,6.6256,6.6352,6.8495,6.8641,7.0454,7.646,7.7582,7.9841,8.5926,9.1386,9.6329,10.0594,10.8794,11.4585,11.5886,11.7696,11.8778,11.8778,11.8007,11.7516,11.7588,11.5597,11.4806,11.5512,11.4406,11.3487,11.2907,11.2102,11.1615,11.1615,11.0,10.9019,10.8688,10.6523,10.4908,10.388,10.2999,10.2191,10.1404,9.9989,9.9328,9.8961,9.7603,9.6906,9.6589,9.5729,9.5947,9.6552,9.5417,9.469,9.4263,9.4006,9.1877,8.94,8.94,8.8262,8.6931,8.6635,8.5346,8.407,8.4085,8.3828,8.3447,8.2994,8.3232,8.3556,8.357,8.357,8.357,8.357,8.357,8.3405,8.2965,8.2861,8.2717,8.2284,8.2585,8.2861,8.2861,8.3461,8.3785,8.3597,8.4116,8.3676,8.1592,8.1634,8.1408,8.0661,8.0388,7.9984,7.9449,7.8369,7.7524,7.6922,7.613,7.5469,7.4903,7.4903,7.4647,7.4133,7.3854,7.3575,8.433,8.8649,9.103,8.7906,8.4552,8.0828,7.624,7.1688,6.7981,6.6366,6.5655,6.5949,6.8054,6.8274,6.9926,7.5395,7.684,7.9082,8.4441,9.085,9.6832,10.1807,10.9913,11.5095,11.5506,11.6908,11.7711,11.7711,11.7206,11.6794,11.6609,11.469,11.3812,11.4085,11.3278,11.2601,11.2004,11.1497,11.1221,11.1221,10.99,10.8909,10.8285,10.6413,10.4798,10.3382,10.2417,10.1496,0.0,9.8829,9.7911,9.7491,9.6243,9.5518,9.5223,9.4912,9.5322,9.5911,9.5263,9.475,9.4226,9.3932,9.184,8.936,8.9007,8.8001,8.7025,8.7263,8.6128,8.4843,8.5156,8.4703,8.4092,8.3691,8.3914,8.4179,8.4191,8.4191,8.4191,8.4191,8.4191,8.4054,8.3651,8.357,8.3457,8.3024,8.3331,8.3583,8.3583,8.4154,8.4455,8.4216,8.474,8.451,8.3082,8.295,8.2495,8.1537,8.1158,8.0645,7.9816,7.9045,7.8185,7.7326,7.6812,7.6298,7.5784,7.5491,7.5344,7.5322,7.4515,7.4001,0.0,8.009,8.4006,8.2396,8.0417,7.7829,7.3905,7.0155,0.0,6.5521,6.5251,6.5852,6.7554,6.8421,6.9802,7.2569,7.5394,7.8935,8.3938,9.0448,9.7121,10.3716,10.7401,10.9583,11.0105,11.3681,11.5993,11.5993,11.5993,11.5589,11.4782,11.3974,11.3203,11.2286,11.1588,11.1221,11.1221,11.1089,11.1111,11.1111,11.0193,10.9004,10.7498,10.6496,10.4803,10.2484,10.1093,9.9997,9.9114,9.7112,9.5824,9.5056,9.4301,9.3605,9.3155,9.427,9.4784,9.4988,9.5269,9.4903,9.4153,9.3161,9.1326,8.9332,8.8381,8.76,8.7146,8.8018,8.6988,8.5813,8.648,8.5573,8.44,8.4276,8.43,8.4337,8.4337,8.4337,8.4337,8.4337,8.4337,8.4313,8.429,8.4278,8.4265,8.4203,8.424,8.4264,8.4264,8.4795,8.4974,8.4396,8.4828,8.4904,8.4326,8.4216,8.3677,8.2402,8.1592,8.0782,8.0062,7.9191,7.8373,7.7549,7.7476,7.7439,7.7439,7.6669,7.6331,7.6309,7.5485,7.4713,6.2756,0.0,7.1474,6.9868,6.9493,6.8986,0.0,6.6062,6.5595,6.4604,6.4861,6.6182,6.9009,6.9192,7.0917,7.7099,7.8186,8.0095,8.5391,9.4946,10.3718,10.9782,11.3399,11.4386,11.2081,11.4378,11.5993,11.5993,11.5993,11.5406,11.3997,11.3703,11.291,11.1515,11.1295,11.1221,11.1221,11.0597,11.0304,11.0325,10.8799,10.7587,10.6612,10.41,10.2297,10.1085,9.9087,9.7822,9.7028,9.5945,9.5045,9.4266,9.3487,9.3656,9.4292,9.3606,9.4576,9.6054,9.4559,9.4137,9.3859,9.1125,9.0276,8.9968,8.8552,8.7958,8.8062,8.9289,8.8877,8.7964,8.7568,8.7047,8.6365,8.5179,8.528,8.5645,8.5645,8.5645,8.5645,8.5645,8.5645,8.5485,8.4995,8.4872,8.4729,8.4264,8.4594,8.4882,8.4882,8.5475,8.5811,8.5664,8.5784,8.5618,8.4925,8.4467,8.4054,8.3733,8.2943,8.2367,8.2193,8.0893,8.01,7.9914,7.9297,7.8963,7.8977,7.8637,7.8454,7.8454,7.7641,7.7153,5.849,6.1843,6.5179,6.4635,6.4882,6.5131,6.4569,6.4299,6.4028,6.3586,6.4457,6.5949,6.8054,6.9302,7.1541,7.6255,7.8779,8.3008,9.1202,9.863,10.5601,11.1823,11.4099,11.4792,11.4115,11.5185,11.5993,11.5993,11.5993,11.5296,11.3703,11.3593,11.2895,11.1295,11.0817,11.0597,11.0597,11.0193,10.979,10.9386,10.7792,10.6303,10.4889,10.2379,10.0606,9.9111,9.6997,9.6207,9.6235,9.4488,9.3894,9.3994,9.318,9.3317,9.3922,9.381,9.4619,9.5644,9.4362,9.3837,9.3398,9.1555,9.1214,9.1317,8.9991,8.9608,8.969,9.0003,8.9725,8.9189,8.8366,8.7795,8.7073,8.5846,8.5828,8.6094,8.6094,8.6094,8.6094,8.6094,8.6094,8.5971,8.5636,8.5551,8.5466,8.51,8.534,8.5551,8.5551,8.5864,8.6094,8.6094,8.6094,8.5954,8.5579,8.526,8.4833,8.4228,8.3764,8.3311,8.2934,8.2134,8.1552,8.119,8.0716,8.0491,8.0491,8.0025,7.9787,7.9787,7.8957,7.8353,5.8475,6.0629,6.2759,6.281,6.3188,6.3651,6.4168,6.3437,6.268,6.2947,6.4334,6.5925,6.7357,7.0036,7.2701,7.4845,7.9963,8.7449,9.8305,10.1991,10.5786,11.1887,11.2807,11.3607,11.5296,11.5773,11.5993,11.5993,11.5993,11.5296,11.3703,11.3593,11.28,11.1111,11.0377,10.9922,10.9606,10.9606,10.9202,10.8395,10.689,10.4991,10.2779,10.1288,9.9478,9.7212,9.5436,9.5171,9.5748,9.3358,9.294,9.3769,9.3144,9.3014,9.334,9.4525,9.5021,9.502,9.4613,9.3897,9.3115,9.289,9.2876,9.2757,9.1724,9.149,9.1402,9.0513,9.0187,8.9893,8.894,8.8132,8.7363,8.6324,8.6094,8.6094,8.6094,8.6094,8.6094,8.6094,8.6094,8.6094,8.6094,8.6094,8.6094,8.6094,8.6094,8.6094,8.6094,8.6094,8.6094,8.6094,8.6094,8.6094,8.6094,8.6094,8.5636,8.4548,8.4365,8.3913,8.3113,8.3063,8.2763,8.2076,8.2057,8.2028,8.2028,8.1211,8.0752,8.0763,7.9908,7.9112,6.1013,6.2532,6.2615,5.9544,6.0301,6.1671,6.1215,6.1457,6.2186,6.3632,6.5191,6.7614,7.1798,7.4111,7.679,8.1179,8.7153,9.4011,10.2009,10.5779,10.8897,11.2107,11.4197,11.4782,11.3093,11.4782,11.5993,11.5993,11.5993,11.5296,11.3703,11.3593,11.2602,11.0289,11.0105,10.9276,10.8012,10.8012,10.7609,10.6801,10.5789,10.3801,10.1108,10.0796,9.9156,9.6458,9.6155,9.5402,9.4311,9.3906,9.346,9.3073,9.2932,9.3547,9.4605,9.5436,9.5976,9.6206,9.5403,9.4611,9.3798,9.3056,9.3226,9.3449,9.1848,9.184,9.214,9.1286,9.1033,9.0671,8.9103,8.8603,8.8094,8.6478,8.6094,8.6094,8.6094,8.6094,8.6094,8.6094,8.6094,8.6094,8.6094,8.6094,8.6094,8.6094,8.6094,8.6094,8.6094,8.6094,8.6094,8.6094,8.6094,8.6094,8.6094,8.6094,8.6035,8.5811,8.5149,8.447,8.3798,8.3739,8.378,8.3838,8.3655,8.3548,8.3559,8.2546,8.2011,8.2011,8.1205,8.0745,5.9592,6.1446,6.2731,6.1487,6.319,6.5211,6.5478,6.5529,6.5997,6.7662,6.8935,7.0954,7.4918,7.8405,8.3141,9.0647,9.5092,9.9166,10.3905,10.6178,10.8512,11.1412,11.3093,11.4084,11.4305,11.5296,11.5993,11.5993,11.5993,11.5296,11.3703,11.3593,11.2492,11.0105,10.9606,10.882,10.7609,10.6706,10.6082,10.5715,10.4908,10.3108,10.0688,10.0219,9.8941,9.6908,9.6058,9.57,9.5663,9.5232,9.5234,9.5589,9.6026,9.6547,9.7051,9.6906,9.6836,9.669,9.6095,9.5421,9.4849,9.4734,9.4921,9.4967,9.3713,9.3227,9.2979,9.2133,9.1556,9.0902,8.9671,8.9017,8.8372,8.7094,8.644,8.6247,8.6709,8.6786,8.6786,8.6786,8.6786,8.6671,8.617,8.6094,8.6094,8.6094,8.6094,8.6094,8.6094,8.6094,8.6094,8.6094,8.6094,8.6094,8.6094,8.6094,8.6094,8.6094,8.5747,8.5424,8.5089,8.508,8.5131,8.523,8.516,8.508,8.508,8.3687,8.3056,8.313,8.1731,8.1176,5.878,6.1133,6.3672,6.4794,6.6295,6.8164,7.0535,7.0252,7.0247,7.301,7.4059,7.5359,7.8206,8.3197,8.9638,9.8043,10.151,10.41,10.6523,10.7697,10.9386,11.1992,11.291,11.3974,11.581,11.5993,11.5993,11.5993,11.5993,11.5296,11.3703,11.3387,11.2176,10.9811,10.8799,10.7881,10.7315,10.5678,10.4777,10.4777,10.399,10.2487,10.0386,10.0289,9.9315,9.7646,9.6954,9.7013,9.7479,9.6879,9.7189,9.8156,9.8772,9.9159,9.9246,9.825,9.7723,9.7429,9.6766,9.6193,9.5842,9.6227,9.634,9.6095,9.5027,9.422,9.348,9.2479,9.171,9.1018,9.0124,8.944,8.8748,8.7902,8.7055,8.6632,8.7517,8.7555,8.744,8.7671,8.7709,8.744,8.6555,8.6401,8.6401,8.6401,8.6401,8.6478,8.6671,8.6709,8.6632,8.644,8.6401,8.6324,8.6132,8.6094,8.6135,8.62,8.6151,8.6094,8.6094,8.6094,8.6094,8.6094,8.6153,8.62,8.62,8.4764,8.414,8.425,8.2387,8.1594,6.1318,6.3875,6.6146,6.7782,6.6667,6.6882,7.3136,7.277,7.2885,7.9034,8.0351,8.0938,8.2647,8.8793,9.5034,9.9475,10.4724,10.9092,11.1515,11.3203,11.4598,11.5516,11.5699,11.581,11.5993,11.5993,11.5993,11.5993,11.5993,11.5296,11.3703,11.2873,11.1405,10.8982,10.7404,10.6486,10.6486,10.4798,10.399,10.399,10.3182,10.1684,9.9659,10.1581,10.0907,9.8324,10.0212,10.0201,9.887,9.8779,9.8838,9.8934,9.8993,9.9607,10.0317,9.8861,9.8789,9.9184,9.7546,9.6757,9.6514,9.6585,9.6442,9.598,9.4287,9.3749,9.3364,9.1748,9.1248,9.1018,9.0124,8.9855,8.9624,8.8795,8.7948,8.7555,8.841,8.7979,8.7632,8.8449,8.8603,8.8333,8.744,8.7325,8.7325,8.7325,8.7325,8.7594,8.841,8.8526,8.8218,8.7401,8.7325,8.6978,8.617,8.6094,8.6223,8.6462,8.6231,8.6094,8.6094,8.6094,8.6094,8.6094,8.6346,8.6481,8.6481,8.5724,8.5382,8.536,8.3636,8.2781,5.9287,6.2846,6.6636,6.8289,6.9947,7.246,7.7543,7.9925,8.2201,8.6172,8.7802,8.9014,9.0611,9.6061,10.1274,10.4284,10.9202,11.302,11.4415,11.5185,11.5699,11.5993,11.5993,11.5993,11.5993,11.5993,11.581,11.5296,11.5296,11.4598,11.291,11.2579,11.1295,10.8909,10.7697,10.6894,10.639,10.4705,10.4207,10.4705,10.3891,10.302,10.2309,10.259,10.2123,10.1002,10.0796,10.0298,9.9739,9.9736,9.9833,10.0118,10.069,10.1201,10.1395,10.0316,9.9833,9.9605,9.8272,9.7377,9.6827,9.6663,9.6474,9.6172,9.5518,9.4557,9.3557,9.2941,9.2018,9.1133,9.0778,9.0316,8.9816,8.9517,8.8825,8.8485,8.9484,8.9419,8.9342,8.9788,8.9869,8.9636,8.8788,8.8633,8.8601,8.8418,8.8376,8.8482,8.8675,8.8718,8.8372,8.7478,8.7063,8.67,8.6391,8.6441,8.6566,8.6671,8.6474,8.6416,8.6549,8.6555,8.6555,8.6555,8.6625,8.6681,8.6681,8.5884,8.5563,8.566,8.422,8.3601,5.8603,6.2457,6.6754,6.8439,7.2874,7.817,8.3251,8.6334,8.9344,9.3565,9.452,9.5107,9.6722,10.0393,10.399,10.6801,11.1478,11.5112,11.5883,11.5993,11.5993,11.5993,11.5993,11.6117,11.6388,11.641,11.6306,11.6101,11.5804,11.51,11.3712,11.2914,11.1485,10.9319,10.7911,10.7013,10.6382,10.4809,10.4323,10.5185,10.4299,10.379,10.361,10.3017,10.2512,10.22,10.1407,10.0899,10.0694,10.0785,10.092,10.12,10.1904,10.2183,10.2117,10.1012,10.0397,9.9827,9.8575,9.7681,9.7095,9.6929,9.6682,9.6483,9.6174,9.5293,9.4296,9.4025,9.3144,9.2255,9.2255,9.1275,9.0316,9.0316,8.9742,8.9547,9.0817,9.0957,9.1013,9.1702,9.1616,9.1149,9.0336,8.9947,8.9734,8.9549,8.9515,8.955,8.9694,8.9697,8.9272,8.8105,8.7157,8.6589,8.6589,8.6724,8.6845,8.6909,8.6778,8.6724,8.6812,8.6817,8.6817,8.6817,8.6844,8.6844,8.6817,8.6264,8.6053,8.61,8.4945,8.4441,6.0151,6.3285,6.6766,6.8527,7.5072,8.2957,9.0188,9.1216,9.2978,10.109,10.0209,9.8447,10.0099,10.098,10.2595,10.592,11.1111,11.5112,11.5883,11.5993,11.5993,11.6016,11.6016,11.6381,11.7308,11.7409,11.7807,11.8709,11.8007,11.7084,11.6309,11.3878,11.1803,11.0106,10.7707,10.6387,10.6409,10.4802,10.441,10.5117,10.4291,10.3482,10.2712,10.261,10.2193,10.1478,10.2481,10.2514,10.1698,10.2001,10.2115,10.2104,10.2386,10.248,10.2301,10.0892,10.0312,10.0,9.832,9.756,9.7409,9.7409,9.7227,9.6856,9.5966,9.5693,9.5542,9.4734,9.4505,9.4505,9.4505,9.2865,9.1219,9.1219,9.079,9.0798,9.2471,9.2337,9.2446,9.4159,9.3804,9.2948,9.2057,9.1196,9.0647,9.0604,9.0604,9.0915,9.1802,9.188,9.1218,8.9502,8.7794,8.6821,8.6821,8.6821,8.6909,8.7098,8.7106,8.7011,8.6794,8.6821,8.6821,8.6821,8.7,8.7003,8.6782,8.7003,8.6997,8.6778,8.5913,8.5394,6.0601,6.4142,6.8894,7.227,7.9208,8.6995,9.3712,9.507,9.6869,10.388,10.4504,10.3806,10.3696,10.5311,10.7,10.7881,11.1405,11.4378,11.581,11.5993,11.6202,11.6884,11.7027,11.7105,11.7415,11.8013,11.7801,11.6292,11.6497,11.5818,11.3819,11.239,11.0919,10.9222,10.739,10.6103,10.5496,10.4497,10.3985,10.4182,10.3415,10.3311,10.3704,10.3085,10.2906,10.2804,10.2485,10.2178,10.2012,10.2297,10.2413,10.2389,10.2703,10.2413,10.1789,10.1405,10.039,9.9297,9.8789,9.8069,9.7409,9.7409,9.7227,9.6934,9.6701,9.6199,9.5659,9.5426,9.4929,9.4505,9.4505,9.4003,9.3525,9.3525,9.3397,9.343,9.4052,9.4082,9.4147,9.4843,9.4775,9.4345,9.3447,9.3095,9.2649,9.1863,9.1733,9.1769,9.1862,9.1374,9.0561,8.9424,8.8462,8.7674,8.7047,8.7165,8.7322,8.7374,8.7375,8.7331,8.7276,8.7276,8.7276,8.7276,8.7165,8.7087,8.7008,8.6943,8.6876,8.6774,8.6397,8.6177,6.4183,6.7581,7.2063,7.778,8.4595,9.1767,9.8924,10.1494,10.3917,10.9092,10.8909,10.7881,10.7991,10.8395,10.9092,11.0083,11.2396,11.4488,11.581,11.6291,11.6788,11.7308,11.7691,11.7996,11.799,11.8807,11.8588,11.6819,11.6795,11.611,11.4207,11.239,11.0792,10.9385,10.7406,10.6006,10.5077,10.4297,10.3711,10.3405,10.299,10.301,10.3303,10.2811,10.2591,10.2888,10.2404,10.2295,10.2404,10.2597,10.2699,10.2703,10.281,10.2383,10.1601,10.1211,10.0195,9.8945,9.8594,9.804,9.7505,9.7505,9.7429,9.7288,9.7288,9.6898,9.6472,9.6472,9.6162,9.5778,9.5778,9.5778,9.5552,9.4703,9.4571,9.4735,9.5212,9.5142,9.5098,9.5624,9.5156,9.4531,9.3984,9.3594,9.3162,9.2474,9.2351,9.2335,9.2188,9.1439,9.0542,8.9681,8.8925,8.8173,8.7314,8.7417,8.75,8.75,8.7416,8.733,8.733,8.7459,8.7459,8.7331,8.7175,8.7016,8.6841,8.6747,8.6615,8.6537,8.6511,8.6519,6.9725,7.2683,7.6231,8.444,9.1069,9.764,10.5275,10.9386,11.2322,11.5002,11.2873,11.1023,11.2396,11.0817,11.001,11.2176,11.3791,11.5121,11.5896,11.6783,11.7507,11.7574,11.8313,11.8796,11.8886,11.9582,11.9706,11.8785,11.7984,11.71,11.6099,11.2906,11.0791,10.9906,10.7482,10.579,10.4905,10.4097,10.3396,10.2521,10.2792,10.2604,10.2099,10.1911,10.1915,10.2193,10.2404,10.2703,10.289,10.289,10.289,10.289,10.2812,10.2187,10.1406,10.0508,9.9648,9.8789,9.7969,9.7695,9.7695,9.7695,9.7695,9.7695,9.7695,9.7695,9.7695,9.7695,9.7695,9.7695,9.7695,9.7656,9.7102,9.5154,9.4808,9.5165,9.5986,9.5648,9.5429,9.6211,9.5117,9.3984,9.3906,9.3242,9.2695,9.2617,9.2617,9.2617,9.2617,9.1914,9.1054,9.0117,8.9297,8.8476,8.7578,8.7461,8.746,8.746,8.7222,8.7089,8.7089,8.7323,8.7326,8.7091,8.7039,8.6883,8.6519,8.6519,8.6356,8.612,8.6403,8.6523,7.2182,7.6161,8.1287,8.9495,9.8668,10.678,11.1096,11.3093,11.3717,11.2506,11.3607,11.4598,11.4305,11.3901,11.3497,11.3409,11.4194,11.512,11.5988,11.6912,11.7886,11.938,11.9201,11.8914,11.8981,11.9207,11.841,11.628,11.5907,11.4907,11.2714,11.0021,10.8098,10.7213,10.5405,10.3982,10.3097,10.2981,10.2489,10.192,10.2004,10.2105,10.2392,10.2397,10.2507,10.2716,10.2805,10.281,10.289,10.289,10.289,10.2812,10.2109,10.1289,10.0508,9.9609,9.8711,9.7969,9.7773,9.7695,9.7695,9.7695,9.7695,9.7695,9.7695,9.7695,9.7695,9.7695,9.7695,9.7695,9.7695,9.7226,9.664,9.616,9.6085,9.6207,9.6363,9.578,9.5273,9.5429,9.5195,9.4687,9.4023,9.375,9.3398,9.2695,9.2617,9.2617,9.2617,9.2422,9.1719,9.0156,8.9844,8.9101,8.7617,8.7325,8.7175,8.7175,8.6983,8.6844,8.6844,8.6922,8.6926,8.6883,8.671,8.6577,8.6519,8.6519,8.6481,8.6416,8.6659,8.6742,7.5581,8.0615,8.7136,9.8448,10.6902,11.2979,11.5515,11.6397,11.6218,11.4493,11.5113,11.5773,11.4892,11.4818,11.4488,11.3681,11.4685,11.5614,11.6079,11.7699,11.8879,11.9494,11.9613,11.9111,11.8,11.8215,11.7215,11.4291,11.3714,11.2483,11.0406,10.779,10.6213,10.579,10.4212,10.3097,10.2597,10.2294,10.1986,10.17,10.2,10.2316,10.2707,10.2707,10.2801,10.289,10.289,10.289,10.289,10.289,10.289,10.2812,10.1914,10.1094,10.0195,9.9336,9.8437,9.7695,9.7695,9.7461,9.7187,9.7578,9.7148,9.6562,9.6992,9.6836,9.6601,9.6992,9.7148,9.7226,9.7617,9.7109,9.6484,9.6484,9.6172,9.5898,9.5898,9.5195,9.457,9.457,9.4258,9.3828,9.3359,9.3281,9.3125,9.2656,9.2617,9.2617,9.2617,9.2617,9.1914,9.0195,9.0351,8.9881,8.8067,8.8187,8.8131,8.7592,8.7357,8.7063,8.6674,8.6543,8.6532,8.6635,8.6565,8.6519,8.6519,8.6519,8.6559,8.6664,8.6868,8.6955,7.8223,8.4952,9.3159,10.6791,11.3014,11.6306,11.8116,11.8514,11.8211,11.7488,11.6789,11.5913,11.5011,11.4818,11.4519,11.3691,11.4899,11.598,11.6199,11.8293,11.9615,11.9003,11.9392,11.8792,11.6484,11.6715,11.5599,11.2291,11.1291,11.0098,10.829,10.5982,10.4723,10.4723,10.3185,10.2414,10.2414,10.199,10.1788,10.1815,10.2305,10.2589,10.2695,10.2812,10.2812,10.2695,10.2812,10.2695,10.2419,10.2497,10.2495,10.2217,10.1402,10.07,9.992,9.9062,9.828,9.7614,9.7497,9.6948,9.6435,9.6982,9.6201,9.5224,9.5928,9.5732,9.5419,9.6005,9.64,9.6755,9.7107,9.6757,9.625,9.6094,9.5273,9.4609,9.4922,9.4297,9.3672,9.3672,9.3086,9.2617,9.2617,9.2617,9.2617,9.2617,9.2617,9.2617,9.2617,9.2617,9.1992,9.039,9.0859,9.0581,8.8813,8.9298,8.932,8.8437,8.8121,8.7611,8.6797,8.6721,8.67,8.6752,8.6588,8.6505,8.6565,8.6577,8.6681,8.6876,8.708,8.717,7.7373,8.7532,9.8793,10.7888,11.21,11.4718,11.7119,11.7122,11.6806,11.738,11.7303,11.6688,11.5073,11.4818,11.4604,11.3806,11.4513,11.5414,11.6312,11.7407,11.8294,11.8989,11.79,11.6611,11.561,11.4214,11.2291,10.9598,10.8713,10.7405,10.5713,10.3905,10.2904,10.2904,10.2199,10.1812,10.1812,10.1986,10.2209,10.2383,10.271,10.2499,10.1797,10.2617,10.25,10.1797,10.2617,10.1904,10.0403,10.1106,10.0885,9.9982,9.9346,9.9035,9.881,9.8121,9.7683,9.7316,9.6576,9.6076,9.5709,9.5136,9.4785,9.4629,9.4746,9.5167,9.5514,9.4937,9.5984,9.6964,9.5561,9.5296,9.5195,9.4414,9.3008,9.2226,9.375,9.3398,9.2773,9.2773,9.2695,9.2617,9.2617,9.2617,9.2617,9.2617,9.2617,9.2617,9.2617,9.2617,9.2226,9.1211,9.1211,9.0898,8.9881,8.9729,8.9639,8.9506,8.9278,8.881,8.7906,8.8584,8.8623,8.7906,8.6971,8.6577,8.6769,8.6949,8.7024,8.7085,8.7327,8.7459,8.3442,9.1858,10.0106,10.9292,11.2685,11.4613,11.7697,11.7715,11.7013,11.6901,11.6388,11.5796,11.51,11.4088,11.3396,11.3114,11.4104,11.5397,11.6402,11.7206,11.7588,11.6989,11.5907,11.4407,11.2599,11.1291,10.9713,10.7713,10.629,10.4982,10.3789,10.252,10.1904,10.1904,10.1793,10.17,10.17,10.2085,10.2187,10.2012,10.1599,10.1211,10.0898,10.1289,10.1211,10.0898,10.1588,10.1204,9.9907,10.0213,10.0002,9.9492,9.8225,9.8064,9.8265,9.655,9.6452,9.7043,9.6189,9.5467,9.4989,9.5114,9.4224,9.3134,9.3605,9.3679,9.367,9.4297,9.4835,9.5263,9.5458,9.5016,9.4375,9.3984,9.2929,9.2226,9.3008,9.25,9.2031,9.25,9.3008,9.332,9.332,9.332,9.332,9.332,9.289,9.2617,9.2617,9.2617,9.2265,9.1406,9.1758,9.1638,9.0639,9.0878,9.0825,9.0233,9.0112,8.9709,8.8857,8.9207,8.9263,8.901,8.7919,8.7483,8.7682,8.7314,8.7173,8.7328,8.7459,8.75,8.583,9.1932,9.7396,10.6907,11.07,11.3002,11.6604,11.6875,11.6297,11.61,11.4982,11.4093,11.4279,11.3124,11.2083,11.2196,11.3296,11.4582,11.5705,11.6181,11.6022,11.4791,11.3483,11.1906,10.979,10.8598,10.7213,10.5597,10.4289,10.3212,10.2289,10.1712,10.1279,10.1279,10.16,10.1705,10.1802,10.2107,10.2007,10.1601,10.0703,10.0195,9.9961,10.0195,9.9999,9.9602,10.0493,10.0207,9.9143,9.8947,9.868,9.8308,9.6825,9.6657,9.7012,9.5179,9.5233,9.6136,9.5286,9.4501,9.4002,9.4402,9.3276,9.1834,9.2499,9.2383,9.2261,9.3303,9.3622,9.3874,9.4772,9.4402,9.3746,9.3593,9.289,9.2344,9.2539,9.2109,9.1836,9.2461,9.3281,9.3906,9.3906,9.4062,9.414,9.3823,9.3319,9.2812,9.2534,9.2577,9.2344,9.1719,9.2226,9.2262,9.1481,9.2179,9.2305,9.1502,9.1652,9.1418,9.0564,9.0762,9.0711,9.0332,8.9621,8.9094,8.8823,8.8157,8.7949,8.8125,8.8125,8.8125,7.8993,8.3911,8.9568,9.7935,10.3515,10.7988,11.2116,11.2888,11.3314,11.4812,11.32,11.1708,11.2604,11.1904,11.1304,11.141,11.1518,11.219,11.3884,11.35,11.2896,11.2791,11.0714,10.879,10.7905,10.629,10.4597,10.2904,10.2712,10.2289,10.1394,10.1279,10.1279,10.1279,10.16,10.1789,10.209,10.1785,10.1601,10.1601,10.0703,9.9883,9.9101,9.9922,9.9286,9.7652,9.925,9.8897,9.7129,9.6932,9.6197,9.5191,9.4515,9.4266,9.4344,9.4456,9.4379,9.4111,9.3258,9.2789,9.2481,9.1703,9.1356,9.1241,9.1279,9.1857,9.2319,9.1587,9.2681,9.378,9.2462,9.2825,9.3384,9.281,9.1992,9.1601,9.2422,9.2578,9.2539,9.2578,9.3281,9.3906,9.3906,9.4609,9.4761,9.3687,9.3696,9.3433,9.2356,9.2448,9.2578,9.2539,9.2578,9.2578,9.2539,9.332,9.3788,9.3749,9.4491,9.4569,9.371,9.4452,9.4019,9.212,9.226,9.1562,8.9921,8.9882,8.9843,8.9883,8.9883,8.9883,7.8605,8.1819,8.5775,9.3466,9.8644,10.2602,10.5814,10.802,10.9495,10.9608,10.8798,10.8305,10.8596,10.9184,10.9897,11.0491,11.0598,11.0986,11.2209,11.1598,11.0714,10.9598,10.8213,10.679,10.5405,10.4212,10.3212,10.2597,10.2097,10.1587,10.1279,10.1279,10.1279,10.1279,10.16,10.1903,10.2393,10.1307,10.0781,10.0703,9.9336,9.8203,9.7422,9.8242,9.7655,9.6039,9.6848,9.674,9.5938,9.5695,9.4724,9.3305,9.2553,9.2224,9.2126,9.1269,9.1933,9.3168,9.2477,9.2418,9.2619,9.231,9.1745,9.121,9.121,9.1441,9.171,9.1979,9.2226,9.2432,9.2473,9.2487,9.2467,9.2365,9.2028,9.1796,9.2258,9.2492,9.2773,9.332,9.4012,9.4649,9.5235,9.5414,9.5177,9.4219,9.3839,9.3272,9.2301,9.2446,9.2617,9.2617,9.2617,9.2771,9.3129,9.3476,9.3802,9.4184,9.449,9.4568,9.4217,9.4529,9.4435,9.3892,9.3423,9.2344,9.0627,9.0191,8.9726,8.9179,8.9726,8.9687,7.6952,7.9103,8.2254,8.9368,9.3136,9.6409,10.1392,10.3487,10.4597,10.5524,10.5585,10.558,10.5582,10.6417,10.7611,10.8985,10.9287,10.9596,11.0512,10.9598,10.8482,10.7405,10.602,10.4713,10.3597,10.2712,10.2212,10.2212,10.1587,10.1279,10.1279,10.1279,10.1279,10.1279,10.1618,10.1895,10.1893,10.0801,10.0195,9.9844,9.8398,9.7265,9.6523,9.7031,9.6483,9.5064,9.5282,9.513,9.4613,9.4072,9.3002,9.1668,9.0874,9.0579,9.0453,8.9454,9.0152,9.1616,9.1491,9.1708,9.2097,9.2408,9.2031,9.1451,9.1451,9.1451,9.1537,9.2009,9.2047,9.2089,9.2663,9.2754,9.2766,9.2896,9.2834,9.277,9.2899,9.288,9.2966,9.3551,9.4432,9.5303,9.5888,9.6055,9.5723,9.4595,9.4147,9.3502,9.2334,9.2446,9.2617,9.2617,9.2535,9.2749,9.3429,9.3691,9.4117,9.4785,9.513,9.5286,9.5286,9.5365,9.5318,9.5108,9.4417,9.3187,9.1397,9.0733,9.0156,8.9609,9.0156,8.9961,0.0,0.0,0.0,8.5069,8.6721,8.9271,9.8778,9.9164,9.8668,10.2705,10.3607,10.3701,10.3812,10.3807,10.4596,10.7087,10.7507,10.7786,10.859,10.7405,10.628,10.628,10.4097,10.2597,10.2597,10.1779,10.1279,10.1279,10.1279,10.1279,10.1279,10.1279,10.1279,10.1279,10.1789,10.1682,10.0821,10.0503,9.9844,9.8945,9.8086,9.7226,9.6406,9.6445,9.5847,9.4756,9.4753,9.413,9.3008,9.1963,9.0998,9.0179,8.9508,8.9251,8.9212,8.9221,8.9264,8.942,9.0288,9.06,9.079,9.1616,9.1884,9.1919,9.1919,9.1919,9.1869,9.1616,9.2141,9.2838,9.2825,9.3597,9.4373,9.4373,9.4407,9.4402,9.445,9.3828,9.3283,9.3263,9.4581,9.5709,9.5714,9.6414,9.638,9.4673,9.4618,9.4127,9.2412,9.2445,9.2617,9.2617,9.2387,9.26,9.3488,9.4084,9.4815,9.5656,9.6517,9.6993,9.6998,9.724,9.6869,9.575,9.5347,9.4169,9.2184,9.1593,9.1289,9.1211,9.125,9.082,7.3648,0.0,0.0,0.0,0.0,0.0,8.6664,8.8353,9.0463,9.5144,9.6522,9.7955,10.1511,10.2587,10.3397,10.4703,10.4895,10.4987,10.5192,10.4905,10.4405,10.3712,10.302,10.2404,10.1712,10.1394,10.1279,10.1279,10.1279,10.1279,10.1279,10.1279,10.1279,10.1279,10.1789,10.1682,10.0821,10.0503,9.9531,9.8047,9.7226,9.6054,9.4648,9.5273,9.4686,9.3233,9.3655,9.2669,9.071,9.1473,9.0586,8.8692,8.8494,8.8053,8.7495,8.763,8.8493,8.9642,9.0033,9.0871,9.1811,9.2045,9.2002,9.1919,9.1919,9.1919,9.2022,9.2579,9.291,9.3169,9.364,9.395,9.4174,9.42,9.4505,9.4883,9.5028,9.5265,9.5359,9.5058,9.5245,9.567,9.6507,9.6139,9.5443,9.4528,9.4108,9.3463,9.2334,9.2243,9.2532,9.3192,9.3041,9.345,9.4691,9.4947,9.5369,9.6096,9.6351,9.6567,9.6689,9.6786,9.6556,9.5981,9.4649,9.3172,9.1556,9.1366,9.0664,8.9414,9.0078,9.0151,7.3303,7.3193,7.3817,7.646,0.0,0.0,8.3067,8.3728,8.4946,9.0755,9.2311,9.3767,9.7602,9.9463,10.082,10.1586,10.2404,10.3097,10.3789,10.3597,10.3212,10.2712,10.2289,10.1904,10.1279,10.1279,10.1279,10.1279,10.1279,10.1279,10.1279,10.141,10.1315,10.0882,10.1401,10.1081,9.9908,9.9816,9.8906,9.7187,9.6719,9.5586,9.3906,9.4414,9.3906,9.2617,9.2602,9.1533,8.9852,9.0376,8.9409,8.7683,8.783,8.7541,8.7124,8.7222,8.7902,8.8884,8.9725,9.0306,9.0868,9.1571,9.1499,9.1091,9.1091,9.1367,9.1694,9.2047,9.2736,9.3652,9.4744,9.5262,9.5525,9.5517,9.6061,9.6524,9.6272,9.6515,9.6643,9.6078,9.5831,9.584,9.6237,9.5745,9.4995,9.4139,9.4034,9.3734,9.2839,9.3075,9.3442,9.3842,9.3375,9.3491,9.4691,9.4379,9.4447,9.5152,9.5667,9.5965,9.6078,9.6277,9.6304,9.6117,9.4131,9.2172,9.0234,9.0234,8.9883,8.9258,9.0032,9.0164,7.2936,7.2789,7.3634,7.7268,7.5506,0.0,8.3471,8.215,8.1014,8.7714,8.9212,9.0096,9.2658,9.5146,9.7057,9.7827,9.9596,10.152,10.3405,10.2904,10.252,10.252,10.1789,10.1279,10.1279,10.1202,10.1212,10.1212,10.1183,10.1212,10.1289,10.1502,10.1215,10.0504,10.0781,10.0212,9.849,9.8738,9.8008,9.6367,9.625,9.539,9.3906,9.3789,9.3281,9.2422,9.164,9.0742,8.9804,8.9023,8.8075,8.717,8.7417,8.75,8.75,8.75,8.7578,8.7851,8.9453,8.957,8.9258,9.0781,9.0781,9.0117,8.9999,9.0585,9.1238,9.1088,9.258,9.4553,9.6071,9.7092,9.7661,9.7644,9.825,9.8596,9.7827,9.7557,9.7288,9.6557,9.6286,9.6048,9.5561,9.5267,9.4796,9.3951,9.4289,9.4397,9.3734,9.4295,9.4647,9.4407,9.3508,9.3228,9.3995,9.3213,9.2982,9.3713,9.4704,9.5313,9.5312,9.5731,9.5931,9.5865,9.3507,9.1133,8.8711,8.8594,8.8945,8.9726,9.0392,9.0233,7.428,7.4426,7.461,7.5417,7.5506,0.0,7.5359,7.5102,7.6043,8.0057,8.1761,8.3833,8.8242,9.0899,9.2479,9.2672,9.5826,9.9096,10.152,10.1712,10.1597,10.1597,10.1394,10.1279,10.1279,10.0712,10.0289,10.0289,10.0496,10.0883,10.158,10.1194,10.0895,10.0701,10.0384,9.9351,9.7632,9.784,9.7109,9.5469,9.4726,9.4219,9.3867,9.3164,9.2383,9.1523,9.1367,9.039,8.8945,8.8789,8.8202,8.7419,8.7461,8.75,8.75,8.75,8.789,8.8594,8.9648,9.0351,9.0859,9.1172,9.1172,9.0897,9.0005,9.0374,9.1438,9.3231,9.5496,9.7413,9.7553,9.8207,9.8817,9.8612,9.8673,9.875,9.8596,9.8019,9.7442,9.7288,9.6308,9.5729,9.6532,9.5104,9.4334,9.5694,9.4687,9.3968,9.4478,9.4379,9.4231,9.4163,9.3786,9.3573,9.3765,9.3771,9.3836,9.4029,9.4389,9.4682,9.4894,9.4997,9.483,9.4332,9.1796,8.9922,8.8711,8.8047,8.7812,8.8008,8.8633,8.8433,7.4404,7.4294,7.4404,7.4793,7.4588,0.0,0.0,7.3656,7.3639,7.762,7.8228,7.9418,8.3881,8.6202,8.7979,8.9671,9.2441,9.5095,9.7211,9.9712,10.1279,10.1279,10.1279,10.1279,10.1279,10.0596,9.9969,9.966,10.0215,10.0603,10.0597,10.0396,10.0204,9.9736,9.9107,9.8216,9.6965,9.6638,9.582,9.4531,9.4101,9.3672,9.3203,9.2344,9.1719,9.125,9.039,8.9492,8.8672,8.8114,8.7727,8.75,8.75,8.75,8.75,8.75,8.8008,8.8828,8.9687,9.0273,9.0703,9.1172,9.0703,8.9959,8.9751,9.0434,9.1679,9.373,9.5441,9.6817,9.7533,9.8447,9.9164,9.9032,9.9421,9.9563,9.875,9.7891,9.7264,9.724,9.6072,9.5169,9.5641,9.4491,9.3832,9.4854,9.4512,9.4388,9.4967,9.5204,9.5342,9.5342,9.4473,9.3933,9.405,9.3404,9.2993,9.2993,9.3588,9.4013,9.4166,9.4293,9.3817,9.2617,9.1328,9.0234,8.9336,8.8945,8.875,8.875,8.8946,8.906,7.4955,7.4882,7.5102,7.5124,7.4728,7.4617,0.0,0.0,0.0,7.628,7.5969,7.6126,7.9575,8.144,8.3371,8.6137,8.8504,9.0479,9.1825,9.598,9.9096,9.974,9.9827,9.9971,10.0279,9.9479,9.8948,9.9013,9.9418,9.964,9.9596,9.9668,9.9347,9.8448,9.7804,9.6992,9.6015,9.5312,9.4609,9.3906,9.3711,9.3359,9.2812,9.1758,9.1211,9.0976,8.9375,8.8594,8.8398,8.7495,8.7275,8.75,8.7459,8.746,8.7539,8.7656,8.8125,8.8828,8.9687,9.0,9.0078,9.0625,8.9802,8.8769,8.9593,9.0723,9.2004,9.3558,9.4744,9.5893,9.7434,9.854,9.9286,9.9474,9.9912,9.996,9.8598,9.7621,9.6998,9.7007,9.5934,9.4989,9.4762,9.416,9.3821,9.4037,9.4588,9.513,9.5633,9.6262,9.6618,9.6424,9.5216,9.435,9.4192,9.2969,9.2137,9.1981,9.281,9.3343,9.3343,9.3547,9.3008,9.1562,9.1406,9.0937,9.0234,9.0078,9.0,9.0,8.9806,9.0087,7.7892,7.9066,7.9507,7.668,7.8352,7.9212,7.3337,0.0,7.4667,7.253,0.0,7.4002,7.5259,0.0,0.0,7.8912,8.2706,8.5662,8.5854,8.8325,9.1219,9.421,9.4557,9.5172,9.6711,9.5561,9.5731,9.8223,9.6582,9.6755,9.9718,9.939,9.871,9.7811,9.7031,9.5859,9.4219,9.4101,9.3984,9.3906,9.3125,9.3086,9.3711,9.2031,9.0898,9.0078,8.9101,8.8281,8.7617,8.7261,8.7275,8.746,8.723,8.7282,8.7578,8.8281,8.8633,8.8828,8.9687,9.0,8.9883,8.9219,8.8616,8.8472,9.0006,9.1398,9.2597,9.3482,9.5585,9.7794,9.8769,9.9228,9.9677,10.0382,9.959,9.852,9.8326,9.763,9.7007,9.7012,9.6444,9.5958,9.5905,9.521,9.5018,9.6012,9.5858,9.5969,9.7037,9.7025,9.6658,9.5885,9.5613,9.4927,9.3441,9.3335,9.2979,9.2198,9.2519,9.2694,9.2694,9.2734,9.2656,9.2461,9.1679,9.125,9.1133,9.039,9.0,9.0,8.9806,8.9845,7.8626,7.9764,8.0409,7.7953,7.8875,7.9275,7.4893,7.3805,7.3385,7.2248,0.0,0.0,0.0,0.0,0.0,0.0,7.9288,8.0823,8.1816,8.2439,8.514,9.1479,9.1402,9.1313,9.2697,9.2887,9.3254,9.3935,9.3258,9.3616,9.5567,9.5896,9.6094,9.625,9.5429,9.4883,9.4648,9.414,9.3906,9.3906,9.3515,9.3281,9.3086,9.1328,9.0351,8.9922,8.8594,8.7812,8.7461,8.7222,8.7275,8.746,8.7181,8.7276,8.7617,8.8398,8.9023,8.957,9.0469,9.1094,9.1367,9.0508,9.059,9.1114,9.1431,9.2786,9.4272,9.4724,9.6079,9.757,9.8469,9.8869,9.9101,9.9449,9.9094,9.8541,9.7917,9.7102,9.6478,9.6478,9.6289,9.5976,9.5653,9.5257,9.5137,9.5479,9.5754,9.6249,9.7078,9.7074,9.691,9.672,9.6223,9.5717,9.5171,9.4737,9.432,9.3969,9.406,9.4101,9.4101,9.3633,9.3594,9.4101,9.2773,9.2304,9.2812,9.1914,9.1442,9.126,9.0694,9.0733,8.0134,8.1212,8.1972,7.9471,7.9551,7.944,7.6419,7.4869,7.3896,7.3416,7.3067,0.0,0.0,0.0,7.5481,7.7092,0.0,7.7361,7.8592,7.7823,7.9862,8.7209,8.7886,8.8156,8.9239,8.9773,9.0261,9.061,8.9953,9.0351,9.2148,9.3086,9.3828,9.4453,9.4101,9.4219,9.4844,9.4219,9.4023,9.4258,9.4023,9.3554,9.289,9.1133,9.0234,8.9922,8.8476,8.7695,8.7461,8.7222,8.7275,8.746,8.7181,8.7276,8.7617,8.8672,8.9609,9.0469,9.1094,9.1562,9.1836,9.1445,9.2053,9.288,9.2617,9.3924,9.5509,9.5642,9.636,9.7302,9.8193,9.8414,9.8473,9.8607,9.8593,9.834,9.746,9.6836,9.647,9.647,9.6301,9.6063,9.5624,9.5701,9.569,9.5308,9.5943,9.6644,9.712,9.7188,9.7274,9.7444,9.6904,9.6537,9.6484,9.5937,9.5469,9.5234,9.5195,9.5195,9.5195,9.4609,9.4453,9.4844,9.3828,9.3398,9.3554,9.3083,9.2749,9.2529,9.1709,9.1613,8.3514,8.4807,8.5624,8.1469,8.1409,8.1189,7.6565,7.7159,7.8064,7.5863,7.6719,7.7621,7.6828,7.7172,0.0,0.0,7.6205,0.0,0.0,7.4707,7.5277,7.9662,8.3189,8.5729,8.6796,8.5603,8.6235,8.9765,8.6953,8.6914,9.1133,9.2187,9.2656,9.2695,9.3476,9.3906,9.3945,9.3906,9.4336,9.5156,9.4297,9.3906,9.3789,9.2031,9.0781,8.9961,8.9062,8.8203,8.7461,8.7222,8.7275,8.746,8.7181,8.7276,8.7695,8.9336,9.0508,9.125,9.1289,9.0781,9.0234,9.1015,9.1738,9.2407,9.3194,9.4491,9.5684,9.5693,9.6508,9.76,9.8458,9.8216,9.7889,9.8539,9.8043,9.738,9.7074,9.7188,9.737,9.737,9.6893,9.6484,9.6445,9.6926,9.7135,9.6522,9.6961,9.7446,9.7654,9.7695,9.7695,9.7695,9.7656,9.7343,9.6562,9.6484,9.6094,9.5234,9.5195,9.5195,9.5195,9.5156,9.4765,9.3945,9.4726,9.4297,9.2656,9.3206,9.347,9.3422,9.2568,9.2069,8.7474,8.944,9.0535,8.5622,8.5154,8.4303,7.8318,7.7979,7.8265,7.5966,7.6877,7.7843,7.6964,7.7296,0.0,0.0,0.0,7.493,0.0,7.336,7.365,7.6307,7.9828,8.1494,8.0174,8.0351,8.1517,8.3867,8.1953,8.2773,8.7656,8.9258,9.082,9.2539,9.3437,9.4453,9.5625,9.5625,9.5469,9.5195,9.4883,9.414,9.3008,9.1836,9.1133,9.0781,8.9336,8.8554,8.8242,8.7612,8.7418,8.75,8.7416,8.7731,8.8359,8.8945,8.9687,9.0586,9.1758,9.1953,9.1875,9.2734,9.3418,9.4103,9.5176,9.6113,9.6853,9.6974,9.7281,9.7651,9.7809,9.7673,9.7515,9.7567,9.7364,9.7107,9.703,9.7074,9.7011,9.661,9.6853,9.6772,9.582,9.6715,9.7142,9.5859,9.6286,9.683,9.6914,9.6914,9.7109,9.7656,9.7695,9.7578,9.7304,9.7304,9.7187,9.6875,9.6836,9.6836,9.6836,9.6328,9.6172,9.6406,9.5625,9.48,9.4063,9.4265,9.391,9.3024,9.3335,9.3093,9.076,9.2298,9.3124,8.9103,8.8259,8.691,8.1141,8.0652,8.08,7.8417,7.8805,7.9614,0.0,7.8989,0.0,0.0,0.0,0.0,0.0,7.2283,7.2193,7.3518,7.6588,7.8104,7.6832,7.7236,7.789,7.8672,7.8281,7.9765,8.3672,8.6367,8.8984,9.1601,9.3125,9.4726,9.6484,9.6484,9.6367,9.6094,9.5781,9.5078,9.3945,9.3086,9.2344,9.1679,9.0234,8.9258,8.8633,8.7812,8.75,8.75,8.75,8.8008,8.875,8.9062,8.9922,9.1133,9.2578,9.3047,9.3203,9.4062,9.4835,9.5557,9.6287,9.6984,9.7594,9.7926,9.78,9.7593,9.7681,9.7487,9.721,9.6934,9.6866,9.6866,9.6866,9.6944,9.6927,9.6602,9.6855,9.6852,9.621,9.6758,9.6797,9.539,9.6172,9.6836,9.6523,9.6758,9.7148,9.7656,9.7695,9.7695,9.7695,9.7695,9.7695,9.7695,9.7695,9.7695,9.7695,9.7187,9.7461,9.8594,9.687,9.6065,9.6202,9.5388,9.4572,9.3702,9.4194,9.4126]}]]